[[{"header":{"parameterUnit":"m.s-1","parameterCategory":1,"la1":31.0,"la2":29.5877,"lo1":-88.7671,"lo2":-86.6584,"dy":0.0162,"dx":0.0185,"nx":115,"ny":88,"refTime":"2024-08-06T00:00:00:Z","depth":0,"parameterNumber":2,"parameterNumberName":"U-component_of_WINDS"},"data":[0.0,0.0,0.0,0.0,0.0,0.0,0.0,0.0,0.0,0.0,0.0,0.0,0.0,0.0,0.0,0.0,0.0,0.0,0.0,0.0,0.0,0.0,0.0,0.0,0.0,0.0,0.0,0.0,0.0,0.0,0.0,0.0,0.0,0.0,0.0,0.0,0.0,0.0,0.0,0.0,0.0,0.0,0.0,0.0,0.0,0.0,0.0,0.0,0.0,0.0,0.0,0.0,0.0,0.0,0.0,0.0,0.0,0.0,0.0,0.0,0.0,0.0,0.0,0.0,0.0,0.0,0.0,0.0,0.0,0.0,0.0,0.0,0.0,0.0,0.0,0.0,0.0,0.0,0.0,0.0,0.0,0.0,0.0,0.0,0.0,0.0,0.0,0.0,0.0,0.0,0.0,0.0,0.0,0.0,0.0,0.0,0.0,0.0,0.0,0.0,0.0,0.0,0.0,0.0,0.0,0.0,0.0,0.0,0.0,0.0,0.0,0.0,0.0,0.0,0.0,0.0,0.0,0.0,0.0,0.0,0.0,0.0,0.0,0.0,0.0,0.0,0.0,0.0,0.0,0.0,0.0,0.0,0.0,0.0,0.0,0.0,0.0,0.0,0.0,0.0,0.0,0.0,0.0,0.0,0.0,0.0,0.0,0.0,0.0,0.0,0.0,0.0,0.0,0.0,0.0,0.0,0.0,0.0,0.0,0.0,0.0,0.0,0.0,0.0,0.0,0.0,0.0,0.0,0.0,0.0,0.0,0.0,0.0,0.0,0.0,0.0,0.0,0.0,0.0,0.0,0.0,0.0,0.0,0.0,0.0,0.0,0.0,0.0,0.0,0.0,0.0,0.0,0.0,0.0,0.0,0.0,0.0,0.0,0.0,0.0,0.0,0.0,0.0,0.0,0.0,0.0,0.0,0.0,0.0,0.0,0.0,0.0,0.0,0.0,0.0,0.0,0.0,0.0,0.0,0.0,0.0,0.0,0.0,0.0,0.0,0.0,0.0,0.0,0.0,0.0,0.0,0.0,0.0,0.0,0.0,0.0,0.0,0.0,0.0,0.0,0.0,0.0,0.0,0.0,0.0,0.0,0.0,0.0,0.0,0.0,0.0,0.0,0.0,0.0,0.0,0.0,0.0,0.0,0.0,0.0,0.0,0.0,0.0,0.0,0.0,0.0,0.0,0.0,0.0,0.0,0.0,0.0,0.0,0.0,0.0,0.0,0.0,0.0,0.0,0.0,0.0,0.0,0.0,0.0,0.0,0.0,0.0,0.0,0.0,0.0,0.0,0.0,0.0,0.0,0.0,0.0,0.0,0.0,0.0,0.0,0.0,0.0,0.0,0.0,0.0,0.0,0.0,0.0,0.0,0.0,0.0,0.0,0.0,0.0,0.0,0.0,0.0,0.0,0.0,0.0,0.0,0.0,0.0,0.0,0.0,0.0,0.0,0.0,0.0,0.0,0.0,0.0,0.0,0.0,0.0,0.0,0.0,0.0,0.0,0.0,0.0,0.0,0.0,0.0,0.0,0.0,0.0,0.0,0.0,0.0,0.0,0.0,0.0,0.0,0.0,0.0,0.0,0.0,0.0,0.0,0.0,0.0,0.0,0.0,0.0,0.0,0.0,0.0,0.0,0.0,0.0,0.0,0.0,0.0,0.0,0.0,0.0,0.0,0.0,0.0,0.0,0.0,0.0,0.0,0.0,0.0,0.0,0.0,0.0,0.0,0.0,0.0,0.0,0.0,0.0,0.0,0.0,0.0,0.0,0.0,0.0,0.0,0.0,0.0,0.0,0.0,0.0,0.0,0.0,0.0,0.0,0.0,0.0,0.0,0.0,0.0,0.0,0.0,0.0,0.0,0.0,0.0,0.0,0.0,0.0,0.0,0.0,0.0,0.0,0.0,0.0,0.0,0.0,0.0,0.0,0.0,0.0,0.0,0.0,0.0,0.0,0.0,0.0,0.0,0.0,0.0,0.0,0.0,0.0,0.0,0.0,0.0,0.0,0.0,0.0,0.0,0.0,0.0,0.0,0.0,0.0,0.0,0.0,0.0,0.0,0.0,0.0,0.0,0.0,0.0,0.0,0.0,0.0,0.0,0.0,0.0,0.0,0.0,0.0,0.0,0.0,0.0,0.0,0.0,0.0,0.0,0.0,0.0,0.0,0.0,0.0,0.0,0.0,0.0,0.0,0.0,0.0,0.0,0.0,0.0,0.0,0.0,0.0,0.0,0.0,0.0,0.0,0.0,0.0,0.0,0.0,0.0,0.0,0.0,0.0,0.0,0.0,0.0,0.0,0.0,0.0,0.0,0.0,0.0,0.0,0.0,0.0,0.0,0.0,0.0,0.0,0.0,0.0,0.0,0.0,0.0,0.0,0.0,0.0,0.0,0.0,0.0,0.0,0.0,0.0,0.0,0.0,0.0,0.0,0.0,0.0,0.0,0.0,0.0,0.0,0.0,0.0,0.0,0.0,0.0,0.0,0.0,0.0,0.0,0.0,0.0,0.0,0.0,0.0,0.0,0.0,0.0,0.0,0.0,0.0,0.0,0.0,0.0,0.0,0.0,0.0,0.0,0.0,0.0,0.0,0.0,0.0,0.0,0.0,0.0,0.0,0.0,0.0,0.0,0.0,0.0,0.0,0.0,0.0,0.0,0.0,0.0,0.0,0.0,0.0,0.0,0.0,0.0,0.0,0.0,0.0,0.0,0.0,0.0,0.0,0.0,0.0,0.0,0.0,0.0,0.0,0.0,0.0,0.0,0.0,0.0,0.0,0.0,0.0,0.0,0.0,0.0,0.0,0.0,0.0,0.0,0.0,0.0,0.0,0.0,0.0,0.0,0.0,0.0,0.0,0.0,0.0,0.0,0.0,0.0,0.0,0.0,0.0,0.0,0.0,0.0,0.0,0.0,0.0,0.0,0.0,0.0,0.0,0.0,0.0,0.0,0.0,0.0,0.0,0.0,0.0,0.0,0.0,0.0,0.0,0.0,0.0,0.0,0.0,0.0,0.0,0.0,0.0,0.0,0.0,0.0,0.0,0.0,0.0,0.0,0.0,0.0,0.0,0.0,0.0,0.0,0.0,0.0,0.0,0.0,0.0,0.0,0.0,0.0,0.0,0.0,0.0,0.0,0.0,0.0,0.0,0.0,0.0,0.0,0.0,0.0,0.0,0.0,0.0,0.0,0.0,0.0,0.0,0.0,0.0,0.0,0.0,0.0,0.0,0.0,0.0,0.0,0.0,0.0,0.0,0.0,0.0,0.0,0.0,0.0,0.0,0.0,0.0,0.0,0.0,0.0,0.0,0.0,0.0,0.0,0.0,0.0,0.0,0.0,0.0,0.0,0.0,0.0,0.0,0.0,0.0,0.0,0.0,0.0,0.0,0.0,0.0,0.0,0.0,0.0,0.0,0.0,0.0,0.0,0.0,0.0,0.0,0.0,0.0,0.0,0.0,0.0,0.0,0.0,0.0,0.0,0.0,0.0,0.0,0.0,0.0,0.0,0.0,0.0,0.0,0.0,0.0,0.0,0.0,0.0,0.0,0.0,0.0,0.0,0.0,0.0,0.0,0.0,0.0,0.0,0.0,0.0,0.0,0.0,0.0,0.0,0.0,0.0,0.0,0.0,0.0,0.0,0.0,0.0,0.0,0.0,0.0,0.0,0.0,0.0,0.0,0.0,0.0,0.0,0.0,0.0,0.0,0.0,0.0,0.0,0.0,0.0,0.0,0.0,0.0,0.0,0.0,0.0,0.0,0.0,0.0,0.0,0.0,0.0,0.0,0.0,0.0,0.0,0.0,0.0,0.0,0.0,0.0,0.0,0.0,0.0,0.0,0.0,0.0,0.0,0.0,0.0,0.0,0.0,0.0,0.0,0.0,0.0,0.0,0.0,0.0,0.0,0.0,0.0,0.0,0.0,0.0,0.0,0.0,0.0,0.0,0.0,0.0,0.0,0.0,0.0,0.0,0.0,0.0,0.0,0.0,0.0,0.0,0.0,0.0,0.0,0.0,0.0,0.0,0.0,0.0,0.0,0.0,0.0,0.0,0.0,0.0,0.0,0.0,0.0,0.0,0.0,0.0,0.0,0.0,0.0,0.0,0.0,0.0,0.0,0.0,0.0,0.0,0.0,0.0,0.0,0.0,0.0,0.0,0.0,0.0,0.0,0.0,0.0,0.0,0.0,0.0,0.0,0.0,0.0,0.0,0.0,0.0,0.0,0.0,0.0,0.0,0.0,0.0,0.0,0.0,0.0,0.0,0.0,0.0,0.0,2.9669,0.0,0.0,0.0,0.0,0.0,0.0,0.0,0.0,0.0,0.0,0.0,0.0,0.0,0.0,0.0,0.0,0.0,0.0,0.0,0.0,0.0,0.0,0.0,0.0,0.0,0.0,0.0,0.0,0.0,0.0,0.0,0.0,0.0,0.0,0.0,0.0,0.0,0.0,0.0,0.0,0.0,0.0,0.0,0.0,0.0,0.0,0.0,0.0,0.0,0.0,0.0,0.0,0.0,0.0,0.0,0.0,0.0,0.0,0.0,0.0,0.0,0.0,0.0,0.0,0.0,0.0,0.0,0.0,0.0,0.0,0.0,0.0,0.0,0.0,0.0,0.0,0.0,0.0,0.0,0.0,0.0,0.0,0.0,0.0,0.0,0.0,0.0,0.0,0.0,0.0,0.0,0.0,0.0,0.0,0.0,0.0,0.0,0.0,0.0,0.0,0.0,0.0,0.0,0.0,0.0,0.0,0.0,0.0,0.0,0.0,3.3331,3.2172,3.327,3.2291,2.8948,0.0,0.0,0.0,0.0,0.0,0.0,0.0,0.0,0.0,0.0,0.0,0.0,0.0,0.0,0.0,0.0,0.0,0.0,0.0,0.0,0.0,0.0,0.0,0.0,0.0,0.0,0.0,0.0,0.0,0.0,0.0,0.0,0.0,0.0,0.0,0.0,0.0,0.0,0.0,0.0,0.0,0.0,0.0,0.0,0.0,0.0,0.0,0.0,0.0,0.0,0.0,0.0,0.0,0.0,0.0,0.0,0.0,0.0,0.0,0.0,0.0,0.0,0.0,0.0,0.0,0.0,0.0,0.0,0.0,0.0,0.0,0.0,0.0,0.0,0.0,0.0,0.0,0.0,0.0,0.0,0.0,0.0,0.0,0.0,0.0,0.0,0.0,0.0,0.0,0.0,0.0,0.0,0.0,0.0,0.0,0.0,0.0,0.0,0.0,0.0,0.0,0.0,0.0,0.0,0.0,0.0,0.0,0.0,0.0,0.0,0.0,0.0,3.2978,3.1785,2.8632,0.0,0.0,0.0,0.0,0.0,0.0,0.0,0.0,0.0,0.0,0.0,0.0,0.0,0.0,0.0,0.0,0.0,0.0,0.0,0.0,0.0,0.0,0.0,0.0,0.0,0.0,0.0,0.0,0.0,0.0,0.0,0.0,0.0,0.0,0.0,0.0,0.0,0.0,0.0,0.0,0.0,0.0,0.0,0.0,0.0,0.0,0.0,0.0,0.0,0.0,0.0,0.0,0.0,0.0,0.0,0.0,0.0,0.0,0.0,0.0,0.0,0.0,0.0,0.0,0.0,0.0,0.0,0.0,0.0,0.0,0.0,0.0,0.0,0.0,0.0,0.0,0.0,0.0,0.0,0.0,0.0,0.0,0.0,0.0,0.0,0.0,0.0,0.0,0.0,0.0,0.0,0.0,0.0,0.0,0.0,0.0,0.0,0.0,0.0,0.0,0.0,0.0,0.0,0.0,0.0,0.0,0.0,0.0,0.0,0.0,3.2533,3.3173,3.3237,0.0,2.9532,0.0,0.0,0.0,0.0,0.0,0.0,0.0,0.0,0.0,0.0,0.0,0.0,0.0,0.0,0.0,0.0,0.0,0.0,0.0,0.0,0.0,0.0,0.0,0.0,0.0,0.0,0.0,0.0,0.0,0.0,0.0,0.0,0.0,0.0,0.0,0.0,0.0,0.0,0.0,0.0,0.0,0.0,0.0,0.0,0.0,0.0,0.0,0.0,0.0,0.0,0.0,0.0,0.0,0.0,0.0,0.0,0.0,0.0,0.0,0.0,0.0,0.0,0.0,0.0,0.0,0.0,0.0,0.0,0.0,0.0,0.0,0.0,0.0,0.0,0.0,0.0,0.0,0.0,0.0,0.0,0.0,0.0,0.0,0.0,0.0,0.0,0.0,0.0,0.0,0.0,0.0,0.0,0.0,0.0,0.0,0.0,0.0,0.0,0.0,0.0,0.0,0.0,0.0,0.0,0.0,0.0,0.0,0.0,0.0,0.0,0.0,3.255,3.1576,3.0569,0.0,0.0,0.0,0.0,0.0,0.0,0.0,0.0,0.0,0.0,0.0,0.0,0.0,0.0,0.0,0.0,0.0,0.0,0.0,0.0,0.0,0.0,0.0,0.0,0.0,0.0,0.0,0.0,0.0,0.0,0.0,0.0,0.0,0.0,0.0,0.0,0.0,0.0,0.0,0.0,0.0,0.0,0.0,0.0,0.0,0.0,0.0,0.0,0.0,0.0,0.0,0.0,0.0,0.0,0.0,0.0,0.0,0.0,0.0,0.0,0.0,0.0,0.0,0.0,0.0,0.0,0.0,0.0,0.0,0.0,0.0,0.0,0.0,0.0,0.0,0.0,0.0,0.0,0.0,0.0,0.0,0.0,0.0,0.0,0.0,0.0,0.0,0.0,0.0,0.0,0.0,0.0,0.0,0.0,0.0,0.0,0.0,0.0,0.0,0.0,0.0,0.0,0.0,0.0,0.0,0.0,0.0,0.0,0.0,0.0,3.2503,0.0,3.1999,3.109,3.0127,2.9177,0.0,0.0,0.0,0.0,0.0,0.0,0.0,0.0,0.0,0.0,0.0,0.0,0.0,0.0,0.0,0.0,0.0,0.0,0.0,0.0,0.0,0.0,0.0,0.0,0.0,0.0,0.0,0.0,0.0,0.0,0.0,0.0,0.0,0.0,0.0,0.0,0.0,0.0,0.0,0.0,0.0,0.0,0.0,0.0,0.0,0.0,0.0,0.0,0.0,0.0,0.0,0.0,0.0,0.0,0.0,0.0,0.0,0.0,0.0,0.0,0.0,0.0,0.0,0.0,0.0,0.0,0.0,0.0,0.0,0.0,0.0,0.0,0.0,0.0,0.0,0.0,0.0,0.0,0.0,0.0,0.0,0.0,0.0,0.0,0.0,0.0,0.0,0.0,0.0,0.0,0.0,0.0,0.0,0.0,0.0,0.0,0.0,0.0,0.0,0.0,0.0,0.0,0.0,0.0,0.0,0.0,0.0,0.0,0.0,3.2441,3.2052,3.2078,3.2795,3.1656,0.0,0.0,0.0,0.0,0.0,0.0,0.0,0.0,0.0,0.0,0.0,0.0,0.0,0.0,0.0,0.0,0.0,0.0,0.0,0.0,0.0,0.0,0.0,0.0,0.0,0.0,0.0,0.0,0.0,0.0,0.0,0.0,0.0,0.0,0.0,0.0,0.0,0.0,0.0,0.0,0.0,0.0,0.0,0.0,0.0,0.0,0.0,0.0,0.0,0.0,0.0,0.0,0.0,0.0,0.0,0.0,0.0,0.0,0.0,0.0,0.0,0.0,0.0,0.0,0.0,0.0,0.0,0.0,0.0,0.0,0.0,0.0,0.0,0.0,0.0,0.0,0.0,0.0,0.0,0.0,0.0,0.0,0.0,0.0,0.0,0.0,0.0,0.0,0.0,0.0,0.0,0.0,0.0,0.0,0.0,0.0,0.0,0.0,0.0,0.0,0.0,0.0,0.0,0.0,0.0,0.0,0.0,0.0,0.0,3.0784,3.161,3.281,3.4335,3.218,3.0528,0.0,0.0,0.0,0.0,0.0,0.0,0.0,0.0,0.0,0.0,0.0,0.0,0.0,0.0,0.0,0.0,0.0,0.0,0.0,0.0,0.0,0.0,0.0,0.0,0.0,0.0,0.0,0.0,0.0,0.0,0.0,0.0,0.0,0.0,0.0,0.0,0.0,0.0,0.0,0.0,0.0,0.0,0.0,0.0,0.0,0.0,0.0,0.0,0.0,0.0,0.0,0.0,0.0,0.0,0.0,0.0,0.0,0.0,0.0,0.0,0.0,0.0,0.0,0.0,0.0,0.0,0.0,0.0,0.0,0.0,0.0,0.0,0.0,0.0,0.0,0.0,0.0,0.0,0.0,0.0,0.0,0.0,0.0,0.0,0.0,0.0,0.0,0.0,0.0,0.0,0.0,0.0,0.0,0.0,0.0,0.0,0.0,0.0,0.0,0.0,0.0,0.0,0.0,0.0,0.0,0.0,0.0,0.0,0.0,3.0244,0.0,3.344,0.0,3.1806,2.9985,0.0,0.0,0.0,0.0,0.0,0.0,0.0,0.0,0.0,0.0,0.0,0.0,0.0,0.0,0.0,0.0,0.0,0.0,0.0,0.0,0.0,0.0,0.0,0.0,0.0,0.0,0.0,0.0,0.0,0.0,0.0,0.0,0.0,0.0,0.0,0.0,0.0,0.0,0.0,0.0,0.0,0.0,0.0,0.0,0.0,0.0,0.0,0.0,0.0,0.0,0.0,0.0,0.0,0.0,0.0,0.0,0.0,0.0,0.0,0.0,0.0,0.0,0.0,0.0,0.0,0.0,0.0,0.0,0.0,0.0,0.0,0.0,0.0,0.0,0.0,0.0,0.0,0.0,0.0,0.0,0.0,0.0,0.0,0.0,0.0,0.0,0.0,0.0,0.0,0.0,0.0,0.0,0.0,0.0,0.0,0.0,0.0,0.0,0.0,0.0,0.0,0.0,0.0,0.0,0.0,0.0,0.0,0.0,2.8588,3.1804,3.3602,3.375,3.2136,3.1882,3.0256,0.0,0.0,0.0,0.0,0.0,0.0,0.0,0.0,0.0,0.0,0.0,0.0,0.0,0.0,0.0,0.0,0.0,0.0,0.0,0.0,0.0,0.0,0.0,0.0,0.0,0.0,0.0,0.0,0.0,0.0,0.0,0.0,0.0,0.0,0.0,0.0,0.0,0.0,0.0,0.0,0.0,0.0,0.0,0.0,0.0,0.0,0.0,0.0,0.0,0.0,0.0,0.0,0.0,0.0,0.0,0.0,0.0,0.0,0.0,0.0,0.0,0.0,0.0,0.0,0.0,0.0,0.0,0.0,0.0,0.0,0.0,0.0,0.0,0.0,0.0,0.0,0.0,0.0,0.0,0.0,0.0,0.0,0.0,0.0,0.0,0.0,0.0,0.0,0.0,0.0,0.0,0.0,0.0,0.0,0.0,0.0,0.0,0.0,0.0,0.0,0.0,0.0,0.0,0.0,0.0,0.0,0.0,0.0,0.0,3.0294,3.2532,3.3731,3.3704,3.1394,2.9873,0.0,0.0,0.0,0.0,0.0,0.0,0.0,0.0,0.0,0.0,0.0,0.0,0.0,0.0,0.0,0.0,0.0,0.0,0.0,0.0,0.0,0.0,0.0,0.0,0.0,0.0,0.0,0.0,0.0,0.0,0.0,0.0,0.0,0.0,0.0,0.0,0.0,0.0,0.0,0.0,0.0,0.0,0.0,0.0,0.0,0.0,0.0,0.0,0.0,0.0,0.0,0.0,0.0,0.0,0.0,0.0,0.0,0.0,0.0,0.0,0.0,0.0,0.0,0.0,0.0,0.0,0.0,0.0,0.0,0.0,0.0,0.0,0.0,0.0,0.0,0.0,0.0,0.0,0.0,0.0,0.0,0.0,0.0,0.0,0.0,0.0,0.0,0.0,0.0,0.0,0.0,0.0,0.0,0.0,0.0,0.0,0.0,0.0,0.0,0.0,0.0,0.0,0.0,0.0,0.0,0.0,0.0,0.0,0.0,3.0555,3.2914,3.4338,3.4552,3.1723,3.0123,2.996,0.0,0.0,0.0,0.0,0.0,0.0,0.0,0.0,0.0,0.0,0.0,0.0,0.0,0.0,0.0,0.0,0.0,0.0,0.0,0.0,0.0,0.0,0.0,0.0,0.0,0.0,0.0,0.0,0.0,0.0,0.0,0.0,0.0,0.0,0.0,0.0,0.0,0.0,0.0,0.0,0.0,0.0,0.0,0.0,0.0,0.0,0.0,0.0,0.0,0.0,0.0,0.0,0.0,0.0,0.0,0.0,0.0,0.0,0.0,0.0,0.0,0.0,0.0,0.0,0.0,0.0,0.0,0.0,0.0,0.0,0.0,0.0,0.0,0.0,0.0,0.0,0.0,0.0,0.0,0.0,0.0,0.0,0.0,0.0,0.0,0.0,0.0,0.0,0.0,0.0,0.0,0.0,0.0,0.0,0.0,0.0,0.0,0.0,0.0,0.0,0.0,0.0,0.0,0.0,0.0,0.0,0.0,0.0,3.2078,3.4466,3.5352,3.4595,3.2697,3.0916,0.0,0.0,0.0,0.0,0.0,0.0,0.0,0.0,0.0,0.0,0.0,0.0,0.0,0.0,0.0,0.0,0.0,0.0,0.0,0.0,0.0,0.0,0.0,0.0,0.0,0.0,0.0,0.0,0.0,0.0,0.0,0.0,0.0,0.0,0.0,0.0,0.0,0.0,0.0,0.0,0.0,0.0,0.0,0.0,0.0,0.0,0.0,0.0,0.0,0.0,0.0,0.0,0.0,0.0,0.0,0.0,0.0,0.0,0.0,0.0,0.0,0.0,0.0,0.0,0.0,0.0,0.0,0.0,0.0,0.0,0.0,0.0,0.0,0.0,0.0,0.0,0.0,0.0,0.0,0.0,0.0,0.0,0.0,0.0,0.0,0.0,0.0,0.0,0.0,0.0,0.0,0.0,0.0,0.0,0.0,0.0,0.0,0.0,0.0,0.0,0.0,0.0,0.0,0.0,0.0,0.0,0.0,0.0,0.0,3.2972,3.4194,3.5041,3.5391,3.3026,3.1225,0.0,0.0,0.0,0.0,0.0,0.0,0.0,0.0,0.0,0.0,0.0,0.0,0.0,0.0,0.0,0.0,0.0,0.0,0.0,0.0,0.0,0.0,0.0,0.0,0.0,0.0,0.0,0.0,0.0,0.0,0.0,0.0,0.0,0.0,0.0,0.0,0.0,0.0,0.0,0.0,0.0,0.0,0.0,0.0,0.0,0.0,0.0,0.0,0.0,0.0,0.0,0.0,0.0,0.0,0.0,0.0,0.0,0.0,0.0,0.0,0.0,0.0,0.0,0.0,0.0,0.0,0.0,0.0,0.0,0.0,0.0,0.0,0.0,0.0,0.0,0.0,0.0,0.0,0.0,0.0,0.0,0.0,0.0,0.0,0.0,0.0,0.0,0.0,0.0,0.0,0.0,0.0,0.0,0.0,0.0,0.0,0.0,0.0,0.0,0.0,0.0,0.0,0.0,0.0,0.0,0.0,0.0,0.0,3.2759,3.3231,3.4359,3.5194,3.5698,3.3439,3.1452,0.0,0.0,0.0,0.0,0.0,0.0,0.0,0.0,0.0,0.0,0.0,0.0,0.0,0.0,0.0,0.0,0.0,0.0,0.0,0.0,0.0,0.0,0.0,0.0,0.0,0.0,0.0,0.0,0.0,0.0,0.0,0.0,0.0,0.0,0.0,0.0,0.0,0.0,0.0,0.0,0.0,0.0,0.0,0.0,0.0,0.0,0.0,0.0,0.0,0.0,0.0,0.0,0.0,0.0,0.0,0.0,0.0,0.0,0.0,0.0,0.0,0.0,0.0,0.0,0.0,0.0,0.0,0.0,0.0,0.0,0.0,0.0,0.0,0.0,0.0,0.0,0.0,0.0,0.0,0.0,0.0,0.0,0.0,0.0,0.0,0.0,0.0,0.0,0.0,0.0,0.0,0.0,0.0,0.0,0.0,0.0,0.0,0.0,0.0,0.0,0.0,0.0,0.0,0.0,0.0,0.0,0.0,0.0,3.3281,3.3277,3.4719,3.5472,3.5422,3.3766,3.1691,0.0,0.0,0.0,0.0,0.0,0.0,0.0,0.0,0.0,0.0,0.0,0.0,0.0,0.0,0.0,0.0,0.0,0.0,0.0,0.0,0.0,0.0,0.0,0.0,0.0,0.0,0.0,0.0,0.0,0.0,0.0,0.0,0.0,0.0,0.0,0.0,0.0,0.0,0.0,0.0,0.0,0.0,0.0,0.0,0.0,0.0,0.0,0.0,0.0,0.0,0.0,0.0,0.0,0.0,0.0,0.0,0.0,0.0,0.0,0.0,0.0,0.0,0.0,0.0,0.0,0.0,0.0,0.0,0.0,0.0,0.0,0.0,0.0,0.0,0.0,0.0,0.0,0.0,0.0,0.0,0.0,0.0,0.0,0.0,0.0,0.0,0.0,0.0,0.0,0.0,0.0,0.0,0.0,0.0,0.0,0.0,0.0,0.0,0.0,0.0,0.0,0.0,0.0,0.0,0.0,0.0,0.0,0.0,3.3607,3.4184,3.4439,3.456,3.4558,3.3397,3.1859,0.0,0.0,0.0,0.0,0.0,0.0,0.0,0.0,0.0,0.0,0.0,0.0,0.0,0.0,0.0,0.0,0.0,0.0,0.0,0.0,0.0,0.0,0.0,0.0,0.0,0.0,0.0,0.0,0.0,0.0,0.0,0.0,0.0,0.0,0.0,0.0,0.0,0.0,0.0,0.0,0.0,0.0,0.0,0.0,0.0,0.0,0.0,0.0,2.277,0.0,0.0,0.0,0.0,0.0,0.0,0.0,0.0,0.0,0.0,0.0,0.0,0.0,0.0,0.0,0.0,0.0,0.0,0.0,0.0,0.0,0.0,0.0,0.0,0.0,0.0,0.0,0.0,0.0,0.0,0.0,0.0,0.0,0.0,0.0,0.0,0.0,0.0,0.0,0.0,0.0,0.0,0.0,0.0,0.0,0.0,0.0,0.0,0.0,0.0,0.0,0.0,0.0,0.0,0.0,0.0,0.0,0.0,0.0,3.3689,3.4429,3.429,3.4222,3.4198,3.28,3.1161,0.0,0.0,0.0,0.0,0.0,0.0,0.0,0.0,0.0,0.0,0.0,0.0,0.0,0.0,0.0,0.0,0.0,0.0,0.0,0.0,0.0,0.0,0.0,0.0,0.0,0.0,0.0,0.0,0.0,0.0,0.0,0.0,0.0,0.0,0.0,0.0,0.0,0.0,0.0,0.0,0.0,0.0,0.0,0.0,0.0,0.0,0.0,0.0,0.0,0.0,0.0,0.0,0.0,0.0,0.0,0.0,0.0,0.0,0.0,0.0,0.0,0.0,0.0,0.0,0.0,0.0,0.0,0.0,0.0,0.0,0.0,0.0,0.0,0.0,0.0,0.0,0.0,0.0,0.0,0.0,0.0,0.0,0.0,0.0,0.0,0.0,0.0,0.0,0.0,0.0,0.0,0.0,0.0,0.0,0.0,0.0,0.0,0.0,0.0,0.0,0.0,0.0,0.0,0.0,0.0,0.0,0.0,3.2025,3.3486,3.4292,3.4166,3.4051,3.3922,3.2286,3.0478,2.856,0.0,0.0,0.0,0.0,0.0,0.0,0.0,0.0,0.0,0.0,0.0,0.0,0.0,0.0,0.0,0.0,0.0,0.0,0.0,0.0,0.0,0.0,0.0,0.0,0.0,0.0,0.0,0.0,0.0,0.0,0.0,0.0,0.0,0.0,0.0,0.0,0.0,0.0,2.4041,2.483,0.0,0.0,0.0,0.0,0.0,0.0,0.0,0.0,2.2378,0.0,0.0,0.0,0.0,0.0,0.0,0.0,0.0,0.0,0.0,0.0,0.0,0.0,0.0,0.0,0.0,0.0,0.0,0.0,0.0,0.0,0.0,0.0,0.0,0.0,0.0,0.0,0.0,0.0,0.0,0.0,0.0,0.0,0.0,0.0,0.0,0.0,0.0,0.0,0.0,0.0,0.0,0.0,0.0,0.0,0.0,0.0,0.0,0.0,0.0,0.0,0.0,0.0,0.0,0.0,0.0,3.2441,3.2155,3.267,3.4097,3.4012,3.3597,3.2898,3.2438,3.0996,2.8482,0.0,0.0,0.0,0.0,0.0,0.0,0.0,0.0,0.0,0.0,0.0,0.0,0.0,0.0,0.0,0.0,0.0,0.0,0.0,0.0,0.0,0.0,0.0,0.0,0.0,0.0,0.0,0.0,0.0,0.0,0.0,0.0,0.0,0.0,0.0,0.0,0.0,0.0,0.0,2.4031,2.4565,0.0,0.0,0.0,0.0,0.0,0.0,0.0,0.0,2.0193,0.0,0.0,0.0,0.0,0.0,0.0,0.0,0.0,0.0,0.0,0.0,0.0,0.0,0.0,0.0,0.0,0.0,0.0,0.0,0.0,0.0,0.0,0.0,0.0,0.0,0.0,0.0,0.0,0.0,0.0,0.0,0.0,0.0,0.0,0.0,0.0,0.0,0.0,0.0,0.0,0.0,0.0,0.0,0.0,0.0,0.0,0.0,0.0,0.0,0.0,0.0,0.0,0.0,0.0,0.0,3.1744,3.2629,3.3627,3.4788,3.382,3.3089,3.2657,3.1642,3.0015,0.0,0.0,0.0,0.0,0.0,0.0,0.0,0.0,0.0,0.0,0.0,0.0,0.0,0.0,0.0,0.0,0.0,0.0,0.0,0.0,0.0,0.0,0.0,0.0,0.0,0.0,0.0,0.0,0.0,0.0,0.0,0.0,0.0,0.0,0.0,0.0,0.0,0.0,0.0,0.0,2.3462,2.3732,2.4076,0.0,0.0,0.0,0.0,0.0,0.0,2.0264,2.0148,0.0,0.0,0.0,0.0,0.0,0.0,0.0,0.0,0.0,0.0,0.0,0.0,0.0,0.0,0.0,0.0,0.0,0.0,0.0,0.0,0.0,0.0,0.0,0.0,0.0,0.0,0.0,0.0,0.0,0.0,0.0,0.0,0.0,0.0,0.0,0.0,0.0,0.0,0.0,0.0,0.0,0.0,0.0,0.0,0.0,0.0,0.0,0.0,0.0,0.0,0.0,0.0,0.0,0.0,0.0,3.0704,3.2861,3.4356,3.4944,3.3503,3.2535,3.2153,3.0519,2.8865,0.0,0.0,0.0,0.0,0.0,0.0,0.0,0.0,0.0,0.0,0.0,0.0,0.0,0.0,0.0,0.0,0.0,0.0,0.0,0.0,0.0,0.0,0.0,0.0,0.0,0.0,0.0,0.0,0.0,0.0,0.0,0.0,0.0,0.0,0.0,0.0,0.0,0.0,0.0,0.0,0.0,2.3443,2.3511,2.308,0.0,0.0,0.0,0.0,1.9641,1.9739,0.0,0.0,0.0,0.0,0.0,0.0,0.0,0.0,0.0,0.0,0.0,0.0,0.0,0.0,0.0,0.0,0.0,0.0,0.0,0.0,0.0,0.0,0.0,0.0,0.0,0.0,0.0,0.0,0.0,0.0,0.0,0.0,0.0,0.0,0.0,0.0,0.0,0.0,0.0,0.0,0.0,0.0,0.0,0.0,0.0,0.0,0.0,0.0,0.0,0.0,0.0,0.0,0.0,0.0,0.0,0.0,3.0516,3.2201,3.3075,3.3096,3.2838,3.1947,3.0433,2.9399,2.8277,0.0,0.0,0.0,0.0,0.0,0.0,0.0,0.0,0.0,0.0,0.0,0.0,0.0,0.0,0.0,0.0,0.0,0.0,0.0,0.0,0.0,0.0,0.0,0.0,0.0,0.0,0.0,0.0,0.0,0.0,0.0,0.0,0.0,0.0,0.0,0.0,0.0,0.0,0.0,0.0,0.0,2.4343,2.2456,2.1928,2.1512,0.0,0.0,1.8973,1.793,1.7813,0.0,0.0,0.0,0.0,0.0,0.0,0.0,0.0,0.0,0.0,0.0,0.0,0.0,0.0,0.0,0.0,0.0,0.0,0.0,0.0,0.0,0.0,0.0,0.0,0.0,0.0,0.0,0.0,0.0,0.0,0.0,0.0,0.0,0.0,0.0,0.0,0.0,0.0,0.0,0.0,0.0,0.0,0.0,0.0,0.0,0.0,0.0,0.0,0.0,0.0,0.0,0.0,0.0,0.0,0.0,2.992,3.0676,3.3122,3.4168,3.367,3.3029,3.2095,3.0882,2.9452,2.8202,0.0,0.0,0.0,0.0,0.0,0.0,0.0,0.0,0.0,0.0,0.0,0.0,0.0,0.0,0.0,0.0,0.0,0.0,0.0,0.0,0.0,0.0,0.0,0.0,0.0,0.0,0.0,0.0,0.0,0.0,0.0,0.0,0.0,0.0,0.0,0.0,0.0,0.0,0.0,0.0,0.0,0.0,2.1813,2.0969,0.0,0.0,0.0,1.7829,1.6863,0.0,0.0,0.0,0.0,0.0,0.0,0.0,0.0,0.0,0.0,0.0,0.0,0.0,0.0,0.0,0.0,0.0,0.0,0.0,0.0,0.0,0.0,0.0,0.0,0.0,0.0,0.0,0.0,0.0,0.0,0.0,0.0,0.0,0.0,0.0,0.0,0.0,0.0,0.0,0.0,0.0,0.0,0.0,0.0,0.0,0.0,0.0,0.0,0.0,0.0,0.0,0.0,0.0,0.0,0.0,0.0,0.0,3.0769,3.3759,3.4923,3.4031,3.3024,3.2018,3.1116,2.9555,0.0,0.0,0.0,0.0,0.0,0.0,0.0,0.0,0.0,0.0,0.0,0.0,0.0,0.0,0.0,0.0,0.0,0.0,0.0,0.0,0.0,0.0,0.0,0.0,0.0,0.0,0.0,2.1515,0.0,0.0,0.0,0.0,0.0,0.0,0.0,0.0,0.0,0.0,0.0,0.0,0.0,0.0,2.1737,2.1021,1.9952,1.8795,0.0,0.0,1.6483,1.5386,1.5081,1.4952,0.0,0.0,0.0,0.0,0.0,0.0,0.0,0.0,0.0,0.0,0.0,0.0,0.0,0.0,0.0,0.0,0.0,0.0,0.0,0.0,0.0,0.0,0.0,0.0,0.0,0.0,0.0,0.0,0.0,0.0,0.0,0.0,0.0,0.0,0.0,0.0,0.0,0.0,0.0,0.0,0.0,0.0,0.0,0.0,0.0,0.0,0.0,0.0,0.0,0.0,0.0,0.0,0.0,0.0,0.0,3.0788,3.3313,3.4223,3.3285,3.2346,3.1351,3.0311,2.9317,2.8118,0.0,0.0,0.0,0.0,0.0,0.0,0.0,0.0,0.0,0.0,0.0,0.0,0.0,0.0,0.0,0.0,0.0,0.0,0.0,0.0,0.0,0.0,0.0,0.0,0.0,0.0,0.0,0.0,0.0,0.0,0.0,0.0,0.0,0.0,0.0,0.0,0.0,0.0,0.0,0.0,0.0,2.2567,1.9695,1.8588,1.7634,0.0,0.0,1.4514,1.3009,1.2783,1.2496,1.1583,0.0,0.0,0.0,0.0,0.0,0.0,0.0,0.0,0.0,0.0,0.0,0.0,0.0,0.0,0.0,0.0,0.0,0.0,0.0,0.0,0.0,0.0,0.0,0.0,0.0,0.0,0.0,0.0,0.0,0.0,0.0,0.0,0.0,0.0,0.0,0.0,0.0,0.0,0.0,0.0,0.0,0.0,0.0,0.0,0.0,0.0,0.0,0.0,0.0,0.0,0.0,0.0,0.0,3.079,3.0789,3.329,3.4159,3.3258,3.2261,3.1251,3.0299,2.9312,2.819,0.0,0.0,0.0,0.0,0.0,0.0,0.0,0.0,0.0,0.0,0.0,0.0,0.0,0.0,0.0,0.0,0.0,0.0,0.0,0.0,0.0,0.0,0.0,0.0,0.0,0.0,0.0,0.0,1.9929,2.0219,2.0325,0.0,0.0,0.0,0.0,0.0,0.0,0.0,0.0,0.0,0.0,2.0629,1.8834,1.789,0.0,0.0,1.4528,1.3873,1.212,1.1858,1.1727,1.1389,1.1035,0.0,0.0,0.0,0.0,0.0,0.0,0.0,0.0,0.0,0.0,0.0,0.0,0.0,0.0,0.0,0.0,0.0,0.0,0.0,0.0,0.0,0.0,0.0,0.0,0.0,0.0,0.0,0.0,0.0,0.0,0.0,0.0,0.0,0.0,0.0,0.0,0.0,0.0,0.0,0.0,0.0,0.0,0.0,0.0,0.0,0.0,0.0,0.0,0.0,0.0,0.0,0.0,3.0929,3.1162,3.3176,3.3926,3.3293,3.2029,3.0995,3.0216,2.9532,2.8388,0.0,0.0,0.0,0.0,0.0,0.0,0.0,0.0,0.0,0.0,0.0,0.0,0.0,0.0,0.0,0.0,0.0,0.0,0.0,0.0,0.0,0.0,0.0,0.0,0.0,0.0,0.0,0.0,1.87,1.9002,1.9182,0.0,0.0,0.0,0.0,0.0,0.0,0.0,0.0,0.0,0.0,1.8685,1.7283,1.6505,1.5257,1.3052,1.2762,1.2358,1.0976,1.0519,1.0329,1.0402,0.0,0.0,0.0,0.0,0.0,0.0,0.0,0.0,0.0,0.0,0.0,0.0,0.0,0.0,0.0,0.0,0.0,0.0,0.0,0.0,0.0,0.0,0.0,0.0,0.0,0.0,0.0,0.0,0.0,0.0,2.4657,0.0,0.0,0.0,0.0,0.0,0.0,0.0,0.0,0.0,0.0,0.0,0.0,0.0,0.0,0.0,0.0,0.0,0.0,0.0,0.0,0.0,0.0,3.1169,3.1963,3.2869,3.3295,3.3161,3.1505,3.0436,3.0028,2.9969,2.876,2.6182,0.0,0.0,0.0,0.0,0.0,0.0,0.0,0.0,0.0,0.0,0.0,0.0,0.0,0.0,0.0,0.0,0.0,0.0,0.0,0.0,0.0,0.0,0.0,0.0,0.0,0.0,1.8726,1.8422,1.8083,0.0,0.0,0.0,0.0,0.0,0.0,0.0,0.0,0.0,0.0,1.839,1.7089,1.4714,1.4114,1.3257,1.1005,1.0252,0.9809,0.9433,0.8518,0.7839,0.0,0.0,0.0,0.0,0.0,0.0,0.0,0.0,0.0,0.0,0.0,0.0,0.0,0.0,0.0,0.0,0.0,0.0,0.0,0.0,0.0,0.0,0.0,0.0,0.0,0.0,0.0,2.6007,2.5897,0.0,0.0,0.0,0.0,0.0,0.0,0.0,0.0,0.0,0.0,0.0,2.8778,3.0227,0.0,0.0,0.0,0.0,0.0,0.0,0.0,0.0,0.0,0.0,0.0,0.0,3.0891,3.1253,3.2593,3.3,3.2391,3.1142,3.0309,3.0013,2.978,2.8403,2.5797,0.0,0.0,0.0,0.0,0.0,0.0,0.0,0.0,0.0,0.0,0.0,0.0,0.0,0.0,0.0,0.0,0.0,0.0,0.0,0.0,0.0,0.0,0.0,0.0,0.0,1.8055,0.0,0.0,0.0,0.0,0.0,0.0,0.0,0.0,0.0,0.0,0.0,1.8654,1.7897,1.6699,1.5348,1.3821,1.3188,1.2275,0.0,0.0,0.0,0.0,0.0,0.0,0.0,0.0,0.0,0.0,0.0,0.0,0.0,0.0,0.6,0.8154,0.8595,0.8155,0.6682,0.0,0.0,0.0,0.0,0.0,0.0,0.0,0.0,0.0,0.0,0.0,0.0,0.0,0.0,2.6787,0.0,2.4847,0.0,0.0,0.0,0.0,0.0,0.0,0.0,0.0,2.9763,3.0134,2.9431,3.0773,3.0999,0.0,3.0982,3.0625,0.0,0.0,0.0,0.0,0.0,0.0,0.0,0.0,3.12,3.1592,3.2678,3.2987,3.2389,3.11,3.026,2.9988,2.9139,2.7743,2.5808,2.5023,2.3941,0.0,0.0,0.0,0.0,0.0,0.0,0.0,0.0,0.0,0.0,0.0,0.0,0.0,0.0,0.0,0.0,0.0,0.0,0.0,0.0,0.0,0.0,0.0,1.6627,0.0,0.0,0.0,0.0,0.0,0.0,0.0,0.0,0.0,1.8856,1.7483,1.6187,1.5686,1.4289,1.3048,1.2355,0.0,0.0,0.0,0.0,0.0,0.0,0.0,0.7139,0.6962,0.6618,0.6334,0.6261,0.5216,0.4337,0.3922,0.0,0.0,0.5858,0.6183,0.5613,0.4343,0.3916,0.3405,0.2175,0.0364,-0.1184,0.0,0.0,0.0,0.0,0.0,0.0,0.0,0.0,2.7822,2.7491,0.0,2.602,0.0,0.0,0.0,0.0,0.0,2.8197,0.0,0.0,3.0446,3.1438,3.1405,3.0845,3.0718,3.1053,3.1334,3.1307,3.0873,3.0868,0.0,0.0,0.0,0.0,0.0,0.0,3.2124,3.2887,3.3091,3.3161,3.3013,3.1306,3.0219,2.9829,2.8147,2.6916,2.6185,2.5115,2.4116,2.3279,2.2236,0.0,0.0,0.0,0.0,0.0,0.0,0.0,0.0,0.0,0.0,0.0,0.0,0.0,0.0,0.0,0.0,0.0,0.0,0.0,0.0,1.5473,0.0,0.0,0.0,0.0,0.0,0.0,0.0,0.0,0.0,0.0,1.573,1.466,1.34,1.2688,0.0,0.0,0.0,0.0,0.7954,0.7982,0.7337,0.7018,0.72,0.6289,0.5578,0.5863,0.0,0.0,0.4226,0.3482,0.2802,0.2851,0.209,0.1803,0.2651,0.2695,0.2375,0.2187,0.1616,0.0857,-0.0285,-0.2569,-0.4961,2.4277,0.0,0.0,0.0,0.0,2.682,2.7598,2.8701,2.832,2.7766,2.7064,2.5854,0.0,0.0,0.0,0.0,0.0,0.0,2.8144,2.8323,2.8992,2.9304,2.9383,2.8947,2.9022,2.947,2.9519,2.9923,3.0588,3.1005,3.0891,3.0335,0.0,0.0,0.0,0.0,3.2116,3.2252,3.2804,3.2524,3.1301,3.0607,2.9855,2.899,2.7923,2.6854,2.5811,2.512,2.401,2.2294,2.1844,0.0,0.0,0.0,0.0,0.0,0.0,0.0,0.0,0.0,0.0,0.0,0.0,0.0,0.0,0.0,0.0,0.0,0.0,0.0,1.4678,1.311,1.2636,0.0,0.0,0.0,0.0,0.0,0.0,0.0,0.0,0.0,1.0891,1.1353,1.1398,0.0,0.0,0.9253,0.8958,0.7673,0.6757,0.6734,0.5813,0.0,0.0,0.5025,0.4589,0.4818,0.433,0.3647,0.2939,0.2288,0.1609,0.08,-0.01,-0.0604,-0.05,0.0398,0.0496,-0.0595,-0.1687,-0.2378,-0.2676,-0.4257,-0.5841,2.2974,2.3487,2.4483,2.524,2.5879,2.6406,2.695,2.7416,2.699,2.6623,2.6285,2.5371,2.4761,2.4477,2.4846,0.0,0.0,0.0,2.7211,2.7162,2.7381,2.7469,2.7459,2.7082,2.7261,2.7946,2.8089,2.8638,2.9646,3.0379,3.0888,3.1109,0.0,0.0,3.1331,3.2226,3.2634,3.256,3.2885,3.256,3.1543,3.0452,2.9417,2.8492,2.7763,2.6868,2.5849,2.5243,2.4106,2.2271,2.1757,2.0851,0.0,0.0,0.0,0.0,0.0,0.0,0.0,0.0,0.0,0.0,0.0,1.5604,1.5512,0.0,0.0,0.0,1.3444,1.3087,1.31,1.2045,0.0,0.0,0.0,0.0,0.0,0.0,0.0,0.9688,0.8062,0.674,0.6565,0.7051,0.7683,0.7983,0.7548,0.7042,0.6895,0.0,0.4937,0.5038,0.4472,0.3905,0.3862,0.3487,0.3247,0.3194,0.2987,0.2553,0.1781,0.1,-0.0,-0.0907,-0.1714,-0.232,-0.2418,-0.1613,-0.1411,-0.2724,-0.3629,-0.413,-0.4728,-0.5729,-0.6628,2.129,2.1856,2.3664,2.4239,2.4105,2.4754,2.4811,2.4523,2.4624,2.4667,2.4667,2.4654,2.4487,2.4231,2.4949,0.0,2.494,2.6,2.5987,2.5287,2.5669,2.5762,2.5628,2.5218,2.545,2.6337,2.6852,2.7443,2.8136,2.9251,3.0289,3.1322,3.1716,3.1564,3.1032,3.2587,3.3505,3.3643,3.3219,3.2939,3.2798,3.0571,2.9,2.8254,2.7572,2.6852,2.6087,2.5303,2.423,2.2803,2.178,2.069,1.9433,0.0,0.0,0.0,0.0,0.0,0.0,0.0,0.0,0.0,0.0,0.0,0.0,0.0,0.0,0.0,1.1796,0.0,1.1377,1.1475,0.0,0.0,0.0,1.0622,1.0379,0.8229,0.6626,0.6165,0.0,0.0,0.2837,0.2699,0.3014,0.4024,0.4099,0.4242,0.4407,0.3545,0.2924,0.3115,0.3082,0.2785,0.219,0.1888,0.1676,0.1352,0.1174,0.0986,0.06,-0.0503,-0.1612,-0.2115,-0.2822,-0.3331,-0.333,-0.3229,-0.363,-0.4331,-0.4531,-0.5029,-0.6329,-0.7024,-0.7524,2.0632,2.0808,2.1518,2.2445,2.3526,2.4066,2.431,2.435,2.4408,2.4452,2.4526,2.4452,2.4058,2.3515,2.3296,2.3154,2.3147,2.3374,2.3437,2.32,2.3443,2.3431,2.3339,2.3243,2.3498,2.4094,2.4749,2.5483,2.6313,2.8092,2.925,2.9852,3.1145,3.2382,3.3469,3.3642,3.4108,3.4929,3.3558,3.2147,3.0761,2.9618,2.8581,2.771,2.6835,2.6125,2.5556,2.4415,2.3332,2.2352,2.1336,2.0054,1.8448,1.7849,0.0,0.0,0.0,0.0,0.0,0.0,0.0,0.0,0.0,1.4264,1.3094,0.0,1.3416,0.0,0.9885,0.8588,0.8957,0.7876,0.0,0.0,0.7678,0.7307,0.756,0.561,0.4373,0.4558,0.32,0.2169,0.1765,0.1662,0.1279,0.0448,0.176,0.2866,0.3112,0.199,0.1037,0.0947,0.07,0.0267,0.0267,0.0454,0.0465,0.0382,0.0291,-0.0,-0.1085,-0.1598,-0.2319,-0.3528,-0.3934,-0.4237,-0.4334,-0.4433,-0.4736,-0.5438,-0.5634,-0.5732,-0.6434,-0.7528,-0.8524,1.9552,1.9619,2.0009,2.073,2.1729,2.2201,2.2598,2.287,2.2693,2.2705,2.2965,2.2822,2.2579,2.22,2.193,2.1794,2.1892,2.1859,2.191,2.188,2.193,2.1868,2.1806,2.1704,2.214,2.2845,2.3296,2.4123,2.5329,2.6597,2.8006,2.9496,3.0451,3.2152,3.4546,3.4092,3.4232,3.5149,3.3626,3.2148,3.0714,2.9439,2.8377,2.7433,2.6681,2.5808,2.4865,2.4248,2.3368,2.2106,2.1274,2.0075,1.8408,1.7917,1.7258,0.0,0.0,0.0,0.0,0.0,0.0,0.0,0.0,0.0,0.0,0.0,1.1916,1.0404,0.8162,0.7062,0.7797,0.6951,0.649,0.6602,0.5772,0.5041,0.4618,0.2841,0.1619,0.1634,0.077,-0.0,-0.0284,-0.0373,-0.0551,-0.1093,-0.0445,0.0175,0.0703,0.0176,-0.0352,-0.0616,-0.0711,-0.0807,-0.0987,-0.0543,-0.0459,-0.0842,-0.0955,-0.1357,-0.225,-0.2788,-0.3429,-0.4334,-0.4537,-0.4636,-0.4736,-0.4832,-0.5035,-0.5839,-0.6337,-0.6734,-0.7232,-0.8329,-0.9229,1.8269,1.8385,1.8844,1.9096,1.9291,1.9657,2.033,2.1037,2.0591,2.0648,2.0996,2.0752,2.0688,2.07,2.0635,2.0688,2.0741,2.0805,2.0805,2.0805,2.0688,2.0635,2.0635,2.0635,2.1123,2.2089,2.2286,2.3255,2.4821,2.5327,2.691,2.9422,2.9802,3.1446,3.4392,3.3888,3.3962,3.4741,3.3649,3.2611,3.1658,2.9852,2.8456,2.7531,2.684,2.5832,2.4364,2.4489,2.381,2.2196,2.1517,2.0374,1.8765,1.8259,1.7571,0.0,1.5571,0.0,0.0,0.0,0.0,0.0,0.0,0.0,0.0,1.0908,0.9907,0.8057,0.6634,0.6011,0.6584,0.6722,0.6308,0.52,0.4271,0.3235,0.1913,0.0389,-0.0785,-0.1274,-0.1763,-0.2151,-0.2424,-0.2549,-0.231,-0.1653,-0.2171,-0.2324,-0.1703,-0.1433,-0.1433,-0.1885,-0.1436,-0.1348,-0.181,-0.1446,-0.1362,-0.2037,-0.2356,-0.268,-0.311,-0.3864,-0.4422,-0.473,-0.4734,-0.4734,-0.4832,-0.4832,-0.5037,-0.5639,-0.6439,-0.7338,-0.8134,-0.8928,-0.9529,1.7047,1.7596,1.7442,1.7401,1.7389,1.7121,1.8383,2.0688,2.0598,2.0546,2.0495,1.9901,1.9628,1.9573,1.933,1.9131,1.8998,1.9198,1.9264,1.9198,1.9198,1.9264,1.9462,2.0248,2.07,2.1008,2.2211,2.3245,2.4047,2.5497,2.6809,2.8039,2.9624,3.1049,3.2144,0.0,0.0,0.0,3.4031,3.3531,3.2464,3.0809,2.9478,2.8522,2.7247,0.0,2.5277,2.4729,2.4028,2.3127,2.2044,0.0,0.0,0.0,0.0,0.0,0.0,0.0,0.0,0.0,0.0,0.0,0.9946,0.9453,0.8746,0.8392,0.7559,0.6051,0.5175,0.4156,0.2933,0.2268,0.1935,0.1652,0.1264,0.0979,0.0696,-0.0493,-0.1372,-0.1469,-0.2225,-0.2858,-0.3096,-0.3063,-0.2939,-0.2714,-0.2964,-0.296,-0.2603,-0.2513,-0.2604,-0.2694,-0.2424,-0.2455,-0.2813,-0.2597,-0.2494,-0.3112,-0.3133,-0.334,-0.3837,-0.4093,-0.4464,-0.4718,-0.4832,-0.4832,-0.4832,-0.4832,-0.4834,-0.5037,-0.6137,-0.7437,-0.8233,-0.9027,-0.9624,1.6272,0.0,1.6551,1.6569,0.0,1.6473,1.7273,1.8736,1.8522,1.8543,1.867,1.8556,1.8375,1.8152,1.8596,1.8596,1.8259,1.8731,1.8942,1.8942,1.8942,1.9131,1.9539,1.9998,2.0453,2.088,2.1939,2.2919,2.3754,2.5179,2.6565,2.7875,2.912,3.0228,3.1203,3.323,3.4375,3.4554,3.4296,3.386,3.322,3.1504,3.0061,2.8956,0.0,0.0,0.0,0.0,0.0,0.0,0.0,0.0,0.0,0.0,0.0,1.5851,1.5575,1.4542,1.2243,1.1627,1.0867,0.9431,0.8115,0.7363,0.7199,0.6192,0.5005,0.3957,0.3076,0.225,0.1431,0.0977,0.0497,-0.0,-0.0199,-0.0497,-0.1093,-0.1677,-0.2245,-0.2607,-0.2943,-0.3272,-0.3519,-0.3482,-0.3358,-0.3142,-0.3226,-0.3232,-0.2963,-0.2962,-0.3051,-0.2875,-0.2515,-0.2541,-0.2887,-0.261,-0.2701,-0.3321,-0.3267,-0.3477,-0.4251,-0.4512,-0.4587,-0.4726,-0.4832,-0.4832,-0.4832,-0.4832,-0.4935,-0.5338,-0.6039,-0.7039,-0.8134,-0.9031,-0.9624,1.5912,1.6211,1.6114,1.6281,1.6526,1.6412,1.6533,1.6636,0.0,0.0,0.0,1.7364,1.7364,1.701,1.8046,1.8395,1.8104,1.8654,1.8942,1.9008,1.9131,1.9396,1.9868,2.0183,2.0624,2.1262,2.199,2.2895,2.3846,2.4937,2.6381,2.8056,2.8674,2.9615,3.1094,3.4162,3.5661,3.5392,3.4665,3.4177,3.3919,3.2247,3.0765,2.9501,2.9024,2.8012,2.6369,2.6009,2.5167,2.3722,2.2504,2.1175,1.9738,1.9079,1.8071,1.6431,1.6199,1.4879,1.2203,1.1595,1.0538,0.8615,0.6613,0.5737,0.6278,0.4362,0.285,0.2189,0.118,0.0597,0.0489,0.0398,-0.0,-0.1004,-0.1103,-0.1594,-0.2556,-0.2823,-0.3082,-0.3603,-0.3458,-0.3514,-0.3699,-0.3756,-0.3628,-0.3174,-0.3275,-0.3445,-0.3082,-0.3069,-0.296,-0.2693,-0.2155,-0.199,-0.231,-0.2329,-0.2251,-0.3155,-0.3205,-0.343,-0.4324,-0.4765,-0.4812,-0.483,-0.4832,-0.4832,-0.4832,-0.4832,-0.5037,-0.5641,-0.5942,-0.6339,-0.7633,-0.8634,-0.9229,1.6394,1.6959,1.6455,1.6315,1.6324,1.5842,1.5638,1.5771,1.6826,1.7033,1.6673,1.7097,1.7235,1.7166,1.751,1.7862,1.8269,1.8337,1.8472,0.0,1.9054,1.9386,1.9736,2.1112,2.1815,2.1889,2.2847,2.3846,2.4697,2.5412,2.6695,2.8356,2.8933,2.9981,3.1727,3.4338,3.5755,3.5817,3.5535,3.5107,3.4564,3.3358,3.2155,3.1003,2.9762,2.8629,2.7492,2.6305,2.5461,2.5104,2.2976,2.0746,1.849,1.8575,1.7751,1.5602,1.5707,1.5005,1.2974,1.19,1.0388,0.8193,0.6355,0.5505,0.559,0.3469,0.1904,0.1049,0.0292,-0.0489,-0.1058,-0.1187,-0.1403,-0.2073,-0.2265,-0.2556,-0.2839,-0.3431,-0.3642,-0.3443,-0.3523,-0.3702,-0.3891,-0.3742,-0.3485,-0.3397,-0.3382,-0.3302,-0.3094,-0.3029,-0.27,-0.2154,-0.1885,-0.1642,-0.1505,-0.1897,-0.2199,-0.2238,-0.323,-0.3832,-0.4622,-0.4734,-0.4769,-0.4824,-0.4834,-0.4832,-0.4734,-0.4832,-0.4834,-0.5037,-0.5438,-0.6039,-0.6539,-0.7135,-0.8031,1.6105,1.6533,1.6245,1.6175,1.6306,1.6035,1.5895,1.6044,1.689,1.7028,1.6673,1.7097,1.7166,1.6959,1.7657,1.793,1.7862,1.8212,1.8684,1.9075,1.933,1.9846,2.0495,2.1553,2.2113,2.2249,2.3657,2.4644,2.5301,2.639,2.7728,2.9127,3.0128,3.1235,3.2456,3.4387,3.5495,3.5764,3.5549,3.516,3.4604,3.3613,3.2599,3.1616,3.0149,2.9165,2.8549,2.6642,2.5606,2.5614,2.3179,2.0985,1.9151,1.8874,1.8145,1.6797,1.5971,1.4889,1.3281,1.1225,0.9327,0.7768,0.6523,0.5654,0.5255,0.3145,0.15,0.0845,-0.0096,-0.0974,-0.1626,-0.1859,-0.208,-0.2258,-0.2624,-0.2897,-0.3182,-0.3711,-0.4021,-0.3988,-0.4109,-0.4231,-0.4321,-0.4073,-0.3811,-0.3623,-0.3433,-0.3147,-0.3052,-0.3007,-0.269,-0.1946,-0.1206,-0.1033,-0.106,-0.1259,-0.1855,-0.2782,-0.2189,-0.2588,-0.4086,-0.4785,-0.47,-0.4734,-0.4738,-0.4734,-0.4638,-0.4636,-0.4736,-0.4638,-0.4937,-0.5438,-0.6039,-0.6936,-0.7836,1.6507,1.6655,1.6724,1.6724,1.6655,1.6585,1.6585,1.6664,1.7157,1.7295,1.7217,1.7364,1.7226,1.7079,1.7978,1.8259,1.8114,1.8529,1.9131,1.9726,1.9857,2.0431,2.1239,2.2051,2.2604,2.3062,2.453,2.5548,2.616,2.7618,2.8928,3.0046,3.1424,3.2432,3.3038,3.4442,3.5311,3.5543,3.5371,3.5,3.4391,3.3696,3.2804,3.1718,3.0418,2.9532,2.8982,2.6791,2.5605,2.552,2.3206,2.1269,1.9858,1.9175,1.844,1.7531,1.6203,1.4629,1.2851,1.0529,0.8632,0.7591,0.6615,0.5813,0.4926,0.3272,0.1841,0.102,0.0095,-0.0773,-0.1334,-0.1743,-0.2052,-0.2325,-0.277,-0.303,-0.3408,-0.3878,-0.4233,-0.4272,-0.4346,-0.4506,-0.4413,-0.4234,-0.3966,-0.3583,-0.3186,-0.2896,-0.2801,-0.2607,-0.2026,-0.1541,-0.0767,-0.0384,-0.088,-0.0589,-0.0988,-0.2615,-0.1411,-0.1509,-0.3124,-0.3831,-0.4442,-0.4549,-0.444,-0.4334,-0.4338,-0.4455,-0.4566,-0.4679,-0.4902,-0.5213,-0.6134,-0.6844,-0.7601,1.87,1.8777,1.8834,1.8432,1.7628,1.756,1.756,1.7569,1.7638,1.8172,1.89,1.7765,1.7628,1.8007,1.8094,1.87,1.9704,1.9715,1.9911,2.0355,2.0752,2.1239,2.1842,2.2955,2.3846,2.4557,2.5779,2.6769,2.7415,2.8791,3.0063,3.1236,3.2524,3.3205,3.3512,3.4706,3.5301,3.5149,3.5185,3.4833,3.4097,3.3799,3.2937,3.1456,3.0533,2.9544,2.8432,2.6477,2.5298,2.4954,2.3006,2.1183,1.9815,1.917,1.8096,1.6494,1.5706,1.4119,1.123,1.0193,0.9148,0.768,0.6707,0.5813,0.5099,0.4214,0.308,0.1846,0.1038,0.0284,-0.0466,-0.0671,-0.1351,-0.2533,-0.2792,-0.306,-0.3254,-0.3985,-0.4166,-0.3516,-0.3926,-0.4204,-0.4015,-0.3762,-0.3504,-0.3195,-0.2591,-0.2092,-0.2094,-0.1197,-0.0499,-0.0498,-0.0782,-0.058,0.0489,0.0785,0.0396,0.0503,-0.0807,-0.1412,-0.1412,-0.1916,-0.2927,-0.323,-0.3534,-0.3228,-0.3952,-0.4395,-0.4336,-0.4852,-0.5,-0.5282,-0.5922,-0.6325,-0.6771,1.9639,1.9628,1.977,1.9507,1.91,1.8767,1.8834,1.911,1.8767,1.9166,1.9835,1.9233,1.91,1.9344,1.9365,1.9814,2.0462,2.0451,2.0899,2.1631,2.1892,2.2212,2.2749,2.4013,2.4714,2.5093,2.6718,2.7841,2.8638,3.0061,3.1362,3.2346,3.305,3.3522,3.4032,3.4939,3.5329,3.5164,3.5111,3.4699,3.3937,3.3479,3.2652,3.1346,3.0103,2.9175,2.8271,2.6852,2.5711,2.4797,2.3666,2.2286,2.043,1.9555,1.8586,1.7381,1.5597,1.3613,1.1391,1.0183,0.9061,0.7937,0.7143,0.6435,0.5725,0.5366,0.458,0.3177,0.1758,0.0653,0.0093,-0.0657,-0.1224,-0.1577,-0.1942,-0.2323,-0.2258,-0.247,-0.2774,-0.3164,-0.343,-0.3785,-0.399,-0.3413,-0.2825,-0.2422,-0.1816,-0.1412,-0.1613,-0.1211,-0.0808,-0.0706,-0.1594,-0.119,0.0797,0.0799,0.0501,0.0403,-0.0202,-0.0505,-0.0,-0.0,-0.0706,-0.111,-0.1515,-0.1819,-0.2323,-0.3072,-0.3422,-0.4171,-0.5258,-0.5536,-0.564,-0.596,-0.6327,2.0355,2.042,2.0431,2.0355,2.0161,1.9835,1.9901,2.0172,1.9835,2.0031,2.056,2.0484,2.0602,2.0719,2.0613,2.0794,2.1267,2.1267,2.188,2.2809,2.287,2.3229,2.3923,2.4799,2.5562,2.6179,2.7629,2.8978,2.9976,3.1099,3.2298,3.3207,3.3379,3.3733,3.4467,3.5063,3.5405,3.5507,3.5201,3.4697,3.4074,3.3382,3.2426,3.1155,3.0205,2.9294,2.8498,2.7563,2.6576,2.5512,2.4582,2.3187,2.1417,2.0022,1.8738,1.7429,1.53,1.3269,1.1821,1.0356,0.9152,0.8285,0.7669,0.7054,0.6349,0.6086,0.5473,0.425,0.2838,0.1756,0.0648,-0.0186,-0.056,-0.056,-0.1209,-0.1491,-0.1321,-0.1442,-0.1839,-0.2416,-0.2631,-0.2984,-0.3299,-0.2611,-0.1917,-0.1613,-0.1109,-0.0706,-0.1009,-0.0908,-0.0605,-0.0303,-0.1212,-0.0908,0.1111,0.1109,0.0404,-0.0,-0.0,-0.0,-0.0,-0.0,0.1009,0.0202,-0.0304,-0.0815,-0.123,-0.176,-0.2533,-0.3077,-0.4281,-0.5508,-0.5863,-0.606,-0.5732,2.106,2.106,2.125,2.1071,2.0635,2.0571,2.0571,2.0741,2.056,2.0752,2.1187,2.1313,2.1815,2.2347,2.1502,2.1502,2.2408,2.2518,2.2882,2.3564,2.3623,2.4168,2.519,2.5301,2.6285,2.7807,2.8701,3.0061,3.1842,3.2109,3.2745,3.3815,3.3739,3.4006,3.4785,3.5229,3.5629,3.6229,3.5599,3.4951,3.4613,3.3724,3.2586,3.1207,3.1023,3.0332,2.9083,2.8408,2.7937,2.763,2.5441,2.3591,2.2298,2.0372,1.8143,1.5921,1.4448,1.319,1.1906,1.0804,0.968,0.846,0.8109,0.758,0.6349,0.6186,0.5784,0.4872,0.4432,0.3521,0.1953,0.1412,0.0759,-0.0285,-0.0562,-0.0558,-0.0928,-0.095,-0.1322,-0.1409,-0.1621,-0.1846,-0.1573,-0.1097,-0.0906,-0.0807,-0.0404,-0.0,0.0101,0.0506,0.1114,0.1315,0.1113,0.1111,0.1617,0.1414,0.0909,-0.0,-0.0,-0.0,-0.0,0.0707,0.1214,0.1626,0.1131,0.0623,-0.0104,-0.0742,-0.1521,-0.2417,-0.3862,-0.4884,-0.508,-0.591,-0.5791,2.2518,2.2531,2.247,2.2592,2.2688,2.2039,2.2077,2.2701,2.1966,2.2151,2.287,2.3002,2.3255,2.3492,2.3062,2.3255,2.38,2.38,2.4163,2.4765,2.505,2.5412,2.5957,2.6887,2.7694,2.8513,2.9581,3.0841,3.2127,3.2486,3.3327,3.4531,3.474,3.5333,3.6369,3.6795,3.7104,3.7362,3.7015,3.6485,3.5751,3.521,3.4044,3.2244,3.151,3.073,2.9899,2.9595,2.8742,2.7267,2.6076,2.4518,2.2411,2.0034,1.8057,1.6511,1.5137,1.388,1.2863,1.1666,1.0371,0.8978,0.846,0.7848,0.6982,0.6693,0.6315,0.5729,0.5578,0.4879,0.3828,0.3057,0.2188,0.1429,0.2106,0.2108,0.1156,0.0976,0.0886,-0.0196,-0.0984,-0.1288,-0.0994,-0.0502,-0.0101,-0.0202,0.051,0.0924,0.1234,0.2158,0.2878,0.3077,0.3053,0.3128,0.3633,0.2323,0.1419,0.1028,-0.0,-0.0,-0.0,0.1132,0.1545,0.1976,0.1892,0.148,0.0638,-0.0323,-0.0,-0.0,-0.0,-0.3361,-0.3696,-0.4374,-0.4828,2.3833,2.3795,2.3509,2.361,2.3904,2.3182,2.3343,2.4079,2.3128,2.3248,2.4092,2.4223,2.4236,2.4221,2.4323,2.4667,2.5063,2.4937,2.5119,2.566,2.6147,2.6649,2.7202,2.8179,2.8903,2.9432,3.0468,3.1528,3.2403,3.3059,3.4007,3.5195,3.5826,3.6635,3.7577,3.8084,3.8341,3.832,3.7981,3.7405,3.6677,3.6074,3.5059,3.3583,3.2475,3.1531,3.083,3.0684,2.9856,2.8228,2.7078,2.5119,2.2133,1.9657,1.7961,1.7074,1.5553,1.4482,1.3906,1.2599,1.131,1.0111,0.938,0.8613,0.7775,0.7462,0.7008,0.6542,0.632,0.5974,0.531,0.4683,0.3874,0.3102,0.3808,0.402,0.265,0.2974,0.2482,0.1283,0.0297,-0.0199,-0.02,0.0402,0.0606,0.0505,0.1232,0.166,0.218,0.3027,0.4083,0.4288,0.4147,0.4348,0.4669,0.3849,0.2671,0.2176,0.2199,0.1784,0.1475,0.1785,0.2104,0.2339,0.225,0.1831,0.1194,0.0219,-0.0,-0.0,-0.0,-0.1457,-0.2017,-0.2692,-0.2805,2.5043,2.4951,2.4282,2.4144,2.4216,2.4047,2.4288,2.464,2.3777,2.4034,2.4964,2.4878,2.5042,2.4899,2.5227,2.5647,2.64,2.6113,2.6002,2.6286,2.6893,2.776,2.8794,2.9077,2.9851,3.0924,3.1517,3.2143,3.2933,3.3996,3.4926,3.569,3.7013,3.7736,3.7811,3.8794,3.9188,3.8999,3.8357,3.774,3.7359,3.6322,3.5386,3.4685,3.3974,3.2967,3.1731,3.1652,3.1202,3.024,2.8074,2.5037,2.1645,1.9487,1.8123,1.7342,1.5801,1.4977,1.4853,1.3786,1.2667,1.1538,1.0931,1.0089,0.8932,0.8317,0.7823,0.7389,0.6963,0.6508,0.6404,0.6208,0.5601,0.4618,0.4362,0.4228,0.4027,0.4213,0.4085,0.3089,0.2148,0.167,0.1579,0.17,0.1716,0.1621,0.1748,0.2187,0.292,0.3689,0.4252,0.4788,0.5077,0.5164,0.5329,0.5377,0.4332,0.3551,0.3689,0.3607,0.3314,0.3425,0.3533,0.3671,0.3159,0.2738,0.2313,0.1554,0.1557,-0.0,-0.0,0.0448,-0.0112,-0.0448,-0.0336,2.6337,2.6356,2.563,2.5575,2.5794,2.5054,2.5202,2.5966,2.4819,2.5215,2.6658,2.7009,2.7172,2.7342,2.7345,2.7725,2.8429,2.8293,2.807,2.7913,2.8261,2.9131,3.0274,3.1001,3.1978,3.3071,3.379,3.4249,3.4601,3.5344,3.6205,3.7187,3.7935,3.8784,3.9528,4.0018,4.0218,4.0161,3.9821,3.9169,3.8263,3.7601,3.6684,3.5472,3.4793,3.4055,3.3323,3.2369,3.1435,3.0645,2.8163,2.5202,2.2157,2.0595,1.9335,1.7917,1.6862,1.5921,1.5269,1.4867,1.3931,1.2566,1.2035,1.1051,0.9666,0.9161,0.8619,0.7934,0.7583,0.74,0.7027,0.6939,0.6437,0.5138,0.5406,0.5183,0.4583,0.4585,0.4476,0.4063,0.368,0.3495,0.33,0.3225,0.2924,0.2528,0.2687,0.326,0.4227,0.5026,0.5521,0.5629,0.5806,0.5991,0.6141,0.619,0.5726,0.5022,0.5147,0.4962,0.4781,0.4686,0.48,0.4598,0.4085,0.3667,0.3242,0.3138,0.3251,0.3139,0.2801,0.2464,0.2017,0.1905,0.1905,2.7686,2.7795,2.6726,2.6552,2.6989,2.619,2.6456,2.7131,2.6268,2.69,2.834,2.8566,2.8688,2.8866,2.8575,2.8914,2.9743,2.996,3.013,3.0188,3.0136,3.0799,3.1864,3.2613,3.3464,3.43,3.4836,3.5254,3.5588,3.6497,3.7352,3.8053,3.8847,3.9634,4.0514,4.0675,4.0707,4.0623,4.0383,3.9744,3.876,3.8162,3.7363,3.6281,3.5509,3.4864,3.4317,3.3145,3.2028,3.0808,2.8329,2.5469,2.2999,2.1431,2.0051,1.9125,1.8215,1.7341,1.6537,1.6349,1.5592,1.409,1.3271,1.227,1.0886,1.0283,0.934,0.879,0.8626,0.8428,0.8124,0.7733,0.7235,0.6539,0.6534,0.6334,0.5529,0.5229,0.5027,0.482,0.4425,0.4332,0.4336,0.4237,0.4135,0.3646,0.3824,0.423,0.5216,0.5829,0.5988,0.6136,0.6572,0.6761,0.6848,0.6888,0.6939,0.6691,0.6456,0.6051,0.5755,0.5531,0.5531,0.5208,0.4795,0.4684,0.4258,0.4597,0.4711,0.4709,0.4372,0.4148,0.3699,0.3701,0.3702,2.9064,2.9203,2.7655,2.727,2.7657,2.7472,2.7777,2.8268,2.7954,2.8554,2.9648,3.0043,2.9892,2.9627,2.9559,2.9981,3.0608,3.1191,3.2048,3.2611,3.2575,3.2764,3.3496,3.4038,3.4658,3.508,3.5315,3.5605,3.6313,3.7516,3.8209,3.8503,3.9584,4.0377,4.0637,4.0766,4.0654,4.05,4.0166,3.9564,3.8739,3.8034,3.7377,3.6834,3.6011,3.5299,3.4673,3.3531,3.2594,3.1462,2.8407,2.6034,2.4316,2.1931,2.0731,2.0449,1.9615,1.878,1.8287,1.7826,1.7198,1.5908,1.4603,1.3333,1.257,1.1482,1.0637,1.0162,0.9811,0.9604,0.941,0.892,0.8428,0.8329,0.7534,0.7036,0.7036,0.6237,0.5834,0.5536,0.4836,0.4336,0.4943,0.4943,0.4943,0.4859,0.4926,0.5324,0.5503,0.6124,0.6245,0.6616,0.6952,0.6974,0.6942,0.695,0.6885,0.6767,0.6754,0.6667,0.6255,0.6026,0.5804,0.5592,0.5377,0.5268,0.527,0.5384,0.5384,0.5158,0.5158,0.5386,0.516,0.4825,0.4603,3.0001,2.9896,2.9127,2.8788,2.8729,2.8302,2.8744,2.9601,2.9114,2.9918,3.1308,3.2641,3.2788,3.2554,3.2303,3.2821,3.3275,3.3221,3.376,3.4743,3.4755,3.4774,3.5197,3.5913,3.6403,3.6683,3.7086,3.7662,3.8004,3.8678,3.9142,3.9331,4.0005,4.0549,4.0684,4.0563,4.0494,4.0461,3.9994,3.9303,3.8483,3.7972,3.7268,3.6492,3.5958,3.5316,3.4544,3.2748,3.1232,3.0058,2.8593,2.6629,2.4815,2.3594,2.2422,2.1184,2.0492,1.9715,1.8846,1.8532,1.7892,1.67,1.5892,1.5282,1.4175,1.3261,1.2346,1.1584,1.0858,1.0391,0.9998,0.9706,0.9316,0.8726,0.7932,0.7235,0.7135,0.6936,0.6736,0.6442,0.6139,0.5939,0.5839,0.5842,0.5842,0.5856,0.592,0.6022,0.6205,0.6419,0.666,0.6816,0.7062,0.7008,0.6924,0.6816,0.671,0.6594,0.6697,0.6914,0.6487,0.604,0.5819,0.5491,0.538,0.5382,0.5382,0.5384,0.5384,0.5382,0.5384,0.5384,0.5158,0.4821,0.4713,3.0719,3.0738,3.0082,2.9854,2.9973,2.9651,2.9991,3.0703,3.0824,3.1481,3.2917,3.4394,3.4704,3.4121,3.3804,3.4107,3.47,3.4618,3.4959,3.547,3.5847,3.6045,3.6323,3.6904,3.734,3.7738,3.8198,3.853,3.8857,3.9345,3.9702,3.9925,4.0332,4.0614,4.0758,4.0619,4.0491,4.0494,4.0252,3.9677,3.8462,3.8249,3.784,3.7085,3.6568,3.6055,3.5234,3.3249,3.1379,2.9969,2.8848,2.7488,2.5742,2.514,2.4051,2.239,2.1918,2.1107,2.0027,1.9491,1.8787,1.7654,1.6958,1.6096,1.5216,1.4465,1.3601,1.3295,1.2813,1.2431,1.1755,1.1077,1.0109,0.9221,0.8425,0.7733,0.7138,0.7338,0.7238,0.6842,0.6642,0.6539,0.6437,0.6437,0.6437,0.6348,0.6279,0.6489,0.6596,0.6831,0.7064,0.7239,0.7624,0.7683,0.7931,0.7931,0.7931,0.7709,0.7263,0.7374,0.6932,0.6379,0.5935,0.5714,0.5493,0.5493,0.5605,0.5605,0.5382,0.5382,0.5382,0.5274,0.5048,0.4966,0.4854,3.1452,3.1687,3.078,3.0679,3.1082,3.1244,3.1389,3.1803,3.2426,3.3181,3.3982,3.5332,3.5313,3.4703,3.4468,3.4468,3.5052,3.5442,3.5637,3.6011,3.6409,3.6799,3.7155,3.7155,3.756,3.8114,3.8291,3.8693,3.9144,3.9561,3.9975,4.0403,4.0717,4.0976,4.1291,4.1151,4.087,4.0894,4.0978,4.034,3.9258,3.8972,3.8679,3.7993,3.7171,3.6681,3.5853,3.4195,3.2235,3.0524,2.9573,2.8512,2.7172,2.6562,2.547,2.4143,2.334,2.2539,2.1218,2.0355,1.9712,1.8535,1.7131,1.6278,1.5994,1.5419,1.5038,1.5032,1.533,1.4472,1.3613,1.2355,1.0993,1.0109,0.9513,0.8821,0.7637,0.764,0.7537,0.6736,0.6537,0.6437,0.6437,0.6437,0.6434,0.7033,0.6971,0.725,0.748,0.7824,0.7886,0.7822,0.8207,0.8585,0.8813,0.9144,0.914,0.914,0.8472,0.814,0.7703,0.7152,0.6379,0.6047,0.6596,0.6487,0.6044,0.5935,0.5719,0.5508,0.5628,0.54,0.5065,0.5009,0.4918,3.2536,3.1933,3.2407,3.2357,3.1992,3.1997,3.2379,3.304,3.3314,3.3729,3.4332,3.528,3.5529,3.5374,3.5545,3.5865,3.5907,3.6097,3.6308,3.6706,3.6803,3.7415,3.7875,3.7895,3.798,3.8442,3.8778,3.9156,3.9514,4.0019,4.0425,4.1272,4.1645,4.2103,4.2532,4.2192,4.2218,4.217,4.1789,4.1082,4.0249,3.993,3.9477,3.8521,3.7295,3.6413,3.5591,3.3923,3.2643,3.1965,3.1054,3.0023,2.9015,2.8139,2.6842,2.5392,2.4273,2.3113,2.1398,2.0459,1.9621,1.8796,1.7978,1.734,1.7239,1.6756,1.6466,1.6271,1.5609,1.486,1.3715,1.3044,1.197,1.0988,1.089,1.0694,0.9312,0.8226,0.7829,0.7431,0.6936,0.6437,0.6437,0.6637,0.6833,0.7431,0.7762,0.8113,0.8347,0.8605,0.8687,0.856,0.9099,0.9471,0.9585,0.9915,1.0241,1.0241,0.968,0.924,0.8803,0.8475,0.7922,0.7808,0.8137,0.7697,0.7038,0.6839,0.674,0.6308,0.5775,0.5577,0.538,0.5192,0.5111,3.2905,3.2594,3.2992,3.3087,3.2859,3.3067,3.3478,3.3885,3.3885,3.4284,3.4947,3.5479,3.5706,3.5915,3.6156,3.6284,3.6333,3.6551,3.6829,3.7173,3.7432,3.8075,3.8903,3.908,3.9203,3.9438,3.9658,4.0132,4.0802,4.1159,4.1742,4.2376,4.2641,4.2689,4.3015,4.2888,4.2811,4.2812,4.2559,4.1842,4.0811,4.0673,4.0157,3.9089,3.7986,3.7254,3.6846,3.5262,3.4163,3.3456,3.2663,3.1322,2.9954,2.9238,2.7999,2.6287,2.4955,2.3867,2.2473,2.123,2.043,1.9786,1.8996,1.8542,1.8272,1.7792,1.7419,1.7232,1.6662,1.5893,1.419,1.3426,1.264,1.177,1.178,1.158,1.0792,0.9801,0.8913,0.8616,0.8124,0.7925,0.7726,0.7431,0.7627,0.8322,0.8535,0.8796,0.8645,0.8909,0.917,0.9352,1.0043,1.0347,1.0351,1.0684,1.1122,1.1118,1.1004,1.0676,1.046,1.0127,0.9798,0.946,0.9016,0.8686,0.8143,0.7952,0.7564,0.6935,0.6526,0.6005,0.5582,0.5259,0.518,3.3262,3.3165,3.335,3.3509,3.3658,3.4118,3.4415,3.4464,3.4331,3.4778,3.5543,3.5638,3.5813,3.6148,3.6259,3.6301,3.6522,3.6858,3.7235,3.7614,3.8198,3.8911,3.97,4.028,4.0765,4.0913,4.0915,4.1539,4.221,4.2717,4.2853,4.3458,4.3583,4.3651,4.3383,4.331,4.3475,4.3441,4.3322,4.2605,4.1334,4.1247,4.0718,3.9515,3.8712,3.8179,3.7598,3.6383,3.5374,3.4728,3.4124,3.2415,3.0705,2.9732,2.9032,2.673,2.5652,2.4563,2.3444,2.2296,2.1329,2.1338,2.0175,1.9363,1.9088,1.8627,1.8265,1.79,1.752,1.685,1.533,1.4472,1.3516,1.2743,1.236,1.2268,1.2165,1.1575,1.069,0.9801,0.9209,0.8817,0.8817,0.8821,0.9019,0.9126,0.9343,0.951,0.9482,0.9557,1.0063,1.0428,1.1042,1.1223,1.1232,1.1244,1.1791,1.1805,1.18,1.1704,1.159,1.1341,1.0789,1.0014,0.957,0.9471,0.93,0.9035,0.8539,0.7803,0.7085,0.6464,0.5905,0.5444,0.5372,3.4476,3.3498,3.451,3.4533,3.3982,3.461,3.4818,3.4723,3.4975,3.5128,3.5345,3.5639,3.5817,3.6002,3.6216,3.6533,3.6886,3.7236,3.7698,3.8343,3.909,3.9872,4.0606,4.1485,4.2234,4.2691,4.2591,4.264,4.2939,4.3032,4.374,4.4345,4.4472,4.4629,4.49,4.4951,4.4416,4.4104,4.3896,4.3107,4.2193,4.1703,4.113,3.9665,3.8804,3.8222,3.7488,3.6477,3.5608,3.519,3.4327,3.3143,3.1825,3.0742,2.9254,2.7522,2.6329,2.5253,2.3963,2.2902,2.1933,2.1329,2.0718,2.0085,1.9629,1.9271,1.8912,1.8272,1.7714,1.6857,1.5527,1.5274,1.4968,1.4388,1.3829,1.3562,1.3465,1.2878,1.2021,1.1063,1.0345,0.9731,0.9863,1.0,1.0037,1.0175,1.041,1.069,1.0946,1.1154,1.1584,1.1836,1.2082,1.2219,1.2219,1.2128,1.2251,1.2288,1.2188,1.222,1.2087,1.2242,1.1787,1.1105,1.0888,1.0876,1.0612,1.0257,0.9453,0.8624,0.7794,0.6943,0.6478,0.5893,0.5702,3.4791,3.4489,3.4751,3.5038,3.5184,3.5341,3.558,3.5803,3.5621,3.5616,3.581,3.5898,3.6028,3.6301,3.6485,3.6856,3.736,3.7675,3.8342,3.924,3.996,4.0923,4.1761,4.2716,4.3532,4.4145,4.4268,4.4177,4.4365,4.4521,4.4786,4.5173,4.5312,4.5517,4.5705,4.5395,4.4859,4.4448,4.409,4.3505,4.2306,4.1725,4.0672,3.9885,3.8794,3.8084,3.7637,3.6616,3.58,3.5335,3.4528,3.3492,3.2362,3.1206,2.9935,2.8187,2.6999,2.6019,2.4914,2.4039,2.3357,2.2833,2.1872,2.1069,2.0619,2.0175,1.9587,1.8751,1.7721,1.677,1.5913,1.615,1.584,1.5261,1.488,1.4844,1.471,1.4068,1.3188,1.2328,1.173,1.122,1.1102,1.1143,1.1098,1.1148,1.1401,1.1709,1.2038,1.2236,1.2345,1.2412,1.2304,1.2484,1.2517,1.2583,1.2487,1.2505,1.2534,1.2455,1.2483,1.2469,1.2399,1.2136,1.21,1.193,1.1768,1.1204,1.029,0.9469,0.8753,0.7878,0.7059,0.6485,0.627,3.4803,3.5145,3.484,3.5291,3.6122,3.6093,3.6222,3.658,3.6198,3.6191,3.6478,3.6396,3.6565,3.6851,3.7108,3.7447,3.8042,3.8455,3.9342,4.0391,4.111,4.2104,4.3052,4.3977,4.4576,4.5093,4.551,4.5841,4.557,4.5587,4.5815,4.5805,4.5809,4.5796,4.575,4.5361,4.4653,4.4214,4.3932,4.3431,4.2144,4.0879,4.0138,3.9918,3.8772,3.8042,3.7796,3.6738,3.5943,3.5409,3.4689,3.3788,3.2526,3.1527,3.042,2.9162,2.7719,2.694,2.6019,2.5179,2.4317,2.3714,2.257,2.2008,2.1536,2.0807,2.0105,1.9212,1.8308,1.7589,1.7163,1.6994,1.671,1.6339,1.6058,1.5808,1.5594,1.5002,1.4159,1.3467,1.2972,1.2456,1.2131,1.1808,1.1657,1.162,1.1779,1.1756,1.2087,1.2235,1.2285,1.2313,1.2394,1.2512,1.2611,1.2758,1.2679,1.2595,1.2636,1.2565,1.2611,1.2534,1.2447,1.2324,1.2232,1.1964,1.2131,1.1957,1.0915,1.0094,0.9493,0.8815,0.7958,0.723,0.6761,3.4695,3.4732,3.5143,3.5464,3.5861,3.6387,3.6429,3.6268,3.654,3.662,3.6841,3.7328,3.7446,3.755,3.7934,3.8518,3.9167,3.9718,4.0541,4.1623,4.2457,4.312,4.3795,4.4824,4.5203,4.5629,4.5925,4.6069,4.5969,4.5913,4.5893,4.5884,4.575,4.5657,4.5647,4.5208,4.4497,4.4064,4.3732,4.2886,4.1595,4.0421,3.9849,3.9415,3.8678,3.7985,3.7621,3.6739,3.5937,3.5514,3.4813,3.4271,3.3536,3.1576,3.059,2.9911,2.9095,2.7903,2.6599,2.5589,2.4796,2.4034,2.2911,2.2292,2.1925,2.1471,2.0855,2.0504,1.9581,1.9043,1.8626,1.8378,1.8134,1.764,1.7251,1.6973,1.6633,1.5764,1.4922,1.4402,1.3811,1.3241,1.2683,1.2447,1.2127,1.2195,1.2168,1.2149,1.2129,1.2261,1.2229,1.2257,1.226,1.2381,1.2395,1.2646,1.2766,1.257,1.2643,1.2694,1.2614,1.2525,1.233,1.2219,1.2035,1.1983,1.2017,1.1732,1.1224,1.0688,1.0151,0.9562,0.8833,0.8108,0.7497,3.629,3.7101,3.6675,3.6874,3.7491,3.7419,3.7228,3.7126,3.7252,3.737,3.7633,3.8554,3.9073,3.9264,3.971,4.0088,4.0522,4.0881,4.1642,4.2641,4.341,4.3969,4.459,4.5245,4.5671,4.5852,4.6002,4.6093,4.6061,4.5996,4.5952,4.584,4.5659,4.5512,4.5534,4.5181,4.4433,4.3644,4.2793,4.1955,4.1145,4.0239,3.9537,3.9432,3.8383,3.7838,3.7433,3.6846,3.614,3.5703,3.5177,3.485,3.4039,3.2425,3.0849,3.0152,2.9126,2.7995,2.6857,2.5863,2.5126,2.4374,2.3417,2.2546,2.2333,2.1984,2.1613,2.1562,2.0216,1.9657,1.9638,1.9064,1.8847,1.8577,1.8175,1.8086,1.7578,1.6477,1.5688,1.5187,1.4756,1.4046,1.3472,1.2951,1.2629,1.2462,1.2409,1.2252,1.2299,1.2361,1.2299,1.2096,1.2238,1.2395,1.2298,1.2315,1.249,1.257,1.2696,1.2613,1.2504,1.2373,1.2181,1.2081,1.1938,1.1869,1.1889,1.1663,1.1447,1.1121,1.0671,1.0183,0.9694,0.8961,0.8352,3.8089,3.9255,3.7894,3.7785,3.8432,3.7829,3.769,3.7864,3.7871,3.8076,3.8677,3.9631,4.0509,4.1082,4.1199,4.1359,4.1776,4.1988,4.2795,4.3555,4.4129,4.4652,4.5158,4.563,4.5856,4.5981,4.6105,4.6132,4.6019,4.5923,4.5862,4.5796,4.5541,4.5438,4.5366,4.516,4.4542,4.2868,4.1904,4.1209,4.0709,3.9863,3.9448,3.9007,3.8294,3.7531,3.7389,3.6919,3.6304,3.5666,3.554,3.518,3.4386,3.2904,3.1487,3.0648,2.9618,2.8515,2.73,2.616,2.539,2.4649,2.3942,2.3,2.2939,2.2563,2.2276,2.2338,2.1162,2.0351,1.9857,1.9388,1.9066,1.8913,1.8716,1.8882,1.8658,1.7224,1.621,1.5773,1.5323,1.5045,1.4382,1.3675,1.3156,1.2847,1.2663,1.246,1.2379,1.2393,1.2358,1.2183,1.2271,1.2302,1.2267,1.2276,1.2308,1.2403,1.2525,1.2449,1.2294,1.2179,1.2034,1.1968,1.1889,1.1872,1.1831,1.1864,1.1776,1.153,1.1163,1.0917,1.0429,0.9815,0.9326,3.9766,4.007,3.8209,3.7401,3.7281,3.711,3.7514,3.8216,3.828,3.8881,3.9783,4.0492,4.1421,4.1958,4.2199,4.2417,4.2827,4.3253,4.3942,4.4633,4.5189,4.5349,4.5648,4.5842,4.6025,4.6136,4.619,4.6128,4.5977,4.5776,4.5668,4.5533,4.5397,4.5335,4.5236,4.5017,4.3915,4.2352,4.1297,4.0748,4.0255,3.9557,3.9094,3.8805,3.8042,3.7326,3.7103,3.6694,3.629,3.5533,3.5568,3.5127,3.4314,3.3212,3.1984,3.1153,3.0025,2.8937,2.7838,2.6325,2.5161,2.4586,2.4025,2.3487,2.3501,2.3849,2.3592,2.2909,2.182,2.1083,2.0429,1.9826,1.9162,1.894,1.8808,1.854,1.8297,1.7549,1.6647,1.6274,1.5974,1.5761,1.5334,1.4685,1.3727,1.33,1.2559,1.236,1.2404,1.2455,1.2356,1.2361,1.2347,1.2355,1.2399,1.2382,1.223,1.2141,1.2209,1.2122,1.1997,1.1893,1.1893,1.1893,1.1893,1.1776,1.1893,1.1893,1.1889,1.1893,1.1651,1.1405,1.1402,1.1035,1.0668,4.001,3.9659,3.9398,3.8968,3.8409,3.8409,3.8649,3.907,3.9628,4.067,4.1869,4.2368,4.2913,4.3461,4.3726,4.3837,4.412,4.4393,4.4824,4.515,4.5459,4.5686,4.5861,4.5986,4.6104,4.6189,4.6191,4.5982,4.5686,4.5665,4.5381,4.5213,4.5293,4.5223,4.5108,4.4487,4.3105,4.1843,4.1035,4.0637,3.9921,3.9379,3.886,3.8399,3.7738,3.7027,3.6585,3.6401,3.6365,3.631,3.5935,3.5155,3.4113,3.3138,3.2369,3.1515,3.0313,2.9246,2.8302,2.6611,2.5158,2.4152,2.3951,2.3904,2.3966,2.4267,2.4026,2.3311,2.2509,2.17,2.0783,1.9768,1.9056,1.8966,1.8757,1.8436,1.801,1.7371,1.716,1.6836,1.6829,1.6829,1.6293,1.5648,1.4691,1.3727,1.2886,1.2183,1.2353,1.2271,1.227,1.2418,1.2385,1.2111,1.2141,1.2128,1.2122,1.2005,1.2005,1.1889,1.1897,1.1776,1.1893,1.1776,1.1893,1.1889,1.2005,1.2005,1.2005,1.2005,1.1889,1.1776,1.1772,1.201,1.1639,4.0358,3.9761,4.0295,4.0067,3.9357,3.9346,3.9611,4.0023,4.0583,4.1877,4.349,4.3638,4.4065,4.4613,4.4777,4.4825,4.4905,4.5104,4.5265,4.5497,4.568,4.5851,4.5986,4.6087,4.6161,4.6177,4.6084,4.5856,4.5572,4.5693,4.5587,4.5489,4.5445,4.5462,4.4786,4.3778,4.2526,4.1613,4.1047,4.0764,4.0128,3.9673,3.917,3.8606,3.7962,3.7421,3.7063,3.6955,3.665,3.6387,3.5989,3.5146,3.4099,3.3118,3.2487,3.154,3.0587,2.9387,2.8465,2.6939,2.5179,2.4122,2.4082,2.4196,2.4341,2.444,2.4134,2.3429,2.2702,2.1996,2.0987,1.9879,1.8966,1.8855,1.8436,1.8122,1.801,1.7582,1.7582,1.7371,1.7477,1.7259,1.6405,1.5547,1.4272,1.3413,1.2659,1.2137,1.2158,1.2165,1.2025,1.2186,1.2487,1.2171,1.1717,1.2282,1.2719,1.1893,1.1889,1.1889,1.1893,1.1893,1.1893,1.201,1.2005,1.2001,1.2122,1.2242,1.2359,1.2354,1.2242,1.213,1.2126,1.2122,1.2118,4.113,4.0524,4.0609,4.0162,3.954,3.9464,3.9994,4.0795,4.1163,4.2195,4.3638,4.4011,4.4421,4.4827,4.4991,4.509,4.5223,4.5436,4.5591,4.5667,4.5835,4.598,4.6033,4.61,4.6137,4.6123,4.6114,4.5951,4.5594,4.6148,4.6145,4.6055,4.6082,4.5772,4.4834,4.3228,4.245,4.2342,4.1736,4.116,4.0582,4.0156,3.9734,3.8952,3.8496,3.795,3.7375,3.7312,3.6816,3.5999,3.6023,3.5213,3.3766,3.3879,3.3126,3.1743,3.1517,3.0606,2.9087,2.6931,2.5464,2.445,2.4501,2.443,2.435,2.4341,2.4125,2.342,2.302,2.2114,2.0995,1.9975,1.9264,1.8541,1.8122,1.7905,1.7799,1.7687,1.7694,1.7589,1.7483,1.7265,1.6299,1.5232,1.3851,1.2886,1.2228,1.2072,1.213,1.1953,1.1923,1.2529,1.2825,1.2724,1.2627,1.314,1.3191,1.2367,1.1893,1.1889,1.2005,1.2005,1.2005,1.2122,1.2242,1.2359,1.2359,1.2479,1.2599,1.2595,1.2595,1.2479,1.2479,1.2359,1.2234,4.1595,4.1366,4.1495,4.1396,4.1102,4.0648,4.1001,4.1868,4.2428,4.3133,4.3849,4.4289,4.4688,4.4995,4.5218,4.5342,4.5488,4.5607,4.5756,4.587,4.6,4.6052,4.6104,4.6147,4.6122,4.6113,4.6164,4.6307,4.5986,4.6667,4.6847,4.6732,4.6744,4.5801,4.4689,4.3602,4.3383,4.2604,4.2108,4.1644,4.0701,4.0305,3.9799,3.8929,3.8569,3.8068,3.7292,3.7225,3.6722,3.6031,3.6206,3.478,3.3731,3.3759,3.3677,3.271,3.2335,3.0468,2.8636,2.6855,2.5912,2.5294,2.4922,2.4833,2.4735,2.4529,2.4125,2.352,2.3229,2.2114,2.0593,1.9975,1.9257,1.8325,1.7911,1.7799,1.7694,1.7589,1.7589,1.7483,1.7483,1.6755,1.5903,1.5115,1.3842,1.3302,1.2894,1.2212,1.2113,1.1944,1.1951,1.2903,1.3393,1.3412,1.343,1.3784,1.3195,1.213,1.1893,1.1889,1.2005,1.2001,1.2242,1.2363,1.2479,1.2599,1.2599,1.2599,1.2719,1.284,1.2715,1.2479,1.2242,1.2242,1.2238,4.1884,4.1902,4.203,4.2139,4.2074,4.1675,4.1944,4.2675,4.3336,4.3804,4.4154,4.458,4.4985,4.5243,4.54,4.5558,4.5689,4.5841,4.592,4.6036,4.6067,4.6069,4.6123,4.6349,4.6452,4.6435,4.6777,4.705,4.6682,4.7365,4.773,4.7841,4.7705,4.7003,4.5836,4.5132,4.4314,4.3475,4.2867,4.2172,4.139,4.0751,4.0069,3.9298,3.869,3.8138,3.7329,3.6851,3.6696,3.6634,3.5727,3.4243,3.3624,3.3484,3.3568,3.2922,3.1932,3.0407,2.8912,2.7606,2.6788,2.6191,2.5604,2.503,2.4627,2.4332,2.4035,2.3628,2.3329,2.2005,2.0688,2.0078,1.9354,1.8422,1.7799,1.7589,1.7589,1.7589,1.749,1.7384,1.7086,1.6355,1.5671,1.4875,1.4072,1.3785,1.3595,1.2913,1.244,1.2476,1.2631,1.3461,1.4143,1.4143,1.4023,1.4018,1.3315,1.2014,1.1893,1.1893,1.2126,1.2242,1.2363,1.2483,1.2359,1.2359,1.2599,1.2599,1.2599,1.2479,1.2475,1.2242,1.213,1.2126,1.2118,4.1987,4.203,4.2222,4.2328,4.2351,4.2382,4.2693,4.316,4.3809,4.4184,4.4363,4.49,4.5265,4.5543,4.5623,4.5736,4.5867,4.6008,4.6066,4.6075,4.6091,4.6089,4.6383,4.6766,4.6842,4.7108,4.7415,4.7685,4.7505,4.8041,4.8619,4.8884,4.8735,4.8002,4.7114,4.5829,4.4865,4.3955,4.3283,4.2659,4.1989,4.1322,4.0582,3.9818,3.9133,3.8516,3.7794,3.7249,3.7211,3.6789,3.5818,3.4366,3.3484,3.3179,3.2649,3.2031,3.1285,3.042,2.9451,2.8077,2.7259,2.6316,2.513,2.4389,2.4017,2.4063,2.3936,2.3673,2.3338,2.2106,2.0885,2.0269,1.9657,1.8729,1.7799,1.7589,1.7483,1.7384,1.7285,1.7086,1.6693,1.6221,1.5728,1.5048,1.4489,1.45,1.4334,1.428,1.3907,1.3708,1.3981,1.4553,1.4976,1.4976,1.4852,1.4376,1.3315,1.2014,1.1897,1.1897,1.213,1.2242,1.2363,1.2363,1.2118,1.2118,1.2359,1.2359,1.2238,1.2118,1.2122,1.2122,1.201,1.1885,1.1881,4.2145,4.2292,4.2432,4.2649,4.288,4.3087,4.3338,4.3646,4.4035,4.4363,4.4754,4.5206,4.5505,4.5728,4.5809,4.5897,4.6013,4.6078,4.6102,4.613,4.621,4.6481,4.6784,4.7068,4.7224,4.7587,4.7964,4.8251,4.8174,4.8633,4.8632,4.855,4.8873,4.8321,4.714,4.5548,4.4783,4.4113,4.3506,4.3021,4.2285,4.144,4.0715,3.998,3.9149,3.8439,3.7682,3.6985,3.6695,3.5995,3.5067,3.3836,3.324,3.3432,3.3293,3.2317,3.1262,2.9964,2.8667,2.7201,2.6231,2.5838,2.461,2.4352,2.4077,2.3958,2.3868,2.3687,2.3151,2.2012,2.0948,2.0212,1.9257,1.8311,1.7589,1.7483,1.7378,1.7173,1.6967,1.6674,1.6386,1.6223,1.5736,1.5283,1.4826,1.5042,1.5183,1.5262,1.5264,1.505,1.4964,1.5424,1.5337,1.5213,1.4738,1.4262,1.3195,1.2251,1.2014,1.1893,1.2126,1.2359,1.2238,1.2118,1.1877,1.1997,1.2113,1.2113,1.1877,1.1885,1.1889,1.201,1.2014,1.1889,1.1768,4.2391,4.2573,4.2709,4.2995,4.3391,4.3735,4.4009,4.4224,4.4363,4.4662,4.509,4.5449,4.5747,4.5891,4.5949,4.6021,4.6089,4.6114,4.6249,4.665,4.6534,4.6989,4.7307,4.7684,4.7934,4.8251,4.8529,4.8853,4.8715,4.8754,4.88,4.8309,4.8512,4.7922,4.6966,4.5731,4.463,4.4097,4.3553,4.3141,4.2382,4.133,4.0447,3.9968,3.9136,3.803,3.7293,3.6536,3.6031,3.5429,3.4491,3.3996,3.3419,3.3461,3.2687,3.1665,3.0374,2.9171,2.7996,2.6226,2.5477,2.4893,2.4103,2.3852,2.3965,2.3965,2.3903,2.365,2.292,2.2034,2.1044,1.9955,1.8764,1.7589,1.7483,1.7272,1.706,1.6855,1.6662,1.6361,1.6258,1.609,1.5853,1.5428,1.5379,1.592,1.627,1.6454,1.6434,1.634,1.5987,1.5919,1.5693,1.5332,1.4738,1.3909,1.296,1.213,1.2014,1.2014,1.2242,1.1997,1.1756,1.1635,1.1631,1.1631,1.1631,1.1756,1.1756,1.1643,1.1772,1.1772,1.1893,1.1893,1.1772,4.2688,4.286,4.2995,4.3406,4.3881,4.4252,4.4575,4.4916,4.481,4.5008,4.5409,4.5708,4.5922,4.6047,4.6099,4.6094,4.6204,4.6288,4.6671,4.7326,4.7349,4.7668,4.8218,4.8758,4.8586,4.875,4.8936,4.9114,4.9067,4.8837,4.8403,4.808,4.7623,4.7174,4.6638,4.5551,4.4605,4.4256,4.3522,4.2912,4.2579,4.1357,3.9926,3.9996,3.8851,3.7439,3.6768,3.6207,3.5771,3.506,3.4495,3.4094,3.3509,3.2969,3.1861,3.0522,2.9306,2.8233,2.7161,2.5526,2.4792,2.4211,2.3606,2.3508,2.3696,2.3788,2.3695,2.3522,2.2916,2.1998,2.0997,1.9864,1.8751,1.7889,1.7466,1.7251,1.7035,1.6844,1.6671,1.6496,1.6521,1.6438,1.651,1.608,1.6224,1.6898,1.7128,1.7301,1.722,1.7126,1.6649,1.6172,1.5575,1.4981,1.3913,1.32,1.2603,1.201,1.1772,1.1768,1.1756,1.1511,1.1148,1.1269,1.1273,1.1152,1.1152,1.1273,1.1514,1.1514,1.1522,1.1651,1.1776,1.1784,1.1776,4.2938,4.3123,4.3563,4.4011,4.4392,4.4504,4.4836,4.5266,4.5259,4.5445,4.5751,4.5914,4.6018,4.615,4.617,4.6183,4.6307,4.6706,4.708,4.7563,4.7858,4.8387,4.874,4.8979,4.9011,4.9183,4.9234,4.9108,4.882,4.8346,4.7761,4.7248,4.6997,4.683,4.592,4.4915,4.4477,4.4545,4.35,4.283,4.2567,4.1836,4.083,3.994,3.858,3.7689,3.6986,3.6292,3.5963,3.5379,3.4491,3.371,3.2734,3.2352,3.1446,3.0216,2.844,2.7317,2.617,2.4936,2.3922,2.3326,2.2978,2.336,2.3527,2.3465,2.347,2.3347,2.2757,2.1846,2.0925,1.9765,1.8727,1.8087,1.7553,1.7218,1.6998,1.6827,1.6666,1.677,1.6791,1.6857,1.6905,1.7026,1.7183,1.7292,1.7376,1.7467,1.7467,1.7244,1.6649,1.6053,1.5219,1.4386,1.332,1.2479,1.1881,1.1639,1.1281,1.1277,1.139,1.1027,1.0789,1.0789,1.091,1.0789,1.091,1.1148,1.1269,1.1273,1.1405,1.1534,1.1801,1.1817,1.1792,4.3286,4.3545,4.4121,4.4572,4.489,4.5046,4.5303,4.5587,4.5686,4.5811,4.5998,4.6075,4.6158,4.6222,4.6226,4.6516,4.6697,4.7112,4.7845,4.8347,4.8629,4.9082,4.9292,4.9267,4.9145,4.9234,4.9005,4.875,4.8476,4.7959,4.736,4.6813,4.6723,4.6174,4.5167,4.4653,4.4721,4.5098,4.3681,4.2906,4.241,4.124,4.05,3.9505,3.8672,3.7695,3.6933,3.6212,3.5834,3.5158,3.4207,3.3206,3.2271,3.144,3.0536,2.9341,2.7879,2.6427,2.5448,2.442,2.3292,2.2863,2.265,2.3152,2.3728,2.3813,2.3737,2.3478,2.2111,2.1065,2.088,2.0033,1.8933,1.802,1.7474,1.7141,1.6925,1.6727,1.6646,1.6688,1.6809,1.6899,1.6984,1.7171,1.728,1.7213,1.7328,1.7473,1.7485,1.7244,1.6532,1.5698,1.4862,1.3665,1.2354,1.1756,1.1277,1.1035,1.0914,1.091,1.0785,1.0547,1.0304,1.0568,1.069,1.0668,1.0906,1.1077,1.1285,1.1273,1.1409,1.1425,1.1708,1.1898,1.1931,4.3758,4.4065,4.4617,4.5058,4.5357,4.5615,4.5764,4.5925,4.6035,4.6222,4.6493,4.6599,4.6495,4.6415,4.6463,4.6951,4.7445,4.7942,4.8696,4.9229,4.9621,4.9701,4.971,4.9713,4.9337,4.8897,4.8623,4.8364,4.8114,4.7446,4.688,4.6605,4.6099,4.5513,4.4986,4.5046,4.5437,4.4897,4.3929,4.3109,4.1865,4.032,3.9867,3.9143,3.8263,3.6974,3.6322,3.5875,3.5522,3.4727,3.384,3.2696,3.1671,3.0685,2.9746,2.8555,2.7418,2.6132,2.5144,2.4269,2.3461,2.2909,2.2889,2.3137,2.369,2.3809,2.3836,2.3259,2.1777,2.1033,2.0959,2.0115,1.8993,1.8151,1.7709,1.7147,1.6928,1.6821,1.6833,1.6839,1.6911,1.7014,1.7135,1.7316,1.731,1.7231,1.7261,1.7394,1.7367,1.7015,1.6419,1.5337,1.4262,1.2946,1.1631,1.1031,1.0793,1.0671,1.0547,1.0425,1.0304,1.0183,1.02,1.0368,1.0483,1.063,1.0663,1.0837,1.1031,1.1241,1.131,1.1375,1.1896,1.2085,1.2142,4.4455,4.5023,4.5148,4.5391,4.5692,4.5815,4.5894,4.6007,4.6138,4.6577,4.7361,4.8033,4.8074,4.7342,4.7269,4.7665,4.8322,4.878,4.9127,4.9602,4.9971,5.003,4.9815,4.9464,4.9052,4.8641,4.8249,4.7915,4.753,4.6809,4.6195,4.5922,4.5437,4.5154,4.5121,4.5135,4.4851,4.4265,4.3214,4.2068,4.1558,4.0365,3.955,3.8741,3.7911,3.6718,3.5924,3.5605,3.5174,3.4507,3.3511,3.2185,3.1165,3.013,2.9316,2.8489,2.7237,2.6421,2.5486,2.4546,2.3829,2.2877,2.284,2.2892,2.3124,2.3218,2.3259,2.3367,2.2383,2.1933,2.1534,2.016,1.8951,1.8614,1.8161,1.759,1.7249,1.7249,1.7249,1.7255,1.728,1.7316,1.7334,1.7436,1.7313,1.7259,1.7259,1.7367,1.6891,1.6537,1.6301,1.4986,1.367,1.2466,1.1144,1.0668,1.0429,1.0308,1.0322,1.0229,1.0107,0.9943,0.9974,1.0214,1.0397,1.0553,1.0706,1.0721,1.1007,1.1124,1.1309,1.1484,1.2,1.2268,1.2316]},{"header":{"parameterUnit":"m.s-1","parameterCategory":1,"la1":31.0,"la2":29.5877,"lo1":-88.7671,"lo2":-86.6584,"dy":0.0162,"dx":0.0185,"nx":115,"ny":88,"refTime":"2024-08-06T00:00:00:Z","depth":0,"parameterNumber":3,"parameterNumberName":"V-component_of_WINDS"},"data":[0.0,0.0,0.0,0.0,0.0,0.0,0.0,0.0,0.0,0.0,0.0,0.0,0.0,0.0,0.0,0.0,0.0,0.0,0.0,0.0,0.0,0.0,0.0,0.0,0.0,0.0,0.0,0.0,0.0,0.0,0.0,0.0,0.0,0.0,0.0,0.0,0.0,0.0,0.0,0.0,0.0,0.0,0.0,0.0,0.0,0.0,0.0,0.0,0.0,0.0,0.0,0.0,0.0,0.0,0.0,0.0,0.0,0.0,0.0,0.0,0.0,0.0,0.0,0.0,0.0,0.0,0.0,0.0,0.0,0.0,0.0,0.0,0.0,0.0,0.0,0.0,0.0,0.0,0.0,0.0,0.0,0.0,0.0,0.0,0.0,0.0,0.0,0.0,0.0,0.0,0.0,0.0,0.0,0.0,0.0,0.0,0.0,0.0,0.0,0.0,0.0,0.0,0.0,0.0,0.0,0.0,0.0,0.0,0.0,0.0,0.0,0.0,0.0,0.0,0.0,0.0,0.0,0.0,0.0,0.0,0.0,0.0,0.0,0.0,0.0,0.0,0.0,0.0,0.0,0.0,0.0,0.0,0.0,0.0,0.0,0.0,0.0,0.0,0.0,0.0,0.0,0.0,0.0,0.0,0.0,0.0,0.0,0.0,0.0,0.0,0.0,0.0,0.0,0.0,0.0,0.0,0.0,0.0,0.0,0.0,0.0,0.0,0.0,0.0,0.0,0.0,0.0,0.0,0.0,0.0,0.0,0.0,0.0,0.0,0.0,0.0,0.0,0.0,0.0,0.0,0.0,0.0,0.0,0.0,0.0,0.0,0.0,0.0,0.0,0.0,0.0,0.0,0.0,0.0,0.0,0.0,0.0,0.0,0.0,0.0,0.0,0.0,0.0,0.0,0.0,0.0,0.0,0.0,0.0,0.0,0.0,0.0,0.0,0.0,0.0,0.0,0.0,0.0,0.0,0.0,0.0,0.0,0.0,0.0,0.0,0.0,0.0,0.0,0.0,0.0,0.0,0.0,0.0,0.0,0.0,0.0,0.0,0.0,0.0,0.0,0.0,0.0,0.0,0.0,0.0,0.0,0.0,0.0,0.0,0.0,0.0,0.0,0.0,0.0,0.0,0.0,0.0,0.0,0.0,0.0,0.0,0.0,0.0,0.0,0.0,0.0,0.0,0.0,0.0,0.0,0.0,0.0,0.0,0.0,0.0,0.0,0.0,0.0,0.0,0.0,0.0,0.0,0.0,0.0,0.0,0.0,0.0,0.0,0.0,0.0,0.0,0.0,0.0,0.0,0.0,0.0,0.0,0.0,0.0,0.0,0.0,0.0,0.0,0.0,0.0,0.0,0.0,0.0,0.0,0.0,0.0,0.0,0.0,0.0,0.0,0.0,0.0,0.0,0.0,0.0,0.0,0.0,0.0,0.0,0.0,0.0,0.0,0.0,0.0,0.0,0.0,0.0,0.0,0.0,0.0,0.0,0.0,0.0,0.0,0.0,0.0,0.0,0.0,0.0,0.0,0.0,0.0,0.0,0.0,0.0,0.0,0.0,0.0,0.0,0.0,0.0,0.0,0.0,0.0,0.0,0.0,0.0,0.0,0.0,0.0,0.0,0.0,0.0,0.0,0.0,0.0,0.0,0.0,0.0,0.0,0.0,0.0,0.0,0.0,0.0,0.0,0.0,0.0,0.0,0.0,0.0,0.0,0.0,0.0,0.0,0.0,0.0,0.0,0.0,0.0,0.0,0.0,0.0,0.0,0.0,0.0,0.0,0.0,0.0,0.0,0.0,0.0,0.0,0.0,0.0,0.0,0.0,0.0,0.0,0.0,0.0,0.0,0.0,0.0,0.0,0.0,0.0,0.0,0.0,0.0,0.0,0.0,0.0,0.0,0.0,0.0,0.0,0.0,0.0,0.0,0.0,0.0,0.0,0.0,0.0,0.0,0.0,0.0,0.0,0.0,0.0,0.0,0.0,0.0,0.0,0.0,0.0,0.0,0.0,0.0,0.0,0.0,0.0,0.0,0.0,0.0,0.0,0.0,0.0,0.0,0.0,0.0,0.0,0.0,0.0,0.0,0.0,0.0,0.0,0.0,0.0,0.0,0.0,0.0,0.0,0.0,0.0,0.0,0.0,0.0,0.0,0.0,0.0,0.0,0.0,0.0,0.0,0.0,0.0,0.0,0.0,0.0,0.0,0.0,0.0,0.0,0.0,0.0,0.0,0.0,0.0,0.0,0.0,0.0,0.0,0.0,0.0,0.0,0.0,0.0,0.0,0.0,0.0,0.0,0.0,0.0,0.0,0.0,0.0,0.0,0.0,0.0,0.0,0.0,0.0,0.0,0.0,0.0,0.0,0.0,0.0,0.0,0.0,0.0,0.0,0.0,0.0,0.0,0.0,0.0,0.0,0.0,0.0,0.0,0.0,0.0,0.0,0.0,0.0,0.0,0.0,0.0,0.0,0.0,0.0,0.0,0.0,0.0,0.0,0.0,0.0,0.0,0.0,0.0,0.0,0.0,0.0,0.0,0.0,0.0,0.0,0.0,0.0,0.0,0.0,0.0,0.0,0.0,0.0,0.0,0.0,0.0,0.0,0.0,0.0,0.0,0.0,0.0,0.0,0.0,0.0,0.0,0.0,0.0,0.0,0.0,0.0,0.0,0.0,0.0,0.0,0.0,0.0,0.0,0.0,0.0,0.0,0.0,0.0,0.0,0.0,0.0,0.0,0.0,0.0,0.0,0.0,0.0,0.0,0.0,0.0,0.0,0.0,0.0,0.0,0.0,0.0,0.0,0.0,0.0,0.0,0.0,0.0,0.0,0.0,0.0,0.0,0.0,0.0,0.0,0.0,0.0,0.0,0.0,0.0,0.0,0.0,0.0,0.0,0.0,0.0,0.0,0.0,0.0,0.0,0.0,0.0,0.0,0.0,0.0,0.0,0.0,0.0,0.0,0.0,0.0,0.0,0.0,0.0,0.0,0.0,0.0,0.0,0.0,0.0,0.0,0.0,0.0,0.0,0.0,0.0,0.0,0.0,0.0,0.0,0.0,0.0,0.0,0.0,0.0,0.0,0.0,0.0,0.0,0.0,0.0,0.0,0.0,0.0,0.0,0.0,0.0,0.0,0.0,0.0,0.0,0.0,0.0,0.0,0.0,0.0,0.0,0.0,0.0,0.0,0.0,0.0,0.0,0.0,0.0,0.0,0.0,0.0,0.0,0.0,0.0,0.0,0.0,0.0,0.0,0.0,0.0,0.0,0.0,0.0,0.0,0.0,0.0,0.0,0.0,0.0,0.0,0.0,0.0,0.0,0.0,0.0,0.0,0.0,0.0,0.0,0.0,0.0,0.0,0.0,0.0,0.0,0.0,0.0,0.0,0.0,0.0,0.0,0.0,0.0,0.0,0.0,0.0,0.0,0.0,0.0,0.0,0.0,0.0,0.0,0.0,0.0,0.0,0.0,0.0,0.0,0.0,0.0,0.0,0.0,0.0,0.0,0.0,0.0,0.0,0.0,0.0,0.0,0.0,0.0,0.0,0.0,0.0,0.0,0.0,0.0,0.0,0.0,0.0,0.0,0.0,0.0,0.0,0.0,0.0,0.0,0.0,0.0,0.0,0.0,0.0,0.0,0.0,0.0,0.0,0.0,0.0,0.0,0.0,0.0,0.0,0.0,0.0,0.0,0.0,0.0,0.0,0.0,0.0,0.0,0.0,0.0,0.0,0.0,0.0,0.0,0.0,0.0,0.0,0.0,0.0,0.0,0.0,0.0,0.0,0.0,0.0,0.0,0.0,0.0,0.0,0.0,0.0,0.0,0.0,0.0,0.0,0.0,0.0,0.0,0.0,0.0,0.0,0.0,0.0,0.0,0.0,0.0,0.0,0.0,0.0,0.0,0.0,0.0,0.0,0.0,0.0,0.0,0.0,0.0,0.0,0.0,0.0,0.0,0.0,0.0,0.0,0.0,0.0,0.0,0.0,0.0,0.0,0.0,0.0,0.0,0.0,0.0,0.0,0.0,0.0,0.0,0.0,0.0,0.0,0.0,0.0,0.0,0.0,0.0,0.0,0.0,0.0,0.0,0.0,0.0,0.0,0.0,0.0,0.0,0.0,0.0,0.0,0.0,0.0,0.0,0.0,0.0,0.0,0.0,0.0,0.0,0.0,0.0,0.0,0.0,0.0,0.0,0.0,0.0,0.0,0.0,0.0,0.0,0.0,0.0,0.0,0.0,0.0,0.0,0.0,0.0,0.0,0.0,0.0,0.0,-0.214,0.0,0.0,0.0,0.0,0.0,0.0,0.0,0.0,0.0,0.0,0.0,0.0,0.0,0.0,0.0,0.0,0.0,0.0,0.0,0.0,0.0,0.0,0.0,0.0,0.0,0.0,0.0,0.0,0.0,0.0,0.0,0.0,0.0,0.0,0.0,0.0,0.0,0.0,0.0,0.0,0.0,0.0,0.0,0.0,0.0,0.0,0.0,0.0,0.0,0.0,0.0,0.0,0.0,0.0,0.0,0.0,0.0,0.0,0.0,0.0,0.0,0.0,0.0,0.0,0.0,0.0,0.0,0.0,0.0,0.0,0.0,0.0,0.0,0.0,0.0,0.0,0.0,0.0,0.0,0.0,0.0,0.0,0.0,0.0,0.0,0.0,0.0,0.0,0.0,0.0,0.0,0.0,0.0,0.0,0.0,0.0,0.0,0.0,0.0,0.0,0.0,0.0,0.0,0.0,0.0,0.0,0.0,0.0,0.0,0.0,-0.2404,-0.2179,-0.2691,-0.2683,-0.2088,0.0,0.0,0.0,0.0,0.0,0.0,0.0,0.0,0.0,0.0,0.0,0.0,0.0,0.0,0.0,0.0,0.0,0.0,0.0,0.0,0.0,0.0,0.0,0.0,0.0,0.0,0.0,0.0,0.0,0.0,0.0,0.0,0.0,0.0,0.0,0.0,0.0,0.0,0.0,0.0,0.0,0.0,0.0,0.0,0.0,0.0,0.0,0.0,0.0,0.0,0.0,0.0,0.0,0.0,0.0,0.0,0.0,0.0,0.0,0.0,0.0,0.0,0.0,0.0,0.0,0.0,0.0,0.0,0.0,0.0,0.0,0.0,0.0,0.0,0.0,0.0,0.0,0.0,0.0,0.0,0.0,0.0,0.0,0.0,0.0,0.0,0.0,0.0,0.0,0.0,0.0,0.0,0.0,0.0,0.0,0.0,0.0,0.0,0.0,0.0,0.0,0.0,0.0,0.0,0.0,0.0,0.0,0.0,0.0,0.0,0.0,0.0,-0.2668,-0.2641,-0.2128,0.0,0.0,0.0,0.0,0.0,0.0,0.0,0.0,0.0,0.0,0.0,0.0,0.0,0.0,0.0,0.0,0.0,0.0,0.0,0.0,0.0,0.0,0.0,0.0,0.0,0.0,0.0,0.0,0.0,0.0,0.0,0.0,0.0,0.0,0.0,0.0,0.0,0.0,0.0,0.0,0.0,0.0,0.0,0.0,0.0,0.0,0.0,0.0,0.0,0.0,0.0,0.0,0.0,0.0,0.0,0.0,0.0,0.0,0.0,0.0,0.0,0.0,0.0,0.0,0.0,0.0,0.0,0.0,0.0,0.0,0.0,0.0,0.0,0.0,0.0,0.0,0.0,0.0,0.0,0.0,0.0,0.0,0.0,0.0,0.0,0.0,0.0,0.0,0.0,0.0,0.0,0.0,0.0,0.0,0.0,0.0,0.0,0.0,0.0,0.0,0.0,0.0,0.0,0.0,0.0,0.0,0.0,0.0,0.0,0.0,-0.2346,-0.2684,-0.2616,0.0,-0.2389,0.0,0.0,0.0,0.0,0.0,0.0,0.0,0.0,0.0,0.0,0.0,0.0,0.0,0.0,0.0,0.0,0.0,0.0,0.0,0.0,0.0,0.0,0.0,0.0,0.0,0.0,0.0,0.0,0.0,0.0,0.0,0.0,0.0,0.0,0.0,0.0,0.0,0.0,0.0,0.0,0.0,0.0,0.0,0.0,0.0,0.0,0.0,0.0,0.0,0.0,0.0,0.0,0.0,0.0,0.0,0.0,0.0,0.0,0.0,0.0,0.0,0.0,0.0,0.0,0.0,0.0,0.0,0.0,0.0,0.0,0.0,0.0,0.0,0.0,0.0,0.0,0.0,0.0,0.0,0.0,0.0,0.0,0.0,0.0,0.0,0.0,0.0,0.0,0.0,0.0,0.0,0.0,0.0,0.0,0.0,0.0,0.0,0.0,0.0,0.0,0.0,0.0,0.0,0.0,0.0,0.0,0.0,0.0,0.0,0.0,0.0,-0.2633,-0.2554,-0.2406,0.0,0.0,0.0,0.0,0.0,0.0,0.0,0.0,0.0,0.0,0.0,0.0,0.0,0.0,0.0,0.0,0.0,0.0,0.0,0.0,0.0,0.0,0.0,0.0,0.0,0.0,0.0,0.0,0.0,0.0,0.0,0.0,0.0,0.0,0.0,0.0,0.0,0.0,0.0,0.0,0.0,0.0,0.0,0.0,0.0,0.0,0.0,0.0,0.0,0.0,0.0,0.0,0.0,0.0,0.0,0.0,0.0,0.0,0.0,0.0,0.0,0.0,0.0,0.0,0.0,0.0,0.0,0.0,0.0,0.0,0.0,0.0,0.0,0.0,0.0,0.0,0.0,0.0,0.0,0.0,0.0,0.0,0.0,0.0,0.0,0.0,0.0,0.0,0.0,0.0,0.0,0.0,0.0,0.0,0.0,0.0,0.0,0.0,0.0,0.0,0.0,0.0,0.0,0.0,0.0,0.0,0.0,0.0,0.0,0.0,-0.2487,0.0,-0.2659,-0.2515,-0.2305,-0.2168,0.0,0.0,0.0,0.0,0.0,0.0,0.0,0.0,0.0,0.0,0.0,0.0,0.0,0.0,0.0,0.0,0.0,0.0,0.0,0.0,0.0,0.0,0.0,0.0,0.0,0.0,0.0,0.0,0.0,0.0,0.0,0.0,0.0,0.0,0.0,0.0,0.0,0.0,0.0,0.0,0.0,0.0,0.0,0.0,0.0,0.0,0.0,0.0,0.0,0.0,0.0,0.0,0.0,0.0,0.0,0.0,0.0,0.0,0.0,0.0,0.0,0.0,0.0,0.0,0.0,0.0,0.0,0.0,0.0,0.0,0.0,0.0,0.0,0.0,0.0,0.0,0.0,0.0,0.0,0.0,0.0,0.0,0.0,0.0,0.0,0.0,0.0,0.0,0.0,0.0,0.0,0.0,0.0,0.0,0.0,0.0,0.0,0.0,0.0,0.0,0.0,0.0,0.0,0.0,0.0,0.0,0.0,0.0,0.0,-0.2767,-0.2734,-0.2877,-0.2509,-0.2283,0.0,0.0,0.0,0.0,0.0,0.0,0.0,0.0,0.0,0.0,0.0,0.0,0.0,0.0,0.0,0.0,0.0,0.0,0.0,0.0,0.0,0.0,0.0,0.0,0.0,0.0,0.0,0.0,0.0,0.0,0.0,0.0,0.0,0.0,0.0,0.0,0.0,0.0,0.0,0.0,0.0,0.0,0.0,0.0,0.0,0.0,0.0,0.0,0.0,0.0,0.0,0.0,0.0,0.0,0.0,0.0,0.0,0.0,0.0,0.0,0.0,0.0,0.0,0.0,0.0,0.0,0.0,0.0,0.0,0.0,0.0,0.0,0.0,0.0,0.0,0.0,0.0,0.0,0.0,0.0,0.0,0.0,0.0,0.0,0.0,0.0,0.0,0.0,0.0,0.0,0.0,0.0,0.0,0.0,0.0,0.0,0.0,0.0,0.0,0.0,0.0,0.0,0.0,0.0,0.0,0.0,0.0,0.0,0.0,-0.2423,-0.2627,-0.2798,-0.2853,-0.2603,-0.2671,0.0,0.0,0.0,0.0,0.0,0.0,0.0,0.0,0.0,0.0,0.0,0.0,0.0,0.0,0.0,0.0,0.0,0.0,0.0,0.0,0.0,0.0,0.0,0.0,0.0,0.0,0.0,0.0,0.0,0.0,0.0,0.0,0.0,0.0,0.0,0.0,0.0,0.0,0.0,0.0,0.0,0.0,0.0,0.0,0.0,0.0,0.0,0.0,0.0,0.0,0.0,0.0,0.0,0.0,0.0,0.0,0.0,0.0,0.0,0.0,0.0,0.0,0.0,0.0,0.0,0.0,0.0,0.0,0.0,0.0,0.0,0.0,0.0,0.0,0.0,0.0,0.0,0.0,0.0,0.0,0.0,0.0,0.0,0.0,0.0,0.0,0.0,0.0,0.0,0.0,0.0,0.0,0.0,0.0,0.0,0.0,0.0,0.0,0.0,0.0,0.0,0.0,0.0,0.0,0.0,0.0,0.0,0.0,0.0,-0.2314,0.0,-0.2999,0.0,-0.2853,-0.3019,0.0,0.0,0.0,0.0,0.0,0.0,0.0,0.0,0.0,0.0,0.0,0.0,0.0,0.0,0.0,0.0,0.0,0.0,0.0,0.0,0.0,0.0,0.0,0.0,0.0,0.0,0.0,0.0,0.0,0.0,0.0,0.0,0.0,0.0,0.0,0.0,0.0,0.0,0.0,0.0,0.0,0.0,0.0,0.0,0.0,0.0,0.0,0.0,0.0,0.0,0.0,0.0,0.0,0.0,0.0,0.0,0.0,0.0,0.0,0.0,0.0,0.0,0.0,0.0,0.0,0.0,0.0,0.0,0.0,0.0,0.0,0.0,0.0,0.0,0.0,0.0,0.0,0.0,0.0,0.0,0.0,0.0,0.0,0.0,0.0,0.0,0.0,0.0,0.0,0.0,0.0,0.0,0.0,0.0,0.0,0.0,0.0,0.0,0.0,0.0,0.0,0.0,0.0,0.0,0.0,0.0,0.0,0.0,-0.2187,-0.2643,-0.3161,-0.325,-0.3094,-0.3281,-0.3247,0.0,0.0,0.0,0.0,0.0,0.0,0.0,0.0,0.0,0.0,0.0,0.0,0.0,0.0,0.0,0.0,0.0,0.0,0.0,0.0,0.0,0.0,0.0,0.0,0.0,0.0,0.0,0.0,0.0,0.0,0.0,0.0,0.0,0.0,0.0,0.0,0.0,0.0,0.0,0.0,0.0,0.0,0.0,0.0,0.0,0.0,0.0,0.0,0.0,0.0,0.0,0.0,0.0,0.0,0.0,0.0,0.0,0.0,0.0,0.0,0.0,0.0,0.0,0.0,0.0,0.0,0.0,0.0,0.0,0.0,0.0,0.0,0.0,0.0,0.0,0.0,0.0,0.0,0.0,0.0,0.0,0.0,0.0,0.0,0.0,0.0,0.0,0.0,0.0,0.0,0.0,0.0,0.0,0.0,0.0,0.0,0.0,0.0,0.0,0.0,0.0,0.0,0.0,0.0,0.0,0.0,0.0,0.0,0.0,-0.265,-0.3061,-0.3248,-0.332,-0.3438,-0.3668,0.0,0.0,0.0,0.0,0.0,0.0,0.0,0.0,0.0,0.0,0.0,0.0,0.0,0.0,0.0,0.0,0.0,0.0,0.0,0.0,0.0,0.0,0.0,0.0,0.0,0.0,0.0,0.0,0.0,0.0,0.0,0.0,0.0,0.0,0.0,0.0,0.0,0.0,0.0,0.0,0.0,0.0,0.0,0.0,0.0,0.0,0.0,0.0,0.0,0.0,0.0,0.0,0.0,0.0,0.0,0.0,0.0,0.0,0.0,0.0,0.0,0.0,0.0,0.0,0.0,0.0,0.0,0.0,0.0,0.0,0.0,0.0,0.0,0.0,0.0,0.0,0.0,0.0,0.0,0.0,0.0,0.0,0.0,0.0,0.0,0.0,0.0,0.0,0.0,0.0,0.0,0.0,0.0,0.0,0.0,0.0,0.0,0.0,0.0,0.0,0.0,0.0,0.0,0.0,0.0,0.0,0.0,0.0,0.0,-0.2808,-0.3169,-0.3458,-0.3479,-0.3825,-0.4167,-0.4478,0.0,0.0,0.0,0.0,0.0,0.0,0.0,0.0,0.0,0.0,0.0,0.0,0.0,0.0,0.0,0.0,0.0,0.0,0.0,0.0,0.0,0.0,0.0,0.0,0.0,0.0,0.0,0.0,0.0,0.0,0.0,0.0,0.0,0.0,0.0,0.0,0.0,0.0,0.0,0.0,0.0,0.0,0.0,0.0,0.0,0.0,0.0,0.0,0.0,0.0,0.0,0.0,0.0,0.0,0.0,0.0,0.0,0.0,0.0,0.0,0.0,0.0,0.0,0.0,0.0,0.0,0.0,0.0,0.0,0.0,0.0,0.0,0.0,0.0,0.0,0.0,0.0,0.0,0.0,0.0,0.0,0.0,0.0,0.0,0.0,0.0,0.0,0.0,0.0,0.0,0.0,0.0,0.0,0.0,0.0,0.0,0.0,0.0,0.0,0.0,0.0,0.0,0.0,0.0,0.0,0.0,0.0,0.0,-0.3089,-0.3547,-0.3716,-0.3636,-0.4377,-0.4689,0.0,0.0,0.0,0.0,0.0,0.0,0.0,0.0,0.0,0.0,0.0,0.0,0.0,0.0,0.0,0.0,0.0,0.0,0.0,0.0,0.0,0.0,0.0,0.0,0.0,0.0,0.0,0.0,0.0,0.0,0.0,0.0,0.0,0.0,0.0,0.0,0.0,0.0,0.0,0.0,0.0,0.0,0.0,0.0,0.0,0.0,0.0,0.0,0.0,0.0,0.0,0.0,0.0,0.0,0.0,0.0,0.0,0.0,0.0,0.0,0.0,0.0,0.0,0.0,0.0,0.0,0.0,0.0,0.0,0.0,0.0,0.0,0.0,0.0,0.0,0.0,0.0,0.0,0.0,0.0,0.0,0.0,0.0,0.0,0.0,0.0,0.0,0.0,0.0,0.0,0.0,0.0,0.0,0.0,0.0,0.0,0.0,0.0,0.0,0.0,0.0,0.0,0.0,0.0,0.0,0.0,0.0,0.0,0.0,-0.3175,-0.3519,-0.3683,-0.372,-0.4421,-0.4736,0.0,0.0,0.0,0.0,0.0,0.0,0.0,0.0,0.0,0.0,0.0,0.0,0.0,0.0,0.0,0.0,0.0,0.0,0.0,0.0,0.0,0.0,0.0,0.0,0.0,0.0,0.0,0.0,0.0,0.0,0.0,0.0,0.0,0.0,0.0,0.0,0.0,0.0,0.0,0.0,0.0,0.0,0.0,0.0,0.0,0.0,0.0,0.0,0.0,0.0,0.0,0.0,0.0,0.0,0.0,0.0,0.0,0.0,0.0,0.0,0.0,0.0,0.0,0.0,0.0,0.0,0.0,0.0,0.0,0.0,0.0,0.0,0.0,0.0,0.0,0.0,0.0,0.0,0.0,0.0,0.0,0.0,0.0,0.0,0.0,0.0,0.0,0.0,0.0,0.0,0.0,0.0,0.0,0.0,0.0,0.0,0.0,0.0,0.0,0.0,0.0,0.0,0.0,0.0,0.0,0.0,0.0,0.0,-0.3154,-0.3713,-0.3991,-0.4243,-0.4304,-0.4848,-0.5052,0.0,0.0,0.0,0.0,0.0,0.0,0.0,0.0,0.0,0.0,0.0,0.0,0.0,0.0,0.0,0.0,0.0,0.0,0.0,0.0,0.0,0.0,0.0,0.0,0.0,0.0,0.0,0.0,0.0,0.0,0.0,0.0,0.0,0.0,0.0,0.0,0.0,0.0,0.0,0.0,0.0,0.0,0.0,0.0,0.0,0.0,0.0,0.0,0.0,0.0,0.0,0.0,0.0,0.0,0.0,0.0,0.0,0.0,0.0,0.0,0.0,0.0,0.0,0.0,0.0,0.0,0.0,0.0,0.0,0.0,0.0,0.0,0.0,0.0,0.0,0.0,0.0,0.0,0.0,0.0,0.0,0.0,0.0,0.0,0.0,0.0,0.0,0.0,0.0,0.0,0.0,0.0,0.0,0.0,0.0,0.0,0.0,0.0,0.0,0.0,0.0,0.0,0.0,0.0,0.0,0.0,0.0,0.0,-0.3425,-0.4307,-0.4725,-0.4985,-0.5057,-0.5424,-0.5517,0.0,0.0,0.0,0.0,0.0,0.0,0.0,0.0,0.0,0.0,0.0,0.0,0.0,0.0,0.0,0.0,0.0,0.0,0.0,0.0,0.0,0.0,0.0,0.0,0.0,0.0,0.0,0.0,0.0,0.0,0.0,0.0,0.0,0.0,0.0,0.0,0.0,0.0,0.0,0.0,0.0,0.0,0.0,0.0,0.0,0.0,0.0,0.0,0.0,0.0,0.0,0.0,0.0,0.0,0.0,0.0,0.0,0.0,0.0,0.0,0.0,0.0,0.0,0.0,0.0,0.0,0.0,0.0,0.0,0.0,0.0,0.0,0.0,0.0,0.0,0.0,0.0,0.0,0.0,0.0,0.0,0.0,0.0,0.0,0.0,0.0,0.0,0.0,0.0,0.0,0.0,0.0,0.0,0.0,0.0,0.0,0.0,0.0,0.0,0.0,0.0,0.0,0.0,0.0,0.0,0.0,0.0,0.0,-0.331,-0.397,-0.461,-0.5011,-0.5165,-0.5964,-0.6121,0.0,0.0,0.0,0.0,0.0,0.0,0.0,0.0,0.0,0.0,0.0,0.0,0.0,0.0,0.0,0.0,0.0,0.0,0.0,0.0,0.0,0.0,0.0,0.0,0.0,0.0,0.0,0.0,0.0,0.0,0.0,0.0,0.0,0.0,0.0,0.0,0.0,0.0,0.0,0.0,0.0,0.0,0.0,0.0,0.0,0.0,0.0,0.0,-1.9533,0.0,0.0,0.0,0.0,0.0,0.0,0.0,0.0,0.0,0.0,0.0,0.0,0.0,0.0,0.0,0.0,0.0,0.0,0.0,0.0,0.0,0.0,0.0,0.0,0.0,0.0,0.0,0.0,0.0,0.0,0.0,0.0,0.0,0.0,0.0,0.0,0.0,0.0,0.0,0.0,0.0,0.0,0.0,0.0,0.0,0.0,0.0,0.0,0.0,0.0,0.0,0.0,0.0,0.0,0.0,0.0,0.0,0.0,0.0,-0.3467,-0.4227,-0.4972,-0.542,-0.5569,-0.6599,-0.698,0.0,0.0,0.0,0.0,0.0,0.0,0.0,0.0,0.0,0.0,0.0,0.0,0.0,0.0,0.0,0.0,0.0,0.0,0.0,0.0,0.0,0.0,0.0,0.0,0.0,0.0,0.0,0.0,0.0,0.0,0.0,0.0,0.0,0.0,0.0,0.0,0.0,0.0,0.0,0.0,0.0,0.0,0.0,0.0,0.0,0.0,0.0,0.0,0.0,0.0,0.0,0.0,0.0,0.0,0.0,0.0,0.0,0.0,0.0,0.0,0.0,0.0,0.0,0.0,0.0,0.0,0.0,0.0,0.0,0.0,0.0,0.0,0.0,0.0,0.0,0.0,0.0,0.0,0.0,0.0,0.0,0.0,0.0,0.0,0.0,0.0,0.0,0.0,0.0,0.0,0.0,0.0,0.0,0.0,0.0,0.0,0.0,0.0,0.0,0.0,0.0,0.0,0.0,0.0,0.0,0.0,0.0,-0.3225,-0.3889,-0.4819,-0.5641,-0.6081,-0.6134,-0.7232,-0.774,-0.7586,0.0,0.0,0.0,0.0,0.0,0.0,0.0,0.0,0.0,0.0,0.0,0.0,0.0,0.0,0.0,0.0,0.0,0.0,0.0,0.0,0.0,0.0,0.0,0.0,0.0,0.0,0.0,0.0,0.0,0.0,0.0,0.0,0.0,0.0,0.0,0.0,0.0,0.0,-1.2316,-1.5141,0.0,0.0,0.0,0.0,0.0,0.0,0.0,0.0,-2.3997,0.0,0.0,0.0,0.0,0.0,0.0,0.0,0.0,0.0,0.0,0.0,0.0,0.0,0.0,0.0,0.0,0.0,0.0,0.0,0.0,0.0,0.0,0.0,0.0,0.0,0.0,0.0,0.0,0.0,0.0,0.0,0.0,0.0,0.0,0.0,0.0,0.0,0.0,0.0,0.0,0.0,0.0,0.0,0.0,0.0,0.0,0.0,0.0,0.0,0.0,0.0,0.0,0.0,0.0,0.0,0.0,-0.3911,-0.4448,-0.5101,-0.5935,-0.6611,-0.6988,-0.6993,-0.7788,-0.8233,-0.8234,0.0,0.0,0.0,0.0,0.0,0.0,0.0,0.0,0.0,0.0,0.0,0.0,0.0,0.0,0.0,0.0,0.0,0.0,0.0,0.0,0.0,0.0,0.0,0.0,0.0,0.0,0.0,0.0,0.0,0.0,0.0,0.0,0.0,0.0,0.0,0.0,0.0,0.0,0.0,-1.7062,-1.8935,0.0,0.0,0.0,0.0,0.0,0.0,0.0,0.0,-2.6676,0.0,0.0,0.0,0.0,0.0,0.0,0.0,0.0,0.0,0.0,0.0,0.0,0.0,0.0,0.0,0.0,0.0,0.0,0.0,0.0,0.0,0.0,0.0,0.0,0.0,0.0,0.0,0.0,0.0,0.0,0.0,0.0,0.0,0.0,0.0,0.0,0.0,0.0,0.0,0.0,0.0,0.0,0.0,0.0,0.0,0.0,0.0,0.0,0.0,0.0,0.0,0.0,0.0,0.0,0.0,-0.3477,-0.4441,-0.5176,-0.5588,-0.6574,-0.7033,-0.7091,-0.767,-0.8043,0.0,0.0,0.0,0.0,0.0,0.0,0.0,0.0,0.0,0.0,0.0,0.0,0.0,0.0,0.0,0.0,0.0,0.0,0.0,0.0,0.0,0.0,0.0,0.0,0.0,0.0,0.0,0.0,0.0,0.0,0.0,0.0,0.0,0.0,0.0,0.0,0.0,0.0,0.0,0.0,-1.8413,-2.009,-2.1773,0.0,0.0,0.0,0.0,0.0,0.0,-2.6891,-2.7731,0.0,0.0,0.0,0.0,0.0,0.0,0.0,0.0,0.0,0.0,0.0,0.0,0.0,0.0,0.0,0.0,0.0,0.0,0.0,0.0,0.0,0.0,0.0,0.0,0.0,0.0,0.0,0.0,0.0,0.0,0.0,0.0,0.0,0.0,0.0,0.0,0.0,0.0,0.0,0.0,0.0,0.0,0.0,0.0,0.0,0.0,0.0,0.0,0.0,0.0,0.0,0.0,0.0,0.0,0.0,-0.3092,-0.4326,-0.5058,-0.5222,-0.6361,-0.6915,-0.6834,-0.7327,-0.7734,0.0,0.0,0.0,0.0,0.0,0.0,0.0,0.0,0.0,0.0,0.0,0.0,0.0,0.0,0.0,0.0,0.0,0.0,0.0,0.0,0.0,0.0,0.0,0.0,0.0,0.0,0.0,0.0,0.0,0.0,0.0,0.0,0.0,0.0,0.0,0.0,0.0,0.0,0.0,0.0,0.0,-2.1482,-2.3307,-2.4005,0.0,0.0,0.0,0.0,-2.7158,-2.819,0.0,0.0,0.0,0.0,0.0,0.0,0.0,0.0,0.0,0.0,0.0,0.0,0.0,0.0,0.0,0.0,0.0,0.0,0.0,0.0,0.0,0.0,0.0,0.0,0.0,0.0,0.0,0.0,0.0,0.0,0.0,0.0,0.0,0.0,0.0,0.0,0.0,0.0,0.0,0.0,0.0,0.0,0.0,0.0,0.0,0.0,0.0,0.0,0.0,0.0,0.0,0.0,0.0,0.0,0.0,0.0,-0.3882,-0.4812,-0.5535,-0.5985,-0.6606,-0.6863,-0.6747,-0.7058,-0.7511,0.0,0.0,0.0,0.0,0.0,0.0,0.0,0.0,0.0,0.0,0.0,0.0,0.0,0.0,0.0,0.0,0.0,0.0,0.0,0.0,0.0,0.0,0.0,0.0,0.0,0.0,0.0,0.0,0.0,0.0,0.0,0.0,0.0,0.0,0.0,0.0,0.0,0.0,0.0,0.0,0.0,-2.3405,-2.4722,-2.5114,-2.5751,0.0,0.0,-2.8665,-2.9259,-3.1009,0.0,0.0,0.0,0.0,0.0,0.0,0.0,0.0,0.0,0.0,0.0,0.0,0.0,0.0,0.0,0.0,0.0,0.0,0.0,0.0,0.0,0.0,0.0,0.0,0.0,0.0,0.0,0.0,0.0,0.0,0.0,0.0,0.0,0.0,0.0,0.0,0.0,0.0,0.0,0.0,0.0,0.0,0.0,0.0,0.0,0.0,0.0,0.0,0.0,0.0,0.0,0.0,0.0,0.0,0.0,-0.3079,-0.336,-0.4581,-0.5259,-0.5408,-0.6345,-0.6822,-0.6705,-0.7003,-0.7491,0.0,0.0,0.0,0.0,0.0,0.0,0.0,0.0,0.0,0.0,0.0,0.0,0.0,0.0,0.0,0.0,0.0,0.0,0.0,0.0,0.0,0.0,0.0,0.0,0.0,0.0,0.0,0.0,0.0,0.0,0.0,0.0,0.0,0.0,0.0,0.0,0.0,0.0,0.0,0.0,0.0,0.0,-2.5881,-2.6719,0.0,0.0,0.0,-2.9527,-3.0111,0.0,0.0,0.0,0.0,0.0,0.0,0.0,0.0,0.0,0.0,0.0,0.0,0.0,0.0,0.0,0.0,0.0,0.0,0.0,0.0,0.0,0.0,0.0,0.0,0.0,0.0,0.0,0.0,0.0,0.0,0.0,0.0,0.0,0.0,0.0,0.0,0.0,0.0,0.0,0.0,0.0,0.0,0.0,0.0,0.0,0.0,0.0,0.0,0.0,0.0,0.0,0.0,0.0,0.0,0.0,0.0,0.0,-0.2827,-0.407,-0.4675,-0.4707,-0.56,-0.6224,-0.6543,-0.6823,0.0,0.0,0.0,0.0,0.0,0.0,0.0,0.0,0.0,0.0,0.0,0.0,0.0,0.0,0.0,0.0,0.0,0.0,0.0,0.0,0.0,0.0,0.0,0.0,0.0,0.0,0.0,-1.1987,0.0,0.0,0.0,0.0,0.0,0.0,0.0,0.0,0.0,0.0,0.0,0.0,0.0,0.0,-2.5227,-2.7395,-2.8494,-2.9502,0.0,0.0,-3.0676,-3.1545,-3.234,-3.2808,0.0,0.0,0.0,0.0,0.0,0.0,0.0,0.0,0.0,0.0,0.0,0.0,0.0,0.0,0.0,0.0,0.0,0.0,0.0,0.0,0.0,0.0,0.0,0.0,0.0,0.0,0.0,0.0,0.0,0.0,0.0,0.0,0.0,0.0,0.0,0.0,0.0,0.0,0.0,0.0,0.0,0.0,0.0,0.0,0.0,0.0,0.0,0.0,0.0,0.0,0.0,0.0,0.0,0.0,0.0,-0.2829,-0.3501,-0.3975,-0.4087,-0.4043,-0.4685,-0.6098,-0.6365,-0.7272,0.0,0.0,0.0,0.0,0.0,0.0,0.0,0.0,0.0,0.0,0.0,0.0,0.0,0.0,0.0,0.0,0.0,0.0,0.0,0.0,0.0,0.0,0.0,0.0,0.0,0.0,0.0,0.0,0.0,0.0,0.0,0.0,0.0,0.0,0.0,0.0,0.0,0.0,0.0,0.0,0.0,-2.8118,-2.9756,-3.0482,-3.1649,0.0,0.0,-3.2791,-3.4337,-3.4651,-3.4568,-3.4123,0.0,0.0,0.0,0.0,0.0,0.0,0.0,0.0,0.0,0.0,0.0,0.0,0.0,0.0,0.0,0.0,0.0,0.0,0.0,0.0,0.0,0.0,0.0,0.0,0.0,0.0,0.0,0.0,0.0,0.0,0.0,0.0,0.0,0.0,0.0,0.0,0.0,0.0,0.0,0.0,0.0,0.0,0.0,0.0,0.0,0.0,0.0,0.0,0.0,0.0,0.0,0.0,0.0,-0.1748,-0.2085,-0.3132,-0.3666,-0.3642,-0.4247,-0.495,-0.5752,-0.6297,-0.7225,0.0,0.0,0.0,0.0,0.0,0.0,0.0,0.0,0.0,0.0,0.0,0.0,0.0,0.0,0.0,0.0,0.0,0.0,0.0,0.0,0.0,0.0,0.0,0.0,0.0,0.0,0.0,0.0,-1.6355,-1.6741,-1.7283,0.0,0.0,0.0,0.0,0.0,0.0,0.0,0.0,0.0,0.0,-2.9736,-3.1974,-3.2779,0.0,0.0,-3.5291,-3.5218,-3.5198,-3.5699,-3.5825,-3.5052,-3.4734,0.0,0.0,0.0,0.0,0.0,0.0,0.0,0.0,0.0,0.0,0.0,0.0,0.0,0.0,0.0,0.0,0.0,0.0,0.0,0.0,0.0,0.0,0.0,0.0,0.0,0.0,0.0,0.0,0.0,0.0,0.0,0.0,0.0,0.0,0.0,0.0,0.0,0.0,0.0,0.0,0.0,0.0,0.0,0.0,0.0,0.0,0.0,0.0,0.0,0.0,0.0,0.0,-0.0742,-0.1361,-0.2102,-0.2819,-0.3499,-0.4359,-0.5187,-0.5873,-0.6479,-0.7474,0.0,0.0,0.0,0.0,0.0,0.0,0.0,0.0,0.0,0.0,0.0,0.0,0.0,0.0,0.0,0.0,0.0,0.0,0.0,0.0,0.0,0.0,0.0,0.0,0.0,0.0,0.0,0.0,-1.8947,-1.9253,-1.8768,0.0,0.0,0.0,0.0,0.0,0.0,0.0,0.0,0.0,0.0,-3.2039,-3.4289,-3.4995,-3.5726,-3.6859,-3.7064,-3.6933,-3.647,-3.699,-3.7246,-3.6577,0.0,0.0,0.0,0.0,0.0,0.0,0.0,0.0,0.0,0.0,0.0,0.0,0.0,0.0,0.0,0.0,0.0,0.0,0.0,0.0,0.0,0.0,0.0,0.0,0.0,0.0,0.0,0.0,0.0,0.0,0.7187,0.0,0.0,0.0,0.0,0.0,0.0,0.0,0.0,0.0,0.0,0.0,0.0,0.0,0.0,0.0,0.0,0.0,0.0,0.0,0.0,0.0,0.0,0.0408,-0.0767,-0.0359,-0.1308,-0.3632,-0.4148,-0.5093,-0.6588,-0.685,-0.8043,-1.0379,0.0,0.0,0.0,0.0,0.0,0.0,0.0,0.0,0.0,0.0,0.0,0.0,0.0,0.0,0.0,0.0,0.0,0.0,0.0,0.0,0.0,0.0,0.0,0.0,0.0,0.0,-1.9223,-2.0549,-2.108,0.0,0.0,0.0,0.0,0.0,0.0,0.0,0.0,0.0,0.0,-3.2838,-3.543,-3.6649,-3.7009,-3.7698,-3.9349,-3.826,-3.7589,-3.855,-3.8823,-3.8965,0.0,0.0,0.0,0.0,0.0,0.0,0.0,0.0,0.0,0.0,0.0,0.0,0.0,0.0,0.0,0.0,0.0,0.0,0.0,0.0,0.0,0.0,0.0,0.0,0.0,0.0,0.0,1.1647,1.1462,0.0,0.0,0.0,0.0,0.0,0.0,0.0,0.0,0.0,0.0,0.0,1.0474,1.1452,0.0,0.0,0.0,0.0,0.0,0.0,0.0,0.0,0.0,0.0,0.0,0.0,0.2296,0.1501,0.0569,-0.072,-0.2407,-0.3755,-0.514,-0.6654,-0.7632,-0.916,-1.1351,0.0,0.0,0.0,0.0,0.0,0.0,0.0,0.0,0.0,0.0,0.0,0.0,0.0,0.0,0.0,0.0,0.0,0.0,0.0,0.0,0.0,0.0,0.0,0.0,0.0,-2.1233,0.0,0.0,0.0,0.0,0.0,0.0,0.0,0.0,0.0,0.0,0.0,-3.1355,-3.3309,-3.501,-3.66,-3.7973,-3.8301,-3.8931,0.0,0.0,0.0,0.0,0.0,0.0,0.0,0.0,0.0,0.0,0.0,0.0,0.0,0.0,-4.1384,-3.92,-3.7604,-3.6783,-3.7416,0.0,0.0,0.0,0.0,0.0,0.0,0.0,0.0,0.0,0.0,0.0,0.0,0.0,0.0,1.4925,0.0,1.4346,0.0,0.0,0.0,0.0,0.0,0.0,0.0,0.0,1.271,1.3181,1.3413,1.4513,1.4537,0.0,1.2833,1.145,0.0,0.0,0.0,0.0,0.0,0.0,0.0,0.0,0.3762,0.3042,0.1927,0.0288,-0.1839,-0.4233,-0.5951,-0.6854,-0.8701,-1.0511,-1.231,-1.3305,-1.3962,0.0,0.0,0.0,0.0,0.0,0.0,0.0,0.0,0.0,0.0,0.0,0.0,0.0,0.0,0.0,0.0,0.0,0.0,0.0,0.0,0.0,0.0,0.0,-2.3526,0.0,0.0,0.0,0.0,0.0,0.0,0.0,0.0,0.0,-2.9741,-3.1867,-3.4129,-3.586,-3.6984,-3.7895,-3.8598,0.0,0.0,0.0,0.0,0.0,0.0,0.0,-4.0489,-4.0519,-4.0636,-4.1156,-4.253,-4.4067,-4.5045,-4.4829,0.0,0.0,-4.2351,-4.0764,-3.9939,-4.0471,-4.0671,-4.0972,-4.1505,-4.1698,-4.1741,0.0,0.0,0.0,0.0,0.0,0.0,0.0,0.0,1.7725,1.7262,0.0,1.7059,0.0,0.0,0.0,0.0,0.0,1.5072,0.0,0.0,1.6703,1.6716,1.6611,1.7629,1.8004,1.7658,1.6661,1.578,1.4892,1.0478,0.0,0.0,0.0,0.0,0.0,0.0,0.4801,0.3965,0.3551,0.1665,-0.1875,-0.545,-0.7325,-0.7437,-1.0036,-1.2054,-1.327,-1.3993,-1.507,-1.6604,-1.6379,0.0,0.0,0.0,0.0,0.0,0.0,0.0,0.0,0.0,0.0,0.0,0.0,0.0,0.0,0.0,0.0,0.0,0.0,0.0,0.0,-2.4762,0.0,0.0,0.0,0.0,0.0,0.0,0.0,0.0,0.0,0.0,-3.2073,-3.4537,-3.6817,-3.7378,0.0,0.0,0.0,0.0,-3.8663,-3.7959,-3.8646,-3.93,-3.9327,-4.1459,-4.3097,-4.3079,0.0,0.0,-4.4919,-4.5511,-4.5813,-4.5007,-4.5577,-4.5902,-4.4961,-4.4058,-4.3509,-4.3539,-4.3564,-4.3644,-4.3573,-4.3557,-4.3546,2.3753,0.0,0.0,0.0,0.0,1.9936,2.0329,2.1432,2.0765,2.0266,1.9935,1.966,0.0,0.0,0.0,0.0,0.0,0.0,1.8628,1.8569,1.847,1.903,2.0006,1.9709,1.9668,1.9878,1.8805,1.7891,1.713,1.529,1.2013,0.7423,0.0,0.0,0.0,0.0,0.5807,0.3675,0.3086,0.1491,-0.1298,-0.4233,-0.7167,-1.0053,-1.1996,-1.3462,-1.4308,-1.6004,-1.7126,-1.7496,-1.8329,0.0,0.0,0.0,0.0,0.0,0.0,0.0,0.0,0.0,0.0,0.0,0.0,0.0,0.0,0.0,0.0,0.0,0.0,0.0,-2.6209,-2.644,-2.7252,0.0,0.0,0.0,0.0,0.0,0.0,0.0,0.0,0.0,-3.6475,-3.7723,-3.879,0.0,0.0,-3.8915,-3.8803,-3.9018,-3.9326,-3.9706,-4.0089,0.0,0.0,-4.0923,-4.1072,-4.2285,-4.3967,-4.5087,-4.4845,-4.5567,-4.6085,-4.5833,-4.6015,-4.6109,-4.5798,-4.5584,-4.5427,-4.5484,-4.5457,-4.5367,-4.537,-4.5249,-4.5131,2.6663,2.4858,2.385,2.3537,2.3507,2.2853,2.3119,2.4043,2.3669,2.3347,2.3051,2.2844,2.2003,2.0721,2.003,0.0,0.0,0.0,2.1355,2.1606,2.1296,2.1752,2.2635,2.2325,2.2075,2.2031,2.088,2.0053,1.9437,1.8344,1.5569,1.1323,0.0,0.0,0.666,0.7663,0.7011,0.4649,0.3456,0.1564,-0.1102,-0.4619,-0.8158,-1.1439,-1.302,-1.4286,-1.5302,-1.7027,-1.8248,-1.8854,-1.959,-2.0048,0.0,0.0,0.0,0.0,0.0,0.0,0.0,0.0,0.0,0.0,0.0,-2.3353,-2.2257,0.0,0.0,0.0,-2.6819,-2.8227,-2.9251,-2.9258,0.0,0.0,0.0,0.0,0.0,0.0,0.0,-3.7459,-3.876,-3.9745,-4.0309,-4.0504,-4.0468,-4.0132,-3.9758,-3.9435,-3.9104,0.0,-3.9497,-3.9603,-4.0024,-4.0555,-4.1049,-4.0887,-4.1259,-4.2987,-4.4098,-4.4967,-4.5336,-4.5829,-4.6172,-4.6163,-4.6199,-4.6192,-4.6147,-4.6183,-4.6189,-4.6189,-4.6107,-4.6046,-4.5949,-4.5835,-4.5713,2.8904,2.8355,2.6865,2.6453,2.6654,2.5972,2.5918,2.6297,2.6176,2.6108,2.6108,2.6094,2.5579,2.4766,2.3676,0.0,2.377,2.3721,2.434,2.5287,2.4788,2.4662,2.4857,2.5108,2.4901,2.4134,2.2934,2.2223,2.1884,2.0198,1.838,1.6305,1.4287,1.2275,1.0233,0.9575,0.8354,0.6463,0.4447,0.1798,-0.1504,-0.6289,-0.9844,-1.2066,-1.3374,-1.4808,-1.6301,-1.739,-1.8761,-2.0442,-2.0489,-2.0962,-2.2159,0.0,0.0,0.0,0.0,0.0,0.0,0.0,0.0,0.0,0.0,0.0,0.0,0.0,0.0,0.0,-3.0932,0.0,-3.281,-3.2859,0.0,0.0,0.0,-3.4475,-3.5608,-3.7506,-3.9071,-4.0056,0.0,0.0,-4.3286,-4.261,-4.1786,-4.0857,-4.0712,-4.0364,-3.9442,-3.9529,-3.9345,-3.8507,-3.9156,-3.9825,-4.0116,-4.1187,-4.2662,-4.4257,-4.4848,-4.5165,-4.5836,-4.6149,-4.6163,-4.6123,-4.6144,-4.6189,-4.6169,-4.6176,-4.6127,-4.6027,-4.6008,-4.5917,-4.5756,-4.5634,-4.5574,2.9329,2.9037,2.8686,2.7966,2.7063,2.6611,2.6414,2.6457,2.6404,2.6336,2.6187,2.6336,2.6486,2.6579,2.6564,2.6636,2.6745,2.7246,2.7321,2.7164,2.685,2.6835,2.6967,2.6272,2.6097,2.6294,2.4749,2.4077,2.4218,2.3157,2.1545,1.9479,1.8163,1.5359,1.1199,1.1175,0.9942,0.7106,0.5842,0.1966,-0.4666,-0.7867,-1.0615,-1.2995,-1.4798,-1.6167,-1.7157,-1.865,-1.9927,-2.0935,-2.1806,-2.2469,-2.2985,-2.2239,0.0,0.0,0.0,0.0,0.0,0.0,0.0,0.0,0.0,-2.7695,-2.5288,0.0,-3.0671,0.0,-3.3371,-3.5097,-3.5267,-3.5524,0.0,0.0,-3.7324,-3.8035,-4.079,-4.1221,-4.1607,-4.2471,-4.3065,-4.3188,-4.2561,-4.2311,-4.1875,-4.1111,-4.0313,-3.974,-3.9546,-3.9618,-3.9615,-3.9461,-4.0111,-4.0741,-4.08,-4.1619,-4.2654,-4.3729,-4.4452,-4.498,-4.5182,-4.5773,-4.6172,-4.6115,-4.6122,-4.6114,-4.6066,-4.6037,-4.6026,-4.5949,-4.5886,-4.5854,-4.578,-4.5594,-4.5438,3.0107,2.9923,2.9805,2.9332,2.8575,2.7661,2.7414,2.762,2.7285,2.73,2.749,2.7685,2.7883,2.8161,2.8323,2.8403,2.8401,2.8746,2.8683,2.8386,2.8323,2.837,2.8418,2.7905,2.7585,2.759,2.6564,2.5869,2.5439,2.4802,2.3292,2.1039,1.9775,1.7367,1.387,1.2662,1.0548,0.7391,0.4352,0.014,-0.5209,-0.8511,-1.0822,-1.2286,-1.4713,-1.6048,-1.6148,-1.819,-1.9521,-1.9991,-2.1648,-2.279,-2.3142,-2.2932,-2.2798,0.0,0.0,0.0,0.0,0.0,0.0,0.0,0.0,0.0,0.0,0.0,-3.3884,-3.3765,-3.6441,-3.8101,-3.7898,-3.8439,-3.9311,-4.054,-4.043,-4.1059,-4.3034,-4.3344,-4.3622,-4.4032,-4.4134,-4.3965,-4.3456,-4.2713,-4.2125,-4.1724,-4.0798,-4.0195,-4.0248,-4.0292,-4.033,-4.0347,-4.0755,-4.1105,-4.1101,-4.1461,-4.2048,-4.2882,-4.3759,-4.4413,-4.4807,-4.5579,-4.6142,-4.6066,-4.6066,-4.6037,-4.6026,-4.5977,-4.5975,-4.5899,-4.5814,-4.5737,-4.5661,-4.5494,-4.536,3.1015,3.0902,3.0601,3.0559,3.0575,2.9006,2.8634,2.9088,2.8471,2.855,2.9166,2.9364,2.9409,2.9425,2.947,2.9409,2.9348,2.9303,2.9303,2.9303,2.9409,2.947,2.947,2.947,2.9074,2.8273,2.8143,2.7348,2.6042,2.5661,2.423,2.187,2.0292,1.8616,1.6589,1.3778,1.0627,0.7147,0.169,-0.2352,-0.4873,-0.863,-1.0781,-1.1263,-1.4046,-1.5369,-1.5004,-1.7227,-1.8602,-1.8791,-2.0961,-2.2628,-2.3381,-2.3582,-2.4074,0.0,-2.4678,0.0,0.0,0.0,0.0,0.0,0.0,0.0,0.0,-3.596,-3.73,-3.7504,-3.9644,-4.0829,-4.0424,-4.1273,-4.2207,-4.3125,-4.3364,-4.3532,-4.3825,-4.4529,-4.4974,-4.4904,-4.4868,-4.4772,-4.4406,-4.3226,-4.232,-4.2077,-4.1427,-4.093,-4.1058,-4.1049,-4.103,-4.1109,-4.1108,-4.1189,-4.1464,-4.142,-4.1618,-4.2412,-4.3158,-4.3824,-4.4481,-4.5304,-4.592,-4.5968,-4.6007,-4.6007,-4.5977,-4.5977,-4.5994,-4.5925,-4.5819,-4.5684,-4.5549,-4.54,-4.5317,3.1726,3.1581,3.1466,3.1555,3.1696,3.0571,2.9852,2.9409,2.9281,2.9342,2.9544,2.9924,3.0081,3.014,3.0342,3.0468,3.0551,3.0426,3.0384,3.0426,3.0426,3.0384,3.0258,2.9738,2.9425,2.9182,2.8301,2.7458,2.6707,2.6287,2.489,2.2604,2.1229,1.8934,1.5852,0.0,0.0,0.0,0.0891,-0.3081,-0.6384,-0.8834,-1.0948,-1.2624,-1.4488,0.0,-1.6731,-1.7966,-1.9113,-2.0016,-2.1287,0.0,0.0,0.0,0.0,0.0,0.0,0.0,0.0,0.0,0.0,0.0,-3.5265,-3.5279,-3.5742,-3.865,-4.0293,-3.9895,-4.2144,-4.316,-4.1948,-4.328,-4.4313,-4.452,-4.4552,-4.4872,-4.5561,-4.5232,-4.4901,-4.4878,-4.43,-4.3598,-4.2935,-4.2468,-4.2026,-4.1415,-4.1104,-4.1046,-4.1089,-4.1095,-4.1109,-4.1103,-4.11,-4.1627,-4.2916,-4.246,-4.229,-4.315,-4.3442,-4.3661,-4.3856,-4.4539,-4.5327,-4.5852,-4.5977,-4.5977,-4.5977,-4.5977,-4.5997,-4.5994,-4.5841,-4.5668,-4.5531,-4.538,-4.5277,3.2108,0.0,3.1965,3.2,0.0,3.1477,3.1001,3.0575,3.0225,3.0259,3.0616,3.073,3.0885,3.0971,3.0797,3.0797,3.0998,3.0716,3.0609,3.0609,3.0609,3.0468,3.0231,2.993,2.9621,2.9273,2.8463,2.768,2.6967,2.6187,2.4664,2.2372,2.106,1.8889,1.5898,1.2177,0.8253,0.4166,0.015,-0.3708,-0.7441,-0.9782,-1.1615,-1.3044,0.0,0.0,0.0,0.0,0.0,0.0,0.0,0.0,0.0,0.0,0.0,-3.0612,-3.0403,-3.1363,-3.4099,-3.45,-3.5544,-3.7826,-3.859,-3.878,-3.8373,-4.0822,-4.2283,-4.206,-4.3994,-4.4807,-4.3726,-4.4755,-4.5525,-4.5547,-4.5527,-4.5583,-4.5534,-4.5184,-4.4709,-4.42,-4.3455,-4.2766,-4.2354,-4.1906,-4.1505,-4.1071,-4.0986,-4.1064,-4.1085,-4.1065,-4.1059,-4.111,-4.1114,-4.1543,-4.2617,-4.2674,-4.2629,-4.3408,-4.3961,-4.418,-4.4151,-4.4812,-4.5551,-4.5929,-4.5977,-4.5977,-4.5977,-4.5977,-4.5986,-4.596,-4.5874,-4.5731,-4.5549,-4.54,-4.5277,3.2266,3.2161,3.2144,3.2126,3.2088,3.2037,3.193,3.1789,0.0,0.0,0.0,3.1487,3.1487,3.1657,3.11,3.0918,3.1044,3.074,3.0609,3.0568,3.0468,3.03,3.0017,2.9782,2.9454,2.8997,2.84,2.765,2.6834,2.5823,2.4173,2.2018,2.0643,1.8506,1.5418,1.0444,0.6288,0.3096,-0.0454,-0.4196,-0.8143,-1.0478,-1.2119,-1.3212,-1.5514,-1.6748,-1.688,-1.9422,-2.0932,-2.1173,-2.3611,-2.5802,-2.7545,-2.8688,-3.0224,-3.2247,-3.2669,-3.4017,-3.6737,-3.7056,-3.7999,-4.0101,-4.1171,-4.148,-4.0789,-4.2393,-4.3481,-4.3597,-4.5063,-4.5621,-4.4802,-4.5623,-4.6133,-4.6005,-4.5963,-4.5656,-4.5006,-4.4559,-4.4072,-4.3366,-4.2751,-4.2296,-4.228,-4.1883,-4.1463,-4.148,-4.161,-4.1459,-4.1468,-4.1292,-4.1046,-4.1084,-4.1115,-4.1437,-4.232,-4.2651,-4.2949,-4.3753,-4.4435,-4.483,-4.4909,-4.5336,-4.5783,-4.5958,-4.5977,-4.5977,-4.5977,-4.5977,-4.5994,-4.5944,-4.5906,-4.5833,-4.5616,-4.5477,-4.536,3.2002,3.1728,3.1949,3.202,3.2038,3.2301,3.2422,3.2335,3.1645,3.1534,3.1858,3.1654,3.1579,3.1617,3.1428,3.1252,3.1015,3.0975,3.0895,0.0,3.0493,3.0284,3.0103,2.9058,2.8559,2.8527,2.7715,2.6834,2.6026,2.5301,2.3826,2.1758,2.0448,1.7484,1.2819,0.8403,0.4787,0.2112,-0.0931,-0.4311,-0.8218,-0.9723,-1.1703,-1.3966,-1.5411,-1.6779,-1.8197,-2.0003,-2.1554,-2.2703,-2.4212,-2.6198,-2.8746,-2.9871,-3.1696,-3.4636,-3.5488,-3.6678,-3.8497,-3.8925,-3.9456,-4.0269,-4.0698,-4.1117,-4.1756,-4.2887,-4.3611,-4.3718,-4.4608,-4.4821,-4.4089,-4.5316,-4.5935,-4.5226,-4.5099,-4.5006,-4.4812,-4.3596,-4.2696,-4.2556,-4.2393,-4.2319,-4.2341,-4.2766,-4.3082,-4.3167,-4.2972,-4.3155,-4.2896,-4.2,-4.1201,-4.1096,-4.1109,-4.1784,-4.3099,-4.3455,-4.3792,-4.4573,-4.4786,-4.4934,-4.4919,-4.5045,-4.5375,-4.5899,-4.5997,-4.5977,-4.6007,-4.5977,-4.5997,-4.5994,-4.5949,-4.5874,-4.5805,-4.5696,-4.5547,3.2127,3.193,3.2056,3.2091,3.2003,3.2162,3.2231,3.2179,3.1765,3.1691,3.1858,3.1654,3.1617,3.1728,3.1368,3.1213,3.1252,3.1072,3.079,3.0526,3.0342,2.9984,2.9544,2.8732,2.8304,2.8222,2.6975,2.5969,2.5191,2.4076,2.2554,2.0681,1.8644,1.5573,1.1733,0.786,0.4358,0.1093,-0.233,-0.549,-0.8548,-1.076,-1.3006,-1.542,-1.7232,-1.867,-1.9805,-2.206,-2.3774,-2.4844,-2.6199,-2.8231,-3.11,-3.1883,-3.3419,-3.6022,-3.695,-3.7798,-3.8847,-3.947,-4.0001,-4.0432,-4.0612,-4.088,-4.1308,-4.2325,-4.2962,-4.3038,-4.416,-4.4618,-4.3817,-4.4825,-4.5362,-4.4963,-4.4493,-4.4202,-4.4124,-4.3514,-4.2741,-4.2391,-4.2674,-4.2956,-4.2908,-4.3285,-4.3564,-4.36,-4.3615,-4.3637,-4.3643,-4.3,-4.2454,-4.2455,-4.2502,-4.3034,-4.4147,-4.4396,-4.4727,-4.5481,-4.5572,-4.5571,-4.5559,-4.553,-4.5677,-4.6007,-4.6046,-4.6007,-4.6056,-4.6037,-4.6026,-4.6056,-4.6005,-4.5949,-4.5874,-4.5727,-4.5601,3.1878,3.1823,3.1787,3.1787,3.1823,3.186,3.186,3.1841,3.16,3.1524,3.1545,3.1487,3.1562,3.162,3.114,3.0998,3.1061,3.0838,3.0468,3.0087,3.0,2.9589,2.8966,2.8352,2.7913,2.7485,2.6076,2.4996,2.4182,2.2565,2.0825,1.8958,1.6533,1.4018,1.1376,0.7793,0.4257,0.0543,-0.3328,-0.6645,-0.9295,-1.1685,-1.4094,-1.6688,-1.8731,-2.0202,-2.125,-2.3807,-2.5605,-2.6427,-2.8026,-2.9956,-3.2247,-3.338,-3.468,-3.6344,-3.7488,-3.836,-3.8971,-3.9641,-4.0177,-4.0466,-4.0617,-4.072,-4.0856,-4.1571,-4.2167,-4.2507,-4.375,-4.427,-4.3671,-4.436,-4.4758,-4.4373,-4.3721,-4.3332,-4.3303,-4.3244,-4.2976,-4.2422,-4.3161,-4.3792,-4.3821,-4.3976,-4.4217,-4.4289,-4.4182,-4.4182,-4.4208,-4.42,-4.4192,-4.4133,-4.3958,-4.4002,-4.4815,-4.4957,-4.5302,-4.6059,-4.617,-4.6108,-4.6125,-4.6111,-4.6134,-4.6183,-4.6115,-4.6066,-4.6105,-4.627,-4.6358,-4.6464,-4.6638,-4.6663,-4.659,-4.6491,-4.6037,3.0666,3.0642,3.0584,3.0828,3.1317,3.1355,3.1355,3.1372,3.1334,3.1004,3.0543,3.124,3.1317,3.1033,3.1027,3.0666,3.0054,3.007,2.9941,2.9617,2.9364,2.8966,2.8465,2.76,2.6834,2.6105,2.4786,2.3683,2.2902,2.1014,1.8785,1.626,1.4822,1.3331,1.1376,0.7774,0.4334,0.1381,-0.3001,-0.7087,-1.0587,-1.1803,-1.3981,-1.7257,-1.8619,-2.0116,-2.1916,-2.4155,-2.5744,-2.6643,-2.8793,-3.0112,-3.0658,-3.3203,-3.4948,-3.5172,-3.7,-3.853,-3.9489,-3.9769,-4.0022,-4.0449,-4.0622,-4.072,-4.0796,-4.0956,-4.1448,-4.2284,-4.323,-4.3417,-4.2732,-4.394,-4.4218,-4.2953,-4.2604,-4.2429,-4.2532,-4.2352,-4.2295,-4.2315,-4.377,-4.4685,-4.4762,-4.5274,-4.5804,-4.5689,-4.563,-4.5636,-4.5675,-4.5726,-4.5759,-4.5622,-4.4817,-4.4273,-4.4861,-4.4974,-4.5408,-4.611,-4.6243,-4.6228,-4.6209,-4.6191,-4.6196,-4.6196,-4.6193,-4.6157,-4.6336,-4.6708,-4.7184,-4.7153,-4.757,-4.8227,-4.8231,-4.8042,-4.7429,3.0097,3.0081,3.0011,3.0182,3.0418,3.0625,3.0584,3.0435,3.0625,3.0377,2.9968,3.0335,3.0418,3.0218,3.0251,2.9935,2.9496,2.948,2.9164,2.8576,2.8401,2.8176,2.772,2.6553,2.5929,2.5535,2.3742,2.2445,2.1385,1.9336,1.694,1.4741,1.4114,1.2952,1.073,0.7347,0.4103,0.0921,-0.3381,-0.7534,-1.1027,-1.2517,-1.4538,-1.7375,-1.927,-2.0715,-2.2187,-2.4498,-2.605,-2.6709,-2.8837,-3.0256,-3.0721,-3.3363,-3.4956,-3.5244,-3.7194,-3.8711,-3.9402,-3.9731,-4.0042,-4.036,-4.0508,-4.0626,-4.0732,-4.0761,-4.0995,-4.1519,-4.2385,-4.2768,-4.25,-4.3042,-4.3147,-4.249,-4.2358,-4.2554,-4.3085,-4.3504,-4.3779,-4.387,-4.483,-4.5546,-4.5607,-4.5928,-4.6183,-4.6206,-4.6214,-4.6209,-4.6202,-4.6234,-4.6262,-4.6205,-4.5636,-4.5453,-4.5677,-4.5755,-4.5915,-4.617,-4.6289,-4.6267,-4.625,-4.623,-4.6205,-4.6237,-4.6284,-4.6292,-4.625,-4.6872,-4.7455,-4.7669,-4.8014,-4.8592,-4.856,-4.8542,-4.8062,2.9617,2.9572,2.9589,2.9617,2.975,2.9968,2.9924,2.9766,2.9968,2.9837,2.9499,2.9528,2.9422,2.9316,2.9438,2.9287,2.8872,2.8872,2.8386,2.767,2.762,2.7318,2.6686,2.5793,2.501,2.4306,2.2675,2.0957,1.9467,1.7775,1.5579,1.3585,1.3317,1.2278,0.9965,0.7134,0.3956,0.0232,-0.3467,-0.7454,-1.1484,-1.315,-1.5035,-1.7716,-1.9615,-2.1186,-2.2466,-2.4818,-2.6345,-2.7002,-2.9167,-3.0631,-3.1162,-3.3654,-3.5428,-3.6133,-3.7633,-3.881,-3.9275,-3.9687,-4.0041,-4.027,-4.0392,-4.0523,-4.066,-4.072,-4.0885,-4.1305,-4.1896,-4.2346,-4.2397,-4.2617,-4.275,-4.275,-4.26,-4.2708,-4.3222,-4.4039,-4.4337,-4.425,-4.461,-4.5527,-4.574,-4.5981,-4.621,-4.6202,-4.6217,-4.6225,-4.6239,-4.6241,-4.6246,-4.6288,-4.6293,-4.6261,-4.6295,-4.6217,-4.6307,-4.6289,-4.6289,-4.6289,-4.6289,-4.625,-4.6239,-4.6289,-4.6386,-4.6672,-4.6956,-4.7428,-4.8332,-4.8574,-4.8934,-4.9302,-4.9537,-4.9356,-4.9356,2.912,2.912,2.8982,2.9136,2.947,2.9515,2.9515,2.9348,2.9499,2.9364,2.9028,2.8935,2.8559,2.8094,2.8795,2.8795,2.8046,2.7932,2.7635,2.7108,2.7056,2.6491,2.5411,2.5301,2.4191,2.2518,2.1335,1.9336,1.6576,1.6097,1.4665,1.2224,1.2031,1.1131,0.9483,0.7488,0.4059,-0.0316,-0.2724,-0.6794,-1.2257,-1.3454,-1.5108,-1.8018,-1.9385,-2.114,-2.3238,-2.5133,-2.6627,-2.7751,-3.0052,-3.1306,-3.1405,-3.4242,-3.6589,-3.7736,-3.8387,-3.8857,-3.9249,-3.9628,-3.9937,-4.0233,-4.0306,-4.0408,-4.066,-4.0783,-4.1158,-4.1944,-4.217,-4.2373,-4.2592,-4.3121,-4.3489,-4.3495,-4.2906,-4.2594,-4.2509,-4.3544,-4.3261,-4.3043,-4.3681,-4.4512,-4.5031,-4.569,-4.6124,-4.6223,-4.6268,-4.6367,-4.6406,-4.6384,-4.6393,-4.6368,-4.6354,-4.6295,-4.63,-4.6287,-4.63,-4.6523,-4.666,-4.6445,-4.6328,-4.6303,-4.6351,-4.6554,-4.7135,-4.7554,-4.7832,-4.8608,-4.9781,-5.0313,-5.0477,-5.0722,-5.0448,-5.0888,-5.0823,2.7932,2.7947,2.7997,2.7898,2.7769,2.8336,2.8258,2.7784,2.8369,2.8225,2.762,2.7535,2.7348,2.7144,2.7485,2.7348,2.6901,2.6901,2.6602,2.6096,2.5714,2.5301,2.4741,2.3579,2.2627,2.1682,2.0235,1.8257,1.6018,1.5321,1.4061,1.2313,1.1708,1.055,0.8648,0.7236,0.4227,-0.0245,-0.2021,-0.586,-1.1702,-1.2903,-1.5157,-1.8993,-1.9785,-2.1219,-2.3465,-2.5165,-2.6569,-2.7506,-2.9997,-3.1382,-3.1564,-3.4011,-3.6217,-3.7524,-3.8183,-3.8658,-3.9008,-3.9383,-3.9743,-4.0081,-4.0233,-4.0377,-4.0635,-4.1099,-4.1633,-4.2092,-4.3097,-4.3673,-4.3759,-4.3721,-4.3578,-4.3648,-4.3836,-4.3895,-4.4164,-4.4735,-4.5128,-4.4902,-4.5106,-4.5411,-4.5555,-4.6052,-4.625,-4.6328,-4.6755,-4.7061,-4.7113,-4.7079,-4.706,-4.695,-4.658,-4.6183,-4.6166,-4.625,-4.6443,-4.7098,-4.7402,-4.7402,-4.7344,-4.7174,-4.7201,-4.7635,-4.8146,-4.8454,-4.8746,-4.9296,-5.0566,-5.1055,-5.1308,-5.1277,-5.1253,-5.1279,-5.1316,2.7417,2.7373,2.7284,2.7041,2.6782,2.7384,2.7452,2.7097,2.7685,2.7584,2.7112,2.7021,2.6799,2.6549,2.6428,2.6108,2.5728,2.5823,2.5673,2.5216,2.4597,2.3995,2.3335,2.2115,2.1192,2.0417,1.8946,1.7207,1.5542,1.4632,1.3482,1.1947,1.121,0.9902,0.7902,0.6715,0.3861,-0.0084,-0.224,-0.5924,-1.1301,-1.3041,-1.5518,-1.9097,-2.0194,-2.157,-2.3764,-2.5294,-2.6531,-2.7619,-2.9811,-3.1579,-3.266,-3.4567,-3.6221,-3.725,-3.8016,-3.8478,-3.8732,-3.9361,-3.9771,-3.981,-4.0229,-4.052,-4.0471,-4.1264,-4.1879,-4.2507,-4.3587,-4.4621,-4.4863,-4.4559,-4.4284,-4.4364,-4.4642,-4.482,-4.4941,-4.5371,-4.546,-4.5216,-4.539,-4.5703,-4.5878,-4.6111,-4.6265,-4.6306,-4.7035,-4.7549,-4.7548,-4.7775,-4.7873,-4.7816,-4.7397,-4.732,-4.7407,-4.7579,-4.7033,-4.747,-4.7957,-4.8092,-4.8278,-4.8111,-4.8196,-4.8694,-4.9069,-4.9341,-4.9732,-5.0195,-5.0703,-5.1269,-5.1367,-5.1346,-5.1347,-5.1375,-5.1369,2.757,2.7469,2.6968,2.6698,2.6659,2.6707,2.7094,2.7486,2.7595,2.7527,2.7483,2.7509,2.6854,2.6238,2.5896,2.5313,2.4727,2.4889,2.4892,2.462,2.3897,2.2884,2.1698,2.1418,2.0325,1.8765,1.747,1.6289,1.5008,1.4082,1.2885,1.151,1.0439,0.906,0.7435,0.5884,0.317,-0.0596,-0.3271,-0.708,-1.1869,-1.3943,-1.6219,-1.9127,-2.0515,-2.2132,-2.4129,-2.5404,-2.6531,-2.771,-2.9714,-3.2191,-3.4471,-3.5891,-3.6751,-3.719,-3.7913,-3.8267,-3.8441,-3.9478,-3.9872,-3.9908,-4.0443,-4.0843,-4.0711,-4.134,-4.2211,-4.3002,-4.3964,-4.4882,-4.5568,-4.5615,-4.5614,-4.5862,-4.5298,-4.4938,-4.4898,-4.4783,-4.4461,-4.4169,-4.4714,-4.5008,-4.5226,-4.5808,-4.6257,-4.6417,-4.7116,-4.7704,-4.7743,-4.8218,-4.8603,-4.8612,-4.8308,-4.8122,-4.8654,-4.9101,-4.8302,-4.7778,-4.8218,-4.8538,-4.8931,-4.8982,-4.8994,-4.9395,-4.9861,-5.016,-5.0455,-5.0875,-5.0972,-5.1367,-5.1387,-5.1385,-5.1367,-5.1365,-5.1366,2.7512,2.7412,2.6891,2.6483,2.6133,2.6172,2.6327,2.6539,2.6849,2.704,2.7009,2.6658,2.624,2.5721,2.5057,2.4637,2.4604,2.3952,2.3763,2.3946,2.3504,2.2862,2.2097,2.1307,1.9885,1.8049,1.6664,1.5699,1.4955,1.3656,1.2555,1.1636,1.0254,0.851,0.6615,0.518,0.246,-0.1666,-0.3571,-0.7083,-1.2248,-1.3872,-1.6237,-1.9561,-2.1009,-2.2222,-2.3441,-2.5063,-2.6377,-2.7232,-2.9549,-3.2112,-3.4446,-3.5493,-3.6172,-3.6939,-3.7432,-3.8202,-3.9013,-3.9502,-4.0173,-4.0784,-4.129,-4.1604,-4.1867,-4.264,-4.3331,-4.3878,-4.4713,-4.5436,-4.5654,-4.5746,-4.58,-4.5983,-4.5677,-4.5487,-4.5512,-4.5531,-4.5444,-4.5306,-4.5496,-4.5687,-4.576,-4.6118,-4.6157,-4.6298,-4.7326,-4.8132,-4.8311,-4.8844,-4.9419,-4.9407,-4.9052,-4.8794,-4.9129,-4.9517,-4.9297,-4.8805,-4.8968,-4.9282,-4.9653,-4.9799,-4.9847,-5.0043,-5.0499,-5.0844,-5.1167,-5.131,-5.1323,-5.133,-5.131,-5.1308,-5.1327,-5.1332,-5.1332,2.7446,2.7195,2.661,2.6092,2.5612,2.5625,2.5772,2.5972,2.6268,2.6435,2.6427,2.5834,2.5493,2.5203,2.4405,2.4154,2.4193,2.3197,2.2911,2.306,2.2709,2.2172,2.1392,2.0379,1.9029,1.7477,1.6337,1.5512,1.4832,1.3194,1.1956,1.1272,0.9776,0.7884,0.5874,0.4455,0.1688,-0.2218,-0.4423,-0.7726,-1.2035,-1.4268,-1.644,-1.9088,-2.0605,-2.168,-2.2606,-2.4192,-2.5591,-2.6899,-2.9336,-3.1875,-3.3937,-3.4971,-3.5803,-3.635,-3.7141,-3.8051,-3.896,-3.9716,-4.0354,-4.1213,-4.1771,-4.2096,-4.2475,-4.3247,-4.394,-4.4193,-4.4901,-4.5475,-4.5491,-4.5599,-4.568,-4.5805,-4.5766,-4.5794,-4.5859,-4.5894,-4.5897,-4.5861,-4.5959,-4.6047,-4.6085,-4.6114,-4.6104,-4.6322,-4.7267,-4.835,-4.8608,-4.9246,-4.966,-4.9976,-4.9921,-4.9679,-4.9509,-4.9799,-5.0167,-4.9984,-4.9877,-5.0183,-5.0513,-5.0499,-5.0499,-5.0612,-5.0966,-5.0977,-5.1249,-5.1259,-5.1268,-5.1249,-5.1259,-5.1278,-5.1292,-5.1312,-5.1331,2.734,2.676,2.6129,2.5541,2.5122,2.5064,2.5453,2.6016,2.5954,2.6051,2.6,2.5209,2.4751,2.4641,2.383,2.3424,2.338,2.2662,2.2129,2.1996,2.1663,2.0873,1.9829,1.8965,1.785,1.6826,1.6187,1.5389,1.4396,1.2462,1.1227,1.0768,0.9139,0.721,0.526,0.3746,0.0887,-0.2921,-0.5824,-0.9225,-1.2681,-1.4982,-1.6935,-1.8264,-1.9756,-2.1001,-2.1983,-2.3588,-2.4898,-2.6283,-2.9288,-3.1441,-3.2861,-3.4591,-3.5549,-3.5779,-3.7085,-3.8082,-3.8775,-4.0039,-4.1013,-4.1174,-4.211,-4.2611,-4.2435,-4.3228,-4.3885,-4.4018,-4.4717,-4.5182,-4.5243,-4.5362,-4.5475,-4.5494,-4.5632,-4.5712,-4.5712,-4.5827,-4.5861,-4.5917,-4.6016,-4.6085,-4.6064,-4.6064,-4.6064,-4.623,-4.6871,-4.7653,-4.8301,-4.8994,-4.9963,-5.025,-5.0264,-5.0418,-5.0186,-5.0244,-5.0588,-5.0545,-5.0448,-5.0637,-5.0945,-5.0914,-5.094,-5.1062,-5.1163,-5.1194,-5.1214,-5.1222,-5.1222,-5.1225,-5.1225,-5.1241,-5.1245,-5.1277,-5.1317,2.7013,2.6103,2.532,2.5025,2.4974,2.4602,2.4987,2.5846,2.5985,2.5779,2.558,2.4933,2.4151,2.3544,2.2514,2.2034,2.2129,2.1677,2.1198,2.0979,2.0883,2.0586,1.9813,1.8398,1.7363,1.6717,1.5551,1.4646,1.402,1.2102,1.0947,1.0631,0.8595,0.6422,0.4186,0.186,-0.106,-0.4431,-0.7774,-1.0807,-1.3439,-1.5245,-1.7082,-1.8895,-1.9932,-2.1011,-2.2113,-2.4565,-2.6557,-2.7907,-2.9352,-3.1041,-3.2633,-3.4169,-3.5366,-3.6325,-3.7545,-3.8903,-3.9958,-4.0664,-4.1396,-4.2396,-4.2789,-4.3155,-4.3305,-4.3716,-4.4146,-4.4392,-4.4796,-4.5007,-4.5096,-4.518,-4.5282,-4.5419,-4.5565,-4.568,-4.5696,-4.5727,-4.5757,-4.5838,-4.586,-4.5887,-4.5899,-4.5919,-4.5919,-4.6035,-4.6539,-4.7333,-4.794,-4.8759,-4.9751,-5.0085,-5.0248,-5.067,-5.0879,-5.0913,-5.0966,-5.0942,-5.087,-5.0801,-5.0995,-5.103,-5.1076,-5.1171,-5.1183,-5.1202,-5.1202,-5.1222,-5.1222,-5.1202,-5.1222,-5.1222,-5.1225,-5.1238,-5.1288,2.6822,2.6022,2.5466,2.5161,2.4928,2.4551,2.4723,2.5086,2.5185,2.4929,2.4469,2.3749,2.3188,2.2584,2.1639,2.1416,2.1683,2.111,2.0695,2.0478,1.9972,1.9571,1.9009,1.79,1.7017,1.6116,1.5047,1.4119,1.319,1.1655,1.0453,0.9309,0.7566,0.5437,0.3387,0.0709,-0.2122,-0.5151,-0.8372,-1.1283,-1.3904,-1.5551,-1.7145,-1.8896,-1.9958,-2.1027,-2.2881,-2.5744,-2.764,-2.8316,-2.9485,-3.107,-3.2507,-3.3975,-3.5324,-3.6537,-3.7773,-3.9078,-4.0167,-4.0863,-4.1706,-4.2621,-4.305,-4.3338,-4.3572,-4.3868,-4.4143,-4.4175,-4.4318,-4.4447,-4.465,-4.4843,-4.5132,-4.5321,-4.5456,-4.5599,-4.5715,-4.5684,-4.57,-4.5781,-4.581,-4.5805,-4.58,-4.58,-4.58,-4.5891,-4.6137,-4.6917,-4.769,-4.8604,-4.9479,-4.9927,-5.0265,-5.0651,-5.0791,-5.0791,-5.0791,-5.0825,-5.0871,-5.0855,-5.0937,-5.1029,-5.1102,-5.1146,-5.119,-5.119,-5.1178,-5.1178,-5.1202,-5.1202,-5.1202,-5.1253,-5.1256,-5.1578,-5.1588,2.6508,2.5889,2.5942,2.5515,2.4835,2.4631,2.4414,2.4293,2.4213,2.3777,2.3246,2.2293,2.2066,2.179,2.1019,2.1019,2.1375,2.0566,2.0265,1.9756,1.9054,1.8247,1.7326,1.7326,1.6429,1.5206,1.4699,1.3607,1.2248,1.0971,0.9689,0.822,0.6358,0.4397,0.2164,-0.0269,-0.2948,-0.5838,-0.8991,-1.1663,-1.3999,-1.5845,-1.7423,-1.9046,-2.0604,-2.204,-2.407,-2.6596,-2.8145,-2.7484,-2.9702,-3.1252,-3.2526,-3.3998,-3.5379,-3.6649,-3.7902,-3.9039,-3.9905,-4.1051,-4.1796,-4.2374,-4.2939,-4.3249,-4.3355,-4.3542,-4.3675,-4.3656,-4.3594,-4.3886,-4.4181,-4.4549,-4.4924,-4.5132,-4.5241,-4.5381,-4.5635,-4.5654,-4.5651,-4.5757,-4.5786,-4.58,-4.58,-4.58,-4.578,-4.5692,-4.5959,-4.6429,-4.7224,-4.8039,-4.9097,-5.0096,-5.0391,-5.0625,-5.0625,-5.0567,-5.0547,-5.0547,-5.0624,-5.0678,-5.0786,-5.0887,-5.1029,-5.1089,-5.0961,-5.0995,-5.1069,-5.1102,-5.1185,-5.1326,-5.1392,-5.1377,-5.1431,-5.2025,-5.2269,2.542,2.4283,2.4531,2.4272,2.3781,2.3677,2.385,2.4005,2.4093,2.3508,2.2832,2.2045,2.1454,2.0837,2.011,1.9778,1.9904,1.9599,1.9204,1.8301,1.8149,1.6756,1.5688,1.5794,1.5538,1.4468,1.3542,1.2534,1.1424,1.0163,0.887,0.7743,0.539,0.3221,0.0742,-0.2488,-0.5371,-0.7721,-1.0807,-1.3052,-1.4649,-1.6133,-1.7887,-1.9946,-2.2078,-2.3647,-2.5037,-2.7348,-2.8627,-2.9035,-3.012,-3.15,-3.2509,-3.3984,-3.5459,-3.6773,-3.8286,-3.9632,-4.0671,-4.1261,-4.1839,-4.2216,-4.2613,-4.2918,-4.2938,-4.3087,-4.3178,-4.3231,-4.3474,-4.3777,-4.417,-4.4393,-4.4674,-4.4905,-4.4929,-4.4976,-4.5263,-4.5493,-4.5563,-4.5629,-4.5727,-4.58,-4.58,-4.5771,-4.5723,-4.5629,-4.5772,-4.6009,-4.6741,-4.7587,-4.8644,-4.9817,-5.0317,-5.0486,-5.0485,-5.0421,-5.0336,-5.0336,-5.0387,-5.047,-5.0568,-5.0643,-5.0733,-5.0731,-5.0659,-5.0748,-5.0883,-5.1087,-5.1199,-5.1372,-5.169,-5.1967,-5.2282,-5.2714,-5.3075,2.4908,2.4118,2.4302,2.4039,2.3655,2.3262,2.3116,2.318,2.318,2.2585,2.1731,2.1423,2.0927,2.001,1.9529,1.9292,1.9116,1.8523,1.7963,1.7334,1.6862,1.5869,1.4739,1.4321,1.3979,1.3484,1.2886,1.1888,1.0647,0.9692,0.8398,0.5956,0.3824,0.1491,-0.1032,-0.4319,-0.6494,-0.8322,-1.1106,-1.3495,-1.5157,-1.664,-1.8513,-2.1004,-2.3278,-2.4892,-2.5561,-2.7673,-2.9049,-2.9861,-3.0726,-3.1873,-3.2977,-3.4233,-3.5676,-3.7195,-3.8428,-3.9525,-4.0334,-4.1001,-4.1428,-4.1717,-4.2169,-4.2391,-4.253,-4.2691,-4.2844,-4.292,-4.3124,-4.3371,-4.3999,-4.4258,-4.4448,-4.4707,-4.4745,-4.4777,-4.4953,-4.514,-4.5323,-4.5381,-4.5491,-4.5526,-4.556,-4.5629,-4.5577,-4.5455,-4.5495,-4.5784,-4.6647,-4.7492,-4.8297,-4.9257,-4.9918,-5.0294,-5.0313,-5.0264,-5.0169,-5.0149,-5.0155,-5.0225,-5.0291,-5.0339,-5.0404,-5.0429,-5.049,-5.0548,-5.0698,-5.0926,-5.138,-5.1803,-5.2211,-5.2706,-5.3106,-5.3394,-5.3794,2.4725,2.4429,2.4342,2.4123,2.3677,2.2905,2.2456,2.2381,2.2083,2.1521,2.0624,2.0888,2.0469,1.9627,1.9381,1.9301,1.8709,1.7679,1.6871,1.6355,1.5725,1.4937,1.4156,1.3185,1.256,1.2411,1.1925,1.0839,0.9745,0.9177,0.6979,0.3898,0.1617,-0.0381,-0.2843,-0.5606,-0.7861,-0.9432,-1.1507,-1.374,-1.5763,-1.7296,-1.9204,-2.2016,-2.4072,-2.5511,-2.6326,-2.8044,-2.9551,-3.0456,-3.1132,-3.2274,-3.3509,-3.4658,-3.5852,-3.7648,-3.839,-3.9119,-3.98,-4.0431,-4.0972,-4.099,-4.1596,-4.2002,-4.2127,-4.2333,-4.2512,-4.2688,-4.2824,-4.305,-4.3594,-4.3886,-4.421,-4.4439,-4.4568,-4.4613,-4.4621,-4.4758,-4.4957,-4.514,-4.5264,-4.5362,-4.5362,-4.5381,-4.5342,-4.5361,-4.5416,-4.5721,-4.6604,-4.7505,-4.8378,-4.906,-4.9806,-5.0106,-5.0144,-5.0201,-5.0076,-5.0133,-5.0114,-5.0196,-5.0203,-5.012,-5.0221,-5.0342,-5.0408,-5.0486,-5.0796,-5.1241,-5.1722,-5.2213,-5.2926,-5.3615,-5.3916,-5.4062,-5.4541,2.4819,2.4004,2.3718,2.3512,2.3246,2.2155,2.1863,2.2014,2.1538,2.1211,2.0924,2.0576,2.0264,1.9854,1.946,1.8816,1.7891,1.6774,1.5808,1.5104,1.4518,1.4022,1.3194,1.1994,1.1415,1.114,1.0422,0.9161,0.7861,0.6335,0.4984,0.2809,-0.0194,-0.2632,-0.462,-0.722,-0.9542,-1.0894,-1.2794,-1.4948,-1.7154,-1.8458,-2.0061,-2.3016,-2.484,-2.5902,-2.6987,-2.8371,-2.9484,-2.9922,-3.0908,-3.2006,-3.31,-3.4292,-3.5646,-3.7024,-3.7953,-3.8701,-3.9489,-4.0069,-4.0607,-4.0972,-4.1328,-4.164,-4.1856,-4.2044,-4.2228,-4.253,-4.2765,-4.3069,-4.3545,-4.3738,-4.3781,-4.3955,-4.4195,-4.436,-4.4389,-4.4543,-4.4863,-4.5209,-4.5258,-4.5295,-4.5426,-4.5576,-4.5748,-4.5897,-4.6005,-4.6302,-4.6944,-4.7838,-4.872,-4.9302,-4.9846,-4.9933,-4.9933,-5.0035,-5.0066,-5.0218,-5.0282,-5.0415,-5.0347,-5.0028,-5.0057,-5.0612,-5.0679,-5.0622,-5.1017,-5.1568,-5.2277,-5.2955,-5.3754,-5.458,-5.4735,-5.4919,-5.541,2.4816,2.4262,2.3329,2.2645,2.2199,2.1235,2.1063,2.1301,2.0878,2.0459,2.0157,2.0001,1.9766,1.9301,1.8993,1.8175,1.6927,1.5509,1.4622,1.3992,1.3467,1.31,1.237,1.1047,1.0351,0.9686,0.8505,0.7591,0.6927,0.5368,0.323,0.0493,-0.2672,-0.5085,-0.6119,-0.8107,-1.0253,-1.191,-1.3375,-1.5406,-1.8395,-1.9679,-2.1854,-2.326,-2.5073,-2.6174,-2.6846,-2.8223,-2.925,-2.9781,-3.0683,-3.1783,-3.2932,-3.4056,-3.5204,-3.6569,-3.7504,-3.8214,-3.892,-3.942,-3.9851,-4.0153,-4.0707,-4.1128,-4.1356,-4.1596,-4.2005,-4.2364,-4.2783,-4.3123,-4.3426,-4.3776,-4.4118,-4.4321,-4.4471,-4.4689,-4.4939,-4.496,-4.5246,-4.5609,-4.5767,-4.5854,-4.5803,-4.5973,-4.6225,-4.6434,-4.6594,-4.6961,-4.7401,-4.8177,-4.9056,-4.9322,-4.9811,-5.0069,-5.0201,-5.0467,-5.0551,-5.0627,-5.074,-5.09,-5.1014,-5.0957,-5.1155,-5.154,-5.1387,-5.1166,-5.1485,-5.215,-5.2935,-5.3703,-5.4497,-5.5183,-5.549,-5.5835,-5.6116,2.4596,2.4381,2.2734,2.1732,2.1066,2.0213,2.0182,2.0381,2.0065,1.9548,1.9091,1.9454,1.9136,1.8273,1.77,1.7066,1.605,1.4378,1.3643,1.3221,1.2569,1.2173,1.1536,1.0254,0.8968,0.8765,0.6802,0.5832,0.5797,0.3988,0.15,-0.1199,-0.5118,-0.7253,-0.7656,-0.9126,-1.0617,-1.1951,-1.3222,-1.538,-1.8764,-2.1507,-2.3057,-2.3396,-2.5179,-2.6268,-2.6588,-2.8063,-2.9106,-2.9844,-3.0825,-3.1924,-3.3099,-3.4106,-3.5149,-3.6174,-3.7121,-3.7594,-3.8214,-3.8772,-3.9295,-3.9662,-4.0302,-4.0745,-4.1371,-4.196,-4.2388,-4.265,-4.3131,-4.3534,-4.3851,-4.4272,-4.4693,-4.4892,-4.5035,-4.5268,-4.5611,-4.583,-4.5954,-4.6202,-4.6384,-4.6485,-4.649,-4.6493,-4.6752,-4.7043,-4.7245,-4.7593,-4.8034,-4.8621,-4.9273,-4.9386,-4.9709,-5.0182,-5.058,-5.1168,-5.1328,-5.147,-5.164,-5.1839,-5.2028,-5.2208,-5.2349,-5.2338,-5.246,-5.2341,-5.2544,-5.2844,-5.3647,-5.4463,-5.5245,-5.5654,-5.5743,-5.5862,-5.6078,2.4069,2.3427,2.1747,2.0682,2.0186,1.9347,1.9268,1.9692,1.9225,1.886,1.8771,1.902,1.8568,1.7311,1.6004,1.5562,1.5035,1.4163,1.3075,1.2626,1.2074,1.1353,1.0514,0.9018,0.8072,0.7431,0.5639,0.5249,0.4325,0.1503,-0.0701,-0.2907,-0.5617,-0.7743,-0.8357,-1.0126,-1.2027,-1.3052,-1.4315,-1.7001,-2.04,-2.2637,-2.359,-2.4272,-2.5359,-2.6351,-2.6835,-2.8191,-2.9361,-2.9932,-3.1622,-3.2664,-3.339,-3.5223,-3.6134,-3.6446,-3.6578,-3.686,-3.7812,-3.8479,-3.911,-3.9606,-4.0289,-4.1057,-4.1895,-4.283,-4.348,-4.397,-4.4239,-4.4324,-4.4417,-4.4921,-4.5167,-4.5362,-4.5533,-4.57,-4.6011,-4.644,-4.6615,-4.7105,-4.7384,-4.7343,-4.7334,-4.7276,-4.7318,-4.7583,-4.7912,-4.828,-4.8647,-4.9178,-4.9508,-4.9622,-5.0104,-5.0597,-5.1136,-5.1678,-5.2172,-5.236,-5.2664,-5.2872,-5.3052,-5.3194,-5.2878,-5.2924,-5.3187,-5.3499,-5.3651,-5.4034,-5.456,-5.4986,-5.5445,-5.5649,-5.577,-5.5919,-5.6004,2.3008,2.3296,2.1281,2.0335,1.9934,1.9272,1.9173,1.9327,1.9083,1.8938,1.8763,1.8389,1.7499,1.6163,1.5144,1.469,1.435,1.3481,1.2831,1.1926,1.1328,1.0455,0.9478,0.8386,0.754,0.5427,0.3721,0.1912,0.1106,-0.01,-0.2006,-0.4011,-0.6315,-0.823,-0.9057,-1.0847,-1.2114,-1.3761,-1.6213,-1.9231,-2.1419,-2.3115,-2.411,-2.4282,-2.5768,-2.6494,-2.7196,-2.8787,-2.9791,-3.0494,-3.2093,-3.3217,-3.3743,-3.4924,-3.6119,-3.6577,-3.6453,-3.6815,-3.7653,-3.8343,-3.9062,-3.9971,-4.0764,-4.1742,-4.2673,-4.338,-4.3828,-4.3722,-4.4361,-4.4675,-4.4897,-4.5462,-4.5784,-4.5979,-4.6139,-4.6509,-4.6704,-4.6855,-4.7228,-4.7802,-4.8263,-4.819,-4.8171,-4.8334,-4.8399,-4.8624,-4.8859,-4.914,-4.933,-4.9576,-4.9792,-4.9903,-5.0491,-5.1136,-5.1722,-5.23,-5.3041,-5.3384,-5.3916,-5.4096,-5.4161,-5.4131,-5.3834,-5.3937,-5.4409,-5.4664,-5.4759,-5.4868,-5.5033,-5.5279,-5.5547,-5.5618,-5.5686,-5.5789,-5.5883,2.188,2.2436,2.079,1.988,1.9477,1.9068,1.8997,1.9085,1.8985,1.888,1.8448,1.7541,1.6264,1.5156,1.4488,1.3839,1.3574,1.2837,1.217,1.1467,1.0289,0.8983,0.776,0.6921,0.5225,0.3215,0.161,-0.0201,-0.1808,-0.3211,-0.4416,-0.5724,-0.7723,-0.9038,-0.9954,-1.126,-1.2667,-1.5391,-1.8438,-2.0997,-2.2682,-2.3834,-2.4292,-2.485,-2.583,-2.6894,-2.729,-2.9105,-3.0328,-3.0597,-3.2709,-3.3973,-3.4087,-3.544,-3.6704,-3.718,-3.7235,-3.7499,-3.8273,-3.8967,-3.9473,-4.0421,-4.1679,-4.2806,-4.337,-4.3808,-4.4195,-4.4317,-4.4869,-4.5178,-4.5398,-4.6236,-4.6602,-4.6812,-4.6912,-4.7329,-4.767,-4.7646,-4.7753,-4.8187,-4.8598,-4.8828,-4.8946,-4.9311,-4.9532,-4.9674,-4.9862,-4.9974,-5.0115,-5.0172,-5.0502,-5.0745,-5.1608,-5.2243,-5.2612,-5.3172,-5.3846,-5.4264,-5.4798,-5.5015,-5.489,-5.4936,-5.4848,-5.5122,-5.5339,-5.5262,-5.5071,-5.5224,-5.5403,-5.5434,-5.549,-5.5519,-5.5593,-5.5665,-5.5729,2.0811,2.0307,1.9996,1.9263,1.8284,1.81,1.8297,1.8639,1.8464,1.8337,1.7921,1.6463,1.559,1.4858,1.3407,1.2766,1.3298,1.1691,1.1058,1.0099,0.8579,0.7081,0.5807,0.4212,0.2513,0.1208,-0.0302,-0.2014,-0.4022,-0.5722,-0.7437,-0.916,-0.9339,-1.0362,-1.1279,-1.2273,-1.4694,-1.7435,-2.0253,-2.2124,-2.3594,-2.4598,-2.4786,-2.52,-2.6268,-2.7244,-2.758,-2.945,-3.0586,-3.0482,-3.3167,-3.467,-3.4766,-3.6245,-3.7615,-3.813,-3.8258,-3.8575,-3.9208,-3.9772,-4.0266,-4.1121,-4.2464,-4.3941,-4.4199,-4.4854,-4.5321,-4.5451,-4.5746,-4.6262,-4.6704,-4.7281,-4.7428,-4.7474,-4.7443,-4.7674,-4.7977,-4.8214,-4.8347,-4.8639,-4.88,-4.8869,-4.9005,-4.9182,-4.9499,-4.9636,-4.9909,-5.0039,-5.0692,-5.09,-5.1467,-5.1988,-5.2954,-5.3514,-5.3704,-5.4169,-5.4604,-5.4764,-5.5069,-5.5248,-5.5255,-5.5358,-5.5358,-5.5358,-5.5358,-5.5403,-5.5358,-5.5358,-5.5339,-5.5358,-5.5409,-5.544,-5.5421,-5.5476,-5.5527,1.9948,1.9557,1.9643,1.9323,1.8733,1.8733,1.8642,1.8531,1.8584,1.7895,1.681,1.5735,1.4671,1.3495,1.2538,1.1849,1.1925,1.0863,1.0143,0.8981,0.7505,0.5812,0.4214,0.2511,0.0905,-0.0504,-0.1916,-0.372,-0.6116,-0.7335,-0.8821,-0.992,-1.0457,-1.1171,-1.2087,-1.3813,-1.6546,-1.8959,-2.0908,-2.241,-2.4344,-2.4846,-2.5115,-2.5779,-2.667,-2.7649,-2.8455,-2.9873,-3.0649,-3.1703,-3.3804,-3.4698,-3.5479,-3.7128,-3.8236,-3.8918,-3.8974,-3.9344,-3.9861,-4.0589,-4.146,-4.2908,-4.4112,-4.4958,-4.4837,-4.5163,-4.5424,-4.5751,-4.6151,-4.6537,-4.6954,-4.7432,-4.7765,-4.7842,-4.7925,-4.8028,-4.8169,-4.8382,-4.8458,-4.855,-4.8532,-4.8532,-4.8694,-4.8885,-4.9201,-4.9499,-4.9825,-5.0263,-5.0965,-5.1608,-5.211,-5.2737,-5.3647,-5.407,-5.4204,-5.4707,-5.5248,-5.5294,-5.5294,-5.5339,-5.5377,-5.5403,-5.5358,-5.5403,-5.5358,-5.5339,-5.5294,-5.5294,-5.5294,-5.5294,-5.5339,-5.5403,-5.5384,-5.5313,-5.5352,1.9684,1.9393,1.9545,1.9434,1.9196,1.9084,1.8894,1.8663,1.8709,1.7561,1.5507,1.5026,1.3788,1.2268,1.158,1.1072,1.0574,0.969,0.9004,0.7512,0.571,0.4112,0.2511,0.0804,-0.1007,-0.2218,-0.3425,-0.5225,-0.6913,-0.7646,-0.9482,-1.0816,-1.1331,-1.1969,-1.316,-1.5395,-1.7832,-1.996,-2.1482,-2.3063,-2.5197,-2.5764,-2.6173,-2.7032,-2.7962,-2.8714,-2.9614,-3.0735,-3.158,-3.2619,-3.4003,-3.5454,-3.6408,-3.7433,-3.8546,-3.9123,-3.9504,-3.9896,-4.0464,-4.1285,-4.2745,-4.4197,-4.4819,-4.5267,-4.53,-4.5247,-4.5389,-4.5735,-4.6035,-4.6376,-4.6863,-4.7407,-4.7842,-4.7866,-4.8028,-4.8148,-4.8169,-4.8306,-4.8306,-4.8382,-4.8344,-4.8402,-4.8677,-4.8937,-4.9365,-4.9625,-4.9843,-5.0556,-5.1635,-5.2175,-5.2608,-5.3312,-5.4085,-5.4337,-5.4537,-5.4833,-5.5094,-5.5358,-5.5339,-5.5339,-5.5358,-5.5358,-5.5358,-5.5313,-5.5294,-5.5275,-5.5248,-5.5222,-5.5176,-5.5157,-5.5222,-5.5286,-5.5267,-5.5248,-5.5229,2.0061,1.9655,1.9478,1.9372,1.9178,1.8929,1.8862,1.8807,1.8327,1.6941,1.5026,1.4088,1.2737,1.1385,1.0801,1.0203,0.9406,0.8319,0.7425,0.6114,0.3607,0.1807,0.0402,-0.1107,-0.262,-0.3428,-0.4643,-0.605,-0.7528,-0.897,-1.0759,-1.2018,-1.2672,-1.3125,-1.3814,-1.6055,-1.8458,-2.0651,-2.2308,-2.4366,-2.6229,-2.7086,-2.7565,-2.8561,-2.914,-2.9784,-3.081,-3.1587,-3.2429,-3.3277,-3.4787,-3.599,-3.6849,-3.7958,-3.913,-4.0086,-4.0339,-4.0986,-4.2125,-4.2683,-4.3664,-4.4797,-4.5125,-4.523,-4.5318,-4.53,-4.5372,-4.5717,-4.592,-4.6363,-4.688,-4.7345,-4.7681,-4.7988,-4.8148,-4.8208,-4.8247,-4.8267,-4.8286,-4.8324,-4.8363,-4.842,-4.8713,-4.9057,-4.9525,-4.9825,-4.9971,-5.0772,-5.2022,-5.2825,-5.3232,-5.3734,-5.4467,-5.4571,-5.4694,-5.4734,-5.4943,-5.5214,-5.5358,-5.5339,-5.5294,-5.5294,-5.5294,-5.5248,-5.5222,-5.5176,-5.5176,-5.5149,-5.5121,-5.5102,-5.5102,-5.5149,-5.5149,-5.5176,-5.5183,1.9951,1.9842,1.957,1.9414,1.9166,1.8847,1.8685,1.8422,1.725,1.5806,1.4459,1.3119,1.1765,1.0699,0.9715,0.8916,0.7918,0.7325,0.6329,0.4114,0.1807,0.0502,-0.0905,-0.2418,-0.3934,-0.4847,-0.6078,-0.7645,-0.967,-1.0667,-1.168,-1.296,-1.418,-1.5214,-1.6155,-1.7838,-1.9771,-2.2297,-2.3582,-2.4776,-2.6939,-2.7701,-2.8389,-2.9603,-3.0134,-3.0827,-3.1851,-3.2645,-3.321,-3.4043,-3.5579,-3.649,-3.7462,-3.8664,-3.9431,-4.0035,-4.0289,-4.1936,-4.2856,-4.3398,-4.399,-4.4708,-4.4961,-4.5032,-4.5086,-4.5177,-4.5372,-4.5666,-4.5837,-4.6363,-4.708,-4.7345,-4.7663,-4.805,-4.8226,-4.8247,-4.8286,-4.8324,-4.8324,-4.8363,-4.8363,-4.8661,-4.8946,-4.944,-4.9913,-5.0524,-5.0771,-5.1361,-5.2467,-5.3327,-5.3906,-5.4268,-5.4733,-5.4809,-5.4884,-5.4776,-5.4962,-5.5286,-5.5358,-5.5339,-5.5294,-5.5275,-5.5222,-5.5195,-5.5149,-5.5121,-5.5121,-5.5121,-5.5094,-5.5066,-5.5075,-5.5149,-5.5222,-5.5222,-5.5203,1.9754,1.9762,1.9487,1.9204,1.9063,1.8664,1.8347,1.7677,1.5988,1.4657,1.3499,1.1945,1.0489,0.941,0.8619,0.7624,0.6523,0.5832,0.4624,0.2312,0.0804,-0.0704,-0.2115,-0.3546,-0.4985,-0.6113,-0.7304,-0.872,-1.0777,-1.17,-1.2789,-1.4058,-1.5615,-1.676,-1.7825,-1.9041,-2.0782,-2.3116,-2.4501,-2.5717,-2.7525,-2.8667,-2.9514,-3.0565,-3.1331,-3.2001,-3.2881,-3.362,-3.422,-3.5223,-3.6198,-3.7207,-3.8341,-3.9031,-3.9652,-3.9938,-4.1055,-4.263,-4.3681,-4.3965,-4.4583,-4.5365,-4.5026,-4.4923,-4.5123,-4.5283,-4.5441,-4.5632,-4.5786,-4.6394,-4.7017,-4.7302,-4.7603,-4.7992,-4.8247,-4.8324,-4.8324,-4.8324,-4.8381,-4.8419,-4.8587,-4.8879,-4.9328,-4.9819,-5.0315,-5.1002,-5.1639,-5.2276,-5.2832,-5.3506,-5.4172,-5.4495,-5.4685,-5.4685,-5.4716,-5.4697,-5.4933,-5.5332,-5.5358,-5.5358,-5.5267,-5.5222,-5.5195,-5.5168,-5.5176,-5.5176,-5.5121,-5.5121,-5.5121,-5.5149,-5.513,-5.5222,-5.5286,-5.5267,-5.5229,1.9579,1.9487,1.902,1.8735,1.8635,1.8319,1.7684,1.6784,1.4765,1.3403,1.2512,1.0676,0.9106,0.7826,0.7226,0.6326,0.5125,0.4329,0.2818,0.1307,-0.0503,-0.2012,-0.3345,-0.4606,-0.6167,-0.7461,-0.8788,-1.0136,-1.1624,-1.276,-1.3827,-1.5062,-1.6781,-1.8067,-1.9155,-2.0524,-2.2247,-2.4239,-2.5496,-2.6786,-2.8455,-2.9885,-3.072,-3.1673,-3.2546,-3.3334,-3.4179,-3.4887,-3.5778,-3.6629,-3.7416,-3.8335,-3.9031,-3.9367,-3.9783,-4.0631,-4.2087,-4.3243,-4.4285,-4.45,-4.5143,-4.5811,-4.5805,-4.5629,-4.5649,-4.5736,-4.5736,-4.5719,-4.5803,-4.6346,-4.6908,-4.7178,-4.7457,-4.7852,-4.8247,-4.8324,-4.8363,-4.8419,-4.8475,-4.8587,-4.8827,-4.9191,-4.9884,-5.0399,-5.0948,-5.1412,-5.2128,-5.2831,-5.3293,-5.3486,-5.4061,-5.4314,-5.4463,-5.4463,-5.4476,-5.4604,-5.4933,-5.5332,-5.5377,-5.5377,-5.5286,-5.5222,-5.5195,-5.5195,-5.5229,-5.5229,-5.5176,-5.5176,-5.5203,-5.5229,-5.5248,-5.5248,-5.5313,-5.532,-5.5301,1.9096,1.8719,1.845,1.7994,1.7434,1.6864,1.6096,1.5242,1.3884,1.2512,1.0951,0.93,0.7819,0.6528,0.5929,0.5027,0.3823,0.2616,0.1006,-0.0503,-0.1917,-0.3352,-0.4814,-0.6092,-0.748,-0.9035,-1.0414,-1.1695,-1.3021,-1.406,-1.5217,-1.6717,-1.7909,-1.94,-2.0988,-2.2585,-2.4189,-2.5469,-2.653,-2.7672,-2.9061,-3.0385,-3.1383,-3.2376,-3.3436,-3.4308,-3.5139,-3.5872,-3.6695,-3.7274,-3.7935,-3.8752,-3.9265,-3.9843,-4.0568,-4.2116,-4.2832,-4.3394,-4.4355,-4.4606,-4.5206,-4.6374,-4.6529,-4.6532,-4.6499,-4.6517,-4.6343,-4.6239,-4.6182,-4.6671,-4.7051,-4.733,-4.7663,-4.8014,-4.8324,-4.8363,-4.8401,-4.8494,-4.8587,-4.8771,-4.8972,-4.9561,-5.0291,-5.1185,-5.1705,-5.2029,-5.2517,-5.3226,-5.3672,-5.3814,-5.3959,-5.4236,-5.4382,-5.4397,-5.4528,-5.4654,-5.4962,-5.526,-5.5332,-5.5358,-5.5267,-5.5176,-5.5203,-5.5229,-5.5281,-5.5255,-5.521,-5.521,-5.5281,-5.532,-5.5339,-5.5313,-5.5332,-5.5339,-5.5365,1.8542,1.8071,1.78,1.7044,1.6008,1.474,1.3771,1.2995,1.2512,1.1239,0.9379,0.7912,0.6531,0.5432,0.4728,0.3723,0.2012,0.1308,-0.0202,-0.2139,-0.3152,-0.4732,-0.6228,-0.7446,-0.8884,-1.0476,-1.1875,-1.2976,-1.4199,-1.5022,-1.5974,-1.7345,-1.8865,-2.0713,-2.2528,-2.4572,-2.6289,-2.7023,-2.7746,-2.8419,-2.9539,-3.0863,-3.1886,-3.2947,-3.402,-3.5309,-3.6171,-3.7018,-3.7969,-3.8664,-3.9503,-3.9981,-4.054,-4.1137,-4.2027,-4.3384,-4.3989,-4.4493,-4.5241,-4.5886,-4.6439,-4.7064,-4.7561,-4.784,-4.7806,-4.7806,-4.7422,-4.7177,-4.6993,-4.6984,-4.7265,-4.7587,-4.7943,-4.8324,-4.8363,-4.8438,-4.8513,-4.8606,-4.8734,-4.8898,-4.9303,-4.9891,-5.0664,-5.1671,-5.2338,-5.2482,-5.2804,-5.3401,-5.3755,-5.3865,-5.3971,-5.4174,-5.4281,-5.4364,-5.4528,-5.4765,-5.5038,-5.5286,-5.5332,-5.5332,-5.5222,-5.5255,-5.5307,-5.5333,-5.5314,-5.5314,-5.5314,-5.5307,-5.5307,-5.5371,-5.5384,-5.5384,-5.5358,-5.5358,-5.5384,1.79,1.7535,1.7044,1.5798,1.4364,1.2689,1.1424,1.0266,1.0551,0.9669,0.7803,0.6526,0.5334,0.4332,0.3729,0.2315,0.0806,-0.0303,-0.163,-0.3829,-0.4247,-0.5536,-0.7314,-0.8378,-1.0216,-1.2042,-1.3342,-1.4083,-1.5001,-1.5986,-1.7022,-1.7857,-1.997,-2.1998,-2.4149,-2.6299,-2.7872,-2.8603,-2.9081,-2.9631,-3.0512,-3.1734,-3.3059,-3.4009,-3.56,-3.7276,-3.8074,-3.9169,-4.0432,-4.105,-4.1475,-4.1729,-4.2126,-4.2772,-4.3652,-4.4409,-4.5128,-4.5623,-4.6111,-4.6769,-4.7625,-4.8295,-4.894,-4.9009,-4.8853,-4.8504,-4.8049,-4.796,-4.7776,-4.7992,-4.8289,-4.8555,-4.8849,-4.915,-4.9323,-4.9399,-4.9473,-4.9621,-4.9824,-5.0026,-5.047,-5.0969,-5.1192,-5.2188,-5.2655,-5.2791,-5.3107,-5.3646,-5.3795,-5.3907,-5.4036,-5.4161,-5.4315,-5.4482,-5.4784,-5.4981,-5.514,-5.5313,-5.5384,-5.5365,-5.5307,-5.5339,-5.5413,-5.5389,-5.5408,-5.5432,-5.5432,-5.5408,-5.5358,-5.5358,-5.5396,-5.5409,-5.5403,-5.5441,-5.5403,1.7239,1.677,1.5534,1.4088,1.2624,1.1925,1.0351,0.8594,0.798,0.7096,0.5922,0.5231,0.4431,0.3328,0.3026,0.1613,-0.0404,-0.1733,-0.3189,-0.4475,-0.5241,-0.6693,-0.8594,-0.9854,-1.1541,-1.2949,-1.4234,-1.5131,-1.6099,-1.7239,-1.8693,-2.0055,-2.1915,-2.3861,-2.5848,-2.793,-2.916,-2.9905,-3.1172,-3.1693,-3.2369,-3.3278,-3.4413,-3.5648,-3.7256,-3.8185,-3.8975,-3.978,-4.047,-4.1059,-4.1656,-4.219,-4.2854,-4.3922,-4.4909,-4.5652,-4.6184,-4.6608,-4.6971,-4.7395,-4.798,-4.836,-4.872,-4.9252,-4.9325,-4.8921,-4.8659,-4.8675,-4.8802,-4.9067,-4.9297,-4.9542,-4.9756,-5.0034,-5.0265,-5.0361,-5.0435,-5.0657,-5.0916,-5.1231,-5.1676,-5.1881,-5.2029,-5.2401,-5.2884,-5.3218,-5.3478,-5.3757,-5.3757,-5.387,-5.4036,-5.4196,-5.4416,-5.4642,-5.4952,-5.5149,-5.5301,-5.5352,-5.5446,-5.5427,-5.5364,-5.5437,-5.5504,-5.5504,-5.548,-5.5504,-5.548,-5.5413,-5.5389,-5.5408,-5.544,-5.5454,-5.5517,-5.5594,-5.5479,1.6292,1.5527,1.3806,1.2047,1.0467,0.9678,0.8396,0.6813,0.5812,0.4916,0.4227,0.4234,0.3734,0.2827,0.2423,0.0812,-0.1427,-0.2985,-0.4396,-0.5615,-0.651,-0.8103,-0.9581,-1.1035,-1.271,-1.4234,-1.5334,-1.6311,-1.7047,-1.829,-1.9738,-2.1334,-2.3423,-2.5594,-2.7408,-2.8998,-3.0307,-3.114,-3.3066,-3.4129,-3.4496,-3.5378,-3.5989,-3.7163,-3.8336,-3.9377,-4.0305,-4.1111,-4.1956,-4.265,-4.3392,-4.4065,-4.4827,-4.5745,-4.6354,-4.6728,-4.7093,-4.7431,-4.761,-4.7926,-4.8289,-4.8753,-4.9132,-4.9933,-5.031,-4.9924,-4.9765,-4.978,-4.9954,-5.0235,-5.01,-5.0214,-5.0305,-5.0536,-5.0748,-5.0861,-5.0954,-5.1101,-5.1231,-5.1361,-5.1732,-5.2011,-5.2271,-5.2847,-5.3181,-5.2977,-5.333,-5.3775,-5.3813,-5.387,-5.4072,-5.43,-5.4514,-5.4806,-5.5157,-5.5307,-5.5427,-5.5476,-5.5499,-5.548,-5.5485,-5.5551,-5.5596,-5.5666,-5.5642,-5.5527,-5.5461,-5.5686,-5.5465,-5.5408,-5.546,-5.5536,-5.5677,-5.5976,-5.6129,1.4854,1.3788,1.1955,0.9989,0.81,0.7021,0.6126,0.5131,0.4028,0.3131,0.2538,0.3054,0.3149,0.2534,0.142,-0.041,-0.2279,-0.4194,-0.5656,-0.659,-0.7305,-0.9099,-1.0566,-1.205,-1.3798,-1.5417,-1.6624,-1.7364,-1.7989,-1.9531,-2.0995,-2.2105,-2.4254,-2.6675,-2.8659,-3.0384,-3.1815,-3.307,-3.463,-3.6013,-3.6715,-3.7435,-3.7833,-3.8803,-3.997,-4.1244,-4.2154,-4.2944,-4.3866,-4.4449,-4.4908,-4.5627,-4.6297,-4.7026,-4.7373,-4.7759,-4.7971,-4.8129,-4.83,-4.8942,-4.9464,-4.998,-5.0225,-5.0477,-5.0803,-5.0769,-5.054,-5.0744,-5.0994,-5.1094,-5.0913,-5.1064,-5.1138,-5.1256,-5.1431,-5.1621,-5.1714,-5.1769,-5.1806,-5.1825,-5.2048,-5.2364,-5.2735,-5.3292,-5.3274,-5.3032,-5.3125,-5.3534,-5.3851,-5.3963,-5.4127,-5.4382,-5.4654,-5.4981,-5.5314,-5.5456,-5.5523,-5.5547,-5.5551,-5.5573,-5.5596,-5.5618,-5.5714,-5.5942,-5.5881,-5.5992,-5.6165,-5.641,-5.6094,-5.5873,-5.6217,-5.6543,-5.6575,-5.6855,-5.7122,1.2328,0.9878,0.9288,0.7902,0.6218,0.5727,0.5229,0.4734,0.3732,0.2441,0.1447,0.1153,0.1049,0.0413,-0.1238,-0.2915,-0.4334,-0.5774,-0.6468,-0.7302,-0.8587,-1.0179,-1.1959,-1.3485,-1.5114,-1.6511,-1.7681,-1.8513,-1.9324,-2.0963,-2.2906,-2.4546,-2.6765,-2.8905,-3.0866,-3.2343,-3.3492,-3.474,-3.61,-3.7547,-3.8081,-3.881,-3.9723,-4.0647,-4.1555,-4.2613,-4.3386,-4.3773,-4.422,-4.4768,-4.5494,-4.6394,-4.7085,-4.7754,-4.8075,-4.8366,-4.8635,-4.8661,-4.8959,-4.9502,-4.9959,-4.9909,-5.0119,-5.0524,-5.0741,-5.0655,-5.0744,-5.1274,-5.1477,-5.167,-5.1669,-5.2178,-5.2422,-5.2563,-5.2742,-5.2956,-5.3088,-5.3088,-5.3088,-5.3107,-5.3181,-5.3292,-5.3348,-5.3664,-5.3683,-5.3516,-5.3516,-5.3851,-5.3981,-5.4091,-5.4163,-5.45,-5.4825,-5.5091,-5.5394,-5.5527,-5.5593,-5.5615,-5.5692,-5.5868,-5.589,-5.5682,-5.5855,-5.6486,-5.679,-5.694,-5.7071,-5.7148,-5.7292,-5.7229,-5.7512,-5.7736,-5.7691,-5.7714,-5.7944]}]]